     2              OBSERVATION DATA    GPS                 RINEX VERSION / TYPE
teqc 1997Sep10 19971010 23:12:47UTC                         PGM / RUN BY / DATE
                                                            COMMENT
Original Marker Name: 1103                                  COMMENT
Campaign Name: NGS Salton Trough 1991                       COMMENT
4-Character Station Name: 1103                              COMMENT
6-Character Antenna Code: TRMSST                            COMMENT
Vertical Measurement Point: BGP                             COMMENT
Vertical Offset to Rinex Ref. Point: 0.0597                 COMMENT
Radial Measurement Point: NGP                               COMMENT
Radial Offset to Rinex Ref. Point: 0.2334                   COMMENT
Antenna Height from Field Measurement: 1.4620 m             COMMENT
Original XYZ: -2346002.1836 -4835019.9624 3423701.9368      COMMENT
New XYZ position is based on association with SCEC monument COMMENT
E1C8U8Y2+0011. Position of that monument is believed to be  COMMENT
valid to within 1 m horizontally; vertical accuracy         COMMENT
should be no worse than 3-times this value.                 COMMENT
                                                            COMMENT
Revised Rinex header created by UCSD GPS archive for        COMMENT
GSAC on 10-Apr-1999 (1999:100) 04:25:40 GMT                 COMMENT
For assistance contact dagnew@ucsd.edu or hjohnson@ucsd.edu COMMENT
                                                            COMMENT
HPGN CALIF STA 11-03 1990                                   MARKER NAME
unknown NATIONAL GEODETIC SURVEY                            OBSERVER / AGENCY
482 TRIMBLE 4000 SST NP 4.30 / SP 4.20                      REC # / TYPE / VERS
17 TR 4000SST L1/L2 GEO                                     ANT # / TYPE
 -2346006.0000 -4835016.0000  3423701.0000                  APPROX POSITION XYZ
        1.3835        0.0000        0.0000                  ANTENNA: DELTA H/E/N
     1     1     0                                          WAVELENGTH FACT L1/2
     3    C1    L1    L2                                    # / TYPES OF OBSERV
     0                                                      INTERVAL
  1991     3    28    21    35    0.000000                  TIME OF FIRST OBS
  1991     3    29     3     9   60.000000                  TIME OF LAST OBS
     0                                                      # OF SATELLITES
                                                            END OF HEADER
 91  3 28 21 35  0.0000000  0  4G18G 2G11G19
  20569085.3284         -0.62058
  24102687.344          -0.13415
  23713316.1644         -0.03156
  21066531.109          -0.00317
 91  3 28 21 35 15.0000000  0  4G18G 2G11G19
  20570110.0164       5388.98348
  24092447.648      -53810.309 5
  23705971.4844     -38589.85746
  21064191.000      -12301.356 7
 91  3 28 21 35 30.0000000  0  4G18G 2G11G19
  20571156.9144      10883.31848        -0.10073
  24082214.320     -107586.803 5        -0.32631
  23698644.711      -77098.140 6        -0.19031
  21061852.7274     -24575.75547        -0.03172
 91  3 28 21 35 45.0000000  0  4G18G 2G11G19
  20572224.4924      16499.92648      4376.47063
  24071989.750     -161311.810 5    -41863.64821
  23691335.3444    -115506.62746    -29928.71961
  21059528.4384     -36805.50847     -9529.67862
 91  3 28 21 36  0.0000000  0  4G18G 2G11G19
  20573318.5314      22241.67148      8850.54763
  24061775.9844    -214982.43845    -83684.59961
  23684045.7734    -153812.28446    -59777.12661
  21057209.4844     -48987.82047    -19022.35962
 91  3 28 21 36 15.0000000  0  4G18G 2G11G19
  20574433.0784      28104.59548     13419.05163
  24051574.523     -268602.375 5   -125466.05521
  23676776.102     -192018.718 6    -89548.21921
  21054899.7734     -61126.67747    -28481.17862
 91  3 28 21 36 30.0000000  0  4G18G 2G11G19
  20575572.4304      34094.04848     18086.15063
  24041380.7974    -322166.31045   -167203.85061
  23669524.4144    -230120.32346   -119237.63961
  21052600.3754     -73217.00247    -37902.18262
 91  3 28 21 36 45.0000000  0  4G18G 2G11G19
  20576737.6484      40213.12448     22854.25463
  24031198.094     -375670.863 5   -208895.38621
  23662295.000     -268113.408 6   -148842.47921
  21050307.7504     -85255.39747    -47282.71962
 91  3 28 21 37  0.0000000  0  4G18G 2G11G19
  20577924.6254      46452.07248     27715.76863
  24021027.5234    -429125.80846   -250548.26461
  23655084.273     -306007.594 6   -178370.27421
  21048026.7424     -97251.91447    -56630.62962
 91  3 28 21 37 15.0000000  0  4G18G 2G11G19
  20579136.4144      52817.25848     32675.63763
  24010865.0164    -482524.53545   -292157.32661
  23647893.6254    -343796.17846   -207815.77561
  21045750.8054    -109200.37047    -65941.08662
 91  3 28 21 37 30.0000000  0  4G18G 2G11G19
  20580372.1804      59311.48748     37736.07563
  24000711.2584    -535863.91745   -333720.14961
  23640721.7664    -381475.79846   -237176.36961
  21043488.648     -121097.623 7    -75211.64922
 91  3 28 21 37 45.0000000  0  4G18G 2G11G19
  20581632.0314      65929.00648     42892.56963
  23990571.2424    -589149.75745   -375241.25861
  23633571.055     -419052.026 6   -266456.41721
  21041231.836     -132949.467 7    -84446.83222
 91  3 28 21 38  0.0000000  0  4G18G 2G11G19
  20582915.2424      72678.50948     48151.91363
  23980447.016     -642373.241 5   -416713.76421
  23626444.008     -456515.979 6   -295648.95421
  21038987.781     -144747.440 7    -93640.03222
 91  3 28 21 38 15.0000000  0  4G18G 2G11G19
  20584223.758       79552.044 8     53507.90623
  23970328.266     -695542.048 5   -458143.67221
  23619333.7344    -493875.01546   -324759.74561
  21036750.461     -156499.328 7   -102797.32622
 91  3 28 21 38 30.0000000  0  4G18G 2G11G19
  20585555.180       86550.193 8     58960.99023
  23960220.391     -748655.413 5   -499530.39521
  23612243.703     -531128.133 6   -353788.02821
  21034521.375     -168204.478 7   -111918.19922
 91  3 28 21 38 45.0000000  0  4G18G 2G11G19
  20586911.5634      93675.20248     64512.93763
  23950123.2504    -801710.99845   -540872.07061
  23605175.0474    -568272.65546   -382731.66761
  21032305.805     -179860.591 7   -121000.85922
 91  3 28 21 39  0.0000000  0  4G18G 2G11G19
  20588289.6174     100920.22548     70158.39763
  23940036.5004    -854715.47945   -582173.93661
  23598127.6334    -605315.27346   -411595.91361
  21030093.328     -191474.737 7   -130050.82322
 91  3 28 21 39 15.0000000  0  4G18G 2G11G19
  20589691.5004     108285.60348     75897.64863
  23929960.1414    -907668.33245   -623435.56161
  23591098.070     -642255.438 6   -440380.31821
  21027891.594     -203046.667 7   -139067.89022
 91  3 28 21 39 30.0000000  0  4G18G 2G11G19
  20591116.3524     115773.36448     81732.25663
  23919894.539     -960567.392 5   -664655.28621
  23584086.7344    -679090.61246   -469082.91861
  21025701.766     -214574.383 7   -148050.50022
 91  3 28 21 39 45.0000000  0  4G18G 2G11G19
  20592563.9224     123382.44448     87661.39863
  23909835.6334   -1013413.67945   -705833.88961
  23577096.5084    -715821.24046   -497704.06061
  21023514.125     -226058.786 7   -156999.36522
 91  3 28 21 40  0.0000000  0  4G18G 2G11G19
  20594036.8054     131117.88548     93689.00663
  23899790.117    -1066201.910 5   -746967.25221
  23570128.688     -752442.122 6   -526239.67221
  21021338.531     -237494.787 7   -165910.51322
 91  3 28 21 40 15.0000000  0  4G18G 2G11G19
  20595531.7814     138979.96748     99815.29463
  23889755.477    -1118931.833 5   -788055.18221
  23563181.555     -788952.826 6   -554689.42921
  21019171.008     -248882.627 7   -174784.13222
 91  3 28 21 40 30.0000000  0  4G18G 2G11G19
  20597053.8914     146973.03048    106043.64363
  23879734.0474   -1171598.78145   -829094.06261
  23556254.875     -825348.409 6   -583049.50021
  21017014.320     -260217.763 7   -183616.68522
 91  3 28 21 40 45.0000000  0  4G18G 2G11G19
  20598600.0634     155098.54048    112375.19762
  23869724.719    -1224200.831 5   -870082.34221
  23549349.9454    -861626.82046   -611318.24861
  21014866.867     -271498.304 7   -192406.70022
 91  3 28 21 41  0.0000000  0  4G18G 2G11G19
  20600170.2344     163352.91448    118807.16963
  23859726.5944   -1276741.67645   -911022.95661
  23542469.586     -897791.476 6   -639498.36821
  21012730.039     -282728.040 7   -201157.12022
 91  3 28 21 41 15.0000000  0  4G18G 2G11G19
  20601766.0704     171734.11048    125337.95963
  23849736.7584   -1329223.02745   -951917.21061
  23535608.219     -933844.018 6   -667591.12021
  21010602.406     -293909.063 7   -209869.58422
 91  3 28 21 41 30.0000000  0  4G18G 2G11G19
  20603384.578      180241.321 8    131966.94123
  23839762.6414   -1381645.95746   -992765.95061
  23528769.6564    -969785.31846   -695597.20361
  21008485.258     -305042.508 7   -218544.97522
 91  3 28 21 41 45.0000000  0  4G18G 2G11G19
  20605026.0554     188867.48548    138688.61363
  23829796.7734   -1434017.05846  -1033574.30261
  23521949.250    -1005621.664 6   -723521.49021
  21006373.031     -316135.059 7   -227188.49922
 91  3 28 21 42  0.0000000  0  4G18G 2G11G19
  20606690.9614     197618.03548    145507.20963
  23819841.2664   -1486330.78346  -1074337.93961
  23515151.6954   -1041347.25146   -751359.48061
  21004270.141     -327181.319 7   -235795.95022
 91  3 28 21 42 15.0000000  0  4G18G 2G11G19
  20608378.5314     206488.31148    152419.10163
  23809896.000    -1538591.638 6  -1115060.40721
  23508373.9454   -1076966.45646   -779114.56561
  21002177.016     -338185.884 7   -244370.91122
 91  3 28 21 42 30.0000000  0  4G18G 2G11G19
  20610090.117      215480.006 8    159425.60523
  23799963.344    -1590797.775 6  -1155740.22721
  23501615.8054   -1112477.20046   -806785.15061
  21000091.9384    -349147.19047   -252912.16262
 91  3 28 21 42 45.0000000  0  4G18G 2G11G19
  20611824.023      224595.017 8    166528.19823
  23790037.7114   -1642947.13446  -1196375.82361
  23494878.570    -1147877.328 6   -834369.52421
  20998013.703     -360063.226 7   -261418.14322
 91  3 28 21 43  0.0000000  0  4G18G 2G11G19
  20613582.891      233835.510 8    173728.57023
  23780125.7974   -1695036.93246  -1236964.99861
  23488164.242    -1183163.890 6   -861865.40721
  20995945.664     -370931.410 7   -269886.82522
 91  3 28 21 43 15.0000000  0  4G18G 2G11G19
  20615364.898      243198.145 8    181024.11023
  23770223.6724   -1747071.05446  -1277510.79861
  23481469.203    -1218340.436 6   -889275.56621
  20993885.680     -381755.834 7   -278321.41622
 91  3 28 21 43 30.0000000  0  4G18G 2G11G19
  20617170.539      252685.857 8    188417.11823
  23760333.461    -1799046.165 6  -1318010.62921
  23474796.492    -1253403.524 6   -916597.31821
  20991833.938     -392533.498 7   -286719.57522
 91  3 28 21 43 45.0000000  0  4G18G 2G11G19
  20619000.719      262302.084 8    195910.26522
  23750453.352    -1850958.507 6  -1358461.55021
  23468146.1724   -1288349.13546   -943827.52561
  20989793.008     -403260.659 7   -295078.37722
 91  3 28 21 44  0.0000000  0  4G18G 2G11G19
  20620854.133      272045.986 8    203502.89823
  23740586.609    -1902808.709 6  -1398864.04921
  23461519.641    -1323177.700 6   -970966.53521
  20987762.7584    -413938.00247   -303398.35462
 91  3 28 21 44 15.0000000  0  4G18G 2G11G19
  20622733.547      281923.469 8    211199.62523
  23730734.2424   -1954590.88146  -1439213.54261
  23454916.266    -1357883.144 6   -998009.60321
  20985741.0864    -424559.74447   -311675.00762
 91  3 28 21 44 30.0000000  0  4G18G 2G11G19
  20624638.320      291929.119 8    218996.21722
  23720890.617    -2006310.249 6  -1479514.09621
  23448333.227    -1392470.525 6  -1024960.68121
  20983726.898     -435131.347 7   -319912.59322
 91  3 28 21 44 45.0000000  0  4G18G 2G11G19
  20626566.477      302064.105 8    226893.58822
  23711061.0314   -2057965.34946  -1519764.57961
  23441775.766    -1426938.275 6  -1051818.53821
  20981726.5864    -445651.51347   -328110.09862
 91  3 28 21 45  0.0000000  0  4G18G 2G11G19
  20628519.945      312328.337 8    234891.67222
  23701243.578    -2109556.094 6  -1559964.92421
  23435238.5474   -1461285.95546  -1078582.84161
  20979733.2974    -456120.22947   -336267.50962
 91  3 28 21 45 15.0000000  0  4G18G 2G11G19
  20630496.469      322717.788 8    242987.33222
  23691437.4694   -2161086.44246  -1600118.20161
  23428725.1174   -1495517.31446  -1105256.50761
  20977751.9694    -466541.70747   -344388.11462
 91  3 28 21 45 30.0000000  0  4G18G 2G11G19
  20632498.398      333234.547 8    251182.19022
  23681642.9144   -2212554.41846  -1640222.87561
  23422234.320    -1529630.156 6  -1131837.81521
  20975777.453     -476913.908 7   -352470.32122
 91  3 28 21 45 45.0000000  0  4G18G 2G11G19
  20634523.2194     343878.40948    259476.09963
  23671859.7664   -2263959.69446  -1680278.69761
  23415762.9844   -1563624.03546  -1158326.42561
  20973813.195     -487236.679 7   -360514.01522
 91  3 28 21 46  0.0000000  0  4G18G 2G11G19
  20636572.383      354644.154 8    267864.96822
  23662090.5704   -2315307.27246  -1720289.57361
  23409316.1024   -1597503.91546  -1184726.20961
  20971854.6804    -497515.29947   -368523.29962
 91  3 28 21 46 15.0000000  0  4G18G 2G11G19
  20638644.266      365529.973 8    276347.40822
  23652329.3754   -2366598.94446  -1760256.87461
  23402890.6954   -1631271.32946  -1211038.35561
  20969908.4844    -507751.63147   -376499.63262
 91  3 28 21 46 30.0000000  0  4G18G 2G11G19
  20640739.281      376542.732 8    284928.76222
  23642578.539    -2417827.762 6  -1800175.19821
  23396488.2034   -1664918.96246  -1237257.15561
  20967969.0704    -517939.09147   -384437.88362
 91  3 28 21 46 45.0000000  0  4G18G 2G11G19
  20642859.008      387683.459 8    293609.83222
  23632844.469    -2468992.219 6  -1840043.37221
  23390107.5634   -1698445.40146  -1263381.53161
  20966041.0474    -528076.43247   -392337.08562
 91  3 28 21 47  0.0000000  0  4G18G 2G11G19
  20645002.945      398945.864 8    302385.71622
  23623118.7814   -2520098.39846  -1879866.12761
  23383750.531    -1731856.425 6  -1289415.97321
  20964121.125     -538169.779 7   -400202.00422
 91  3 28 21 47 15.0000000  0  4G18G 2G11G19
  20647168.125      410323.570 8    311251.44422
  23613402.5784   -2571152.65246  -1919648.42961
  23377411.984    -1765158.184 6  -1315365.25621
  20962207.469     -548225.593 7   -408037.67822
 91  3 28 21 47 30.0000000  0  4G18G 2G11G19
  20649356.336      421824.386 8    320213.10022
  23603701.0784   -2622147.12146  -1959384.14361
  23371097.4614   -1798342.60846  -1341223.12861
  20960300.6414    -558236.00947   -415837.97362
 91  3 28 21 47 45.0000000  0  4G18G 2G11G19
  20651568.117      433448.321 8    329270.69322
  23594006.2894   -2673081.30146  -1999072.87961
  23364805.6884   -1831409.06246  -1366989.08361
  20958406.1174    -568200.65347   -423602.59862
 91  3 28 21 48  0.0000000  0  4G18G 2G11G19
  20653804.016      445197.156 8    338425.61722
  23584325.3984   -2723953.55746  -2038713.36661
  23358536.1254   -1864355.43346  -1392661.46261
  20956516.8364    -578118.03547   -431330.39562
 91  3 28 21 48 15.0000000  0  4G18G 2G11G19
  20656063.195      457068.028 8    347675.62722
  23574656.3204   -2774766.66846  -2078307.75961
  23352288.016    -1897184.425 6  -1418242.38221
  20954640.7424    -587991.23147   -439023.76762
 91  3 28 21 48 30.0000000  0  4G18G 2G11G19
  20658345.914      469064.685 8    357023.65522
  23564998.609    -2825516.488 6  -2117852.84521
  23346062.555    -1929891.898 6  -1443728.61621
  20952771.2734    -597816.09547   -446679.47762
 91  3 28 21 48 45.0000000  0  4G18G 2G11G19
  20660651.898      481186.136 8    366468.92522
  23555352.3594   -2876203.50346  -2157348.98561
  23339863.125    -1962478.205 6  -1469120.44321
  20950908.914     -607593.237 7   -454298.00422
 91  3 28 21 49  0.0000000  0  4G18G 2G11G19
  20662983.297      493432.871 8    376011.81622
  23545717.3674   -2926827.34746  -2196795.89961
  23333685.094    -1994942.683 6  -1494417.33721
  20949058.8134    -617322.50447   -461879.22362
 91  3 28 21 49 15.0000000  0  4G18G 2G11G19
  20665336.3754     505801.13848    385649.41462
  23536098.078    -2977391.637 6  -2236196.41521
  23327528.7814   -2027288.88646  -1519622.06261
  20947214.586     -627007.808 7   -469426.18922
 91  3 28 21 49 30.0000000  0  4G18G 2G11G19
  20667713.242      518290.631 8    395381.46722
  23526485.7274   -3027896.41946  -2275550.55661
  23321395.281    -2059516.635 6  -1544734.48721
  20945381.8914    -636649.29347   -476939.00362
 91  3 28 21 49 45.0000000  0  4G18G 2G11G19
  20670114.070      530908.327 8    405213.42023
  23516886.4454   -3078334.51146  -2314852.73161
  23315287.406    -2091618.427 6  -1569748.75421
  20943555.844     -646239.688 7   -484412.02122
 91  3 28 21 50  0.0000000  0  4G18G 2G11G19
  20672540.781      543659.387 8    415149.29423
  23507304.250    -3128700.981 6  -2354099.10121
  23309202.7664   -2123589.11646  -1594660.87561
  20941742.7814    -655774.28347   -491841.54462
 91  3 28 21 50 15.0000000  0  4G18G 2G11G19
  20674991.336      556535.158 8    425182.34823
  23497730.719    -3179004.083 6  -2393296.09021
  23303144.4064   -2155436.73246  -1619477.10661
  20939936.4774    -665261.59047   -499234.22062
 91  3 28 21 50 30.0000000  0  4G18G 2G11G19
  20677465.078      569537.854 8    435314.30223
  23488171.5634   -3229241.13546  -2432441.60861
  23297108.031    -2187158.607 6  -1644195.33921
  20938140.0864    -674698.97347   -506587.99962
 91  3 28 21 50 45.0000000  0  4G18G 2G11G19
  20679963.055      582662.262 8    445541.09723
  23478622.8754   -3279417.09746  -2471539.52961
  23291092.820    -2218759.627 6  -1668819.40021
  20936353.0704    -684091.44947   -513906.78562
 91  3 28 21 51  0.0000000  0  4G18G 2G11G19
  20682484.336      595911.302 8    455865.00823
  23469085.297    -3329529.251 6  -2510587.73321
  23285104.4534   -2250236.67246  -1693346.86261
  20934570.023     -693436.397 7   -521188.53522
 91  3 28 21 51 15.0000000  0  4G18G 2G11G19
  20685029.289      609286.484 8    466287.21323
  23459562.2344   -3379575.88546  -2549584.87861
  23279137.234    -2281587.824 6  -1717776.22721
  20932804.8754    -702732.32547   -528432.08362
 91  3 28 21 51 30.0000000  0  4G18G 2G11G19
  20687597.602      622786.724 8    476806.86423
  23450050.508    -3429557.818 6  -2588531.60921
  23273195.664    -2312813.776 6  -1742108.03821
  20931043.1024    -711980.04247   -535638.06962
 91  3 28 21 51 45.0000000  0  4G18G 2G11G19
  20690190.344      636406.699 8    487419.81723
  23440551.344    -3479480.269 6  -2627431.99521
  23267275.688    -2343919.455 6  -1766346.12621
  20929293.6954    -721184.75347   -542810.54062
 91  3 28 21 52  0.0000000  0  4G18G 2G11G19
  20692805.438      650149.278 8    498128.29823
  23431062.313    -3529339.907 6  -2666283.43221
  23261380.5634   -2374901.54446  -1790487.91061
  20927552.6254    -730343.54047   -549947.22962
 91  3 28 21 52 15.0000000  0  4G18G 2G11G19
  20695444.859      664017.490 8    508934.68023
  23421586.3984   -3579133.65446  -2705083.52661
  23255509.4454   -2405756.74246  -1814530.81561
  20925816.031     -739453.350 7   -557045.75722
 91  3 28 21 52 30.0000000  0  4G18G 2G11G19
  20698107.633      678014.616 8    519841.51523
  23412124.828    -3628857.970 6  -2743829.52021
  23249662.055    -2436481.372 6  -1838471.98721
  20924094.7344    -748510.84347   -564103.51562
 91  3 28 21 52 45.0000000  0  4G18G 2G11G19
  20700795.742      692137.584 8    530846.41223
  23402673.609    -3678515.582 6  -2782523.53621
  23243840.508    -2467078.058 6  -1862313.44821
  20922379.5084    -757518.93547   -571122.78562
 91  3 28 21 53  0.0000000  0  4G18G 2G11G19
  20703507.633      706388.012 8    541950.62023
  23393236.578    -3728105.085 6  -2821164.47721
  23238042.328    -2497545.186 6  -1886053.96221
  20920674.9614    -766476.35147   -578102.56062
 91  3 28 21 53 15.0000000  0  4G18G 2G11G19
  20706242.906      720766.581 8    553154.68223
  23383814.430    -3777625.320 6  -2859751.44321
  23232270.250    -2527881.341 6  -1909692.41521
  20918979.9304    -775381.98847   -585041.98962
 91  3 28 21 53 30.0000000  0  4G18G 2G11G19
  20709002.813      735267.789 8    564454.30623
  23374402.859    -3827081.877 6  -2898288.80021
  23226520.297    -2558091.789 6  -1933232.91121
  20917292.992     -784241.495 7   -591945.48022
 91  3 28 21 53 45.0000000  0  4G18G 2G11G19
  20711785.930      749893.275 8    575850.77222
  23365003.734    -3876472.518 6  -2936774.79521
  23220795.875    -2588174.309 6  -1956673.73221
  20915617.211     -793052.886 7   -598811.47022
 91  3 28 21 54  0.0000000  0  4G18G 2G11G19
  20714594.242      764649.280 8    587348.93823
  23355619.563    -3925791.016 6  -2975204.56221
  23215097.0784   -2618122.28746  -1980009.70061
  20913952.9384    -801809.80247   -605635.01562
 91  3 28 21 54 15.0000000  0  4G18G 2G11G19
  20717425.984      779530.074 8    598944.34623
  23346247.000    -3975042.986 6  -3013582.50521
  23209421.9384   -2647941.17846  -2003245.09861
  20912293.602     -810518.114 7   -612420.69022
 91  3 28 21 54 30.0000000  0  4G18G 2G11G19
  20720281.305      794536.207 8    610637.41723
  23336886.7194   -4024227.85246  -3051908.15261
  23203771.727    -2677630.362 6  -2026379.41221
  20910644.852     -819177.281 7   -619168.06822
 91  3 28 21 54 45.0000000  0  4G18G 2G11G19
  20723160.008      809664.971 8    622426.04023
  23327538.898    -4073347.926 6  -3090183.31221
  23198147.047    -2707191.985 6  -2049414.34221
  20909006.883     -827789.840 7   -625879.12922
 91  3 28 21 55  0.0000000  0  4G18G 2G11G19
  20726061.7814     824912.12148    634306.92163
  23318203.891    -4122406.963 6  -3128410.90821
  23192545.773    -2736629.736 6  -2072352.74921
  20907375.922     -836359.684 7   -632556.90622
 91  3 28 21 55 15.0000000  0  4G18G 2G11G19
  20728986.523      840280.381 8    646282.17323
  23308880.8594   -4171402.25546  -3166588.84061
  23186967.461    -2765940.808 6  -2095192.44621
  20905753.602     -844884.573 7   -639199.65822
 91  3 28 21 55 30.0000000  0  4G18G 2G11G19
  20731935.898      855780.731 8    658360.35423
  23299569.4774   -4220322.75546  -3204708.50361
  23181415.4064   -2795113.76246  -2117924.52261
  20904141.922     -853353.160 7   -645798.53522
 91  3 28 21 55 45.0000000  0  4G18G 2G11G19
  20734908.797      871405.564 8    670535.52923
  23290273.602    -4269175.582 6  -3242775.42321
  23175888.8364   -2824155.80846  -2140554.58761
  20902540.297     -861772.782 7   -652359.25922
 91  3 28 21 56  0.0000000  0  4G18G 2G11G19
  20737904.922      887148.866 8    682803.02123
  23280988.9224   -4317966.78546  -3280794.33361
  23170386.1094   -2853072.68946  -2163087.11661
  20900944.711     -870149.756 7   -658886.75122
 91  3 28 21 56 15.0000000  0  4G18G 2G11G19
  20740924.430      903014.028 8    695165.46323
  23271718.164    -4366692.676 6  -3318762.34321
  23164909.3984   -2881860.41146  -2185519.02961
  20899361.039     -878480.086 7   -665377.90122
 91  3 28 21 56 30.0000000  0  4G18G 2G11G19
  20743967.320      919006.939 8    707627.45423
  23262457.7274   -4415347.31446  -3356674.83561
  23159456.7344   -2910513.04246  -2207845.66361
  20897785.625     -886758.182 7   -671828.34722
 91  3 28 21 56 45.0000000  0  4G18G 2G11G19
  20747033.906      935123.262 8    720185.60623
  23253211.8364   -4463934.69246  -3394534.91461
  23154028.4614   -2939034.26746  -2230069.89461
  20896219.453     -894988.251 7   -678241.37322
 91  3 28 21 57  0.0000000  0  4G18G 2G11G19
  20750126.039      951369.184 8    732844.74923
  23243978.7274   -4512448.47646  -3432337.65061
  23148626.813    -2967417.584 6  -2252186.66721
  20894663.242     -903163.857 7   -684611.95722
 91  3 28 21 57 15.0000000  0  4G18G 2G11G19
  20753241.289      967740.772 8    745601.80823
  23234760.039    -4560892.412 6  -3470085.96521
  23143250.8054   -2995666.63646  -2274198.81861
  20893117.922     -911288.960 7   -690943.18622
 91  3 28 21 57 30.0000000  0  4G18G 2G11G19
  20756380.883      984239.236 8    758457.72923
  23225556.0164   -4609265.17446  -3507778.81461
  23137902.1954   -3023779.94646  -2296105.20861
  20891579.969     -919362.253 7   -697234.04722
 91  3 28 21 57 45.0000000  0  4G18G 2G11G19
  20759543.523     1000858.793 8    771408.01723
  23216363.8754   -4657572.49146  -3545420.67161
  23132576.031    -3051762.999 6  -2317910.08721
  20890053.500     -927389.616 7   -703489.11622
 91  3 28 21 58  0.0000000  0  4G18G 2G11G19
  20762729.555     1017603.021 8    784455.44223
  23207181.7584   -4705810.29346  -3583008.35961
  23127277.3054   -3079611.59246  -2339610.20561
  20888536.805     -935367.210 7   -709705.41122
 91  3 28 21 58 15.0000000  0  4G18G 2G11G19
  20765940.211     1034472.214 8    797600.24323
  23198016.2114   -4753977.96546  -3620541.40361
  23122004.0704   -3107324.95146  -2361204.94261
  20887026.844     -943294.643 7   -715882.61522
 91  3 28 21 58 30.0000000  0  4G18G 2G11G19
  20769174.227     1051469.514 8    810844.87523
  23188865.945    -4802072.219 6  -3658017.22321
  23116756.3204   -3134899.61946  -2382691.59761
  20885528.133     -951168.281 7   -722017.90022
 91  3 28 21 58 45.0000000  0  4G18G 2G11G19
  20772432.492     1068593.115 8    824187.92123
  23179726.1254   -4850094.74246  -3695437.16461
  23111535.3834   -3162337.25946  -2404071.49461
  20884040.906     -958990.109 7   -728112.81222
 91  3 28 21 59  0.0000000  0  4G18G 2G11G19
  20775716.625     1085850.332 8    837635.08123
  23170603.367    -4898038.126 6  -3732795.42621
  23106341.6724   -3189630.01546  -2425338.49261
  20882563.047     -966752.738 7   -734161.59622
 91  3 28 21 59 15.0000000  0  4G18G 2G11G19
  20779024.641     1103230.817 8    851178.29423
  23161492.0394   -4945912.71246  -3770100.09161
  23101171.9614   -3216788.22646  -2446500.64661
  20881095.023     -974466.573 7   -740172.35222
 91  3 28 21 59 30.0000000  0  4G18G 2G11G19
  20782356.086     1120735.962 8    864818.64523
  23152396.3754   -4993716.80346  -3807349.82961
  23096028.766    -3243810.112 6  -2467556.57721
  20879637.680     -982130.111 7   -746143.92322
 91  3 28 21 59 45.0000000  0  4G18G 2G11G19
  20785710.750     1138364.297 8    878554.98723
  23143312.641    -5041451.521 6  -3844545.49521
  23090914.0944   -3270696.68646  -2488507.06261
  20878188.133     -989744.686 7   -752077.33222
 91  3 28 22  0  0.0000000  0  4G18G 2G11G19
  20789087.461     1156113.504 8    892385.51723
  23134240.0704   -5089118.75946  -3881688.58861
  23085823.2194   -3297449.68446  -2509353.47161
  20876746.859     -997312.164 7   -757974.04622
 91  3 28 22  0 15.0000000  0  4G18G 2G11G19
  20792489.461     1173990.498 8    906315.62123
  23125185.016    -5136711.178 6  -3918773.36821
  23080759.1644   -3324061.58446  -2530089.93161
  20875315.984    -1004825.448 7   -763828.52922
 91  3 28 22  0 30.0000000  0  4G18G 2G11G19
  20795915.445     1191991.186 8    920342.11023
  23116140.2734   -5184233.37246  -3955803.43661
  23075720.3914   -3350536.75946  -2550719.84661
  20873896.422    -1012289.033 7   -769644.28722
 91  3 28 22  0 45.0000000  0  4G18G 2G11G19
  20799363.500     1210115.337 8    934464.80323
  23107113.1564   -5231685.07646  -3992778.58061
  23070708.4304   -3376874.82546  -2571242.93661
  20872485.375    -1019702.795 7   -775421.22222
 91  3 28 22  1  0.0000000  0  4G18G 2G11G19
  20802835.539     1228360.774 8    948682.01323
  23098094.3204   -5279067.99746  -4029700.11861
  23065723.1334   -3403077.26746  -2591660.34061
  20871086.125    -1027068.714 7   -781160.87322
 91  3 28 22  1 15.0000000  0  4G18G 2G11G19
  20806331.938     1246730.493 8    962996.05223
  23089092.3284   -5326379.06146  -4066565.66761
  23060763.547    -3429141.022 6  -2611969.67321
  20869691.188    -1034383.772 7   -786860.89822
 91  3 28 22  1 30.0000000  0  4G18G 2G11G19
  20809850.414     1265221.744 8    977404.79823
  23080103.0864   -5373621.00246  -4103377.35461
  23055829.102    -3455068.641 6  -2632172.93221
  20868310.273    -1041650.823 7   -792523.51422
 91  3 28 22  1 45.0000000  0  4G18G 2G11G19
  20813392.477     1283835.532 8    991909.02723
  23071124.9144   -5420792.61846  -4140134.24661
  23050921.8134   -3480858.60046  -2652268.92061
  20866935.109    -1048868.650 7   -798147.77622
 91  3 28 22  2  0.0000000  0  4G18G 2G11G19
  20816958.328     1302571.778 8   1006508.68123
  23062162.273    -5467893.951 6  -4176836.38521
  23046039.6954   -3506510.68446  -2672257.46161
  20865574.484    -1056037.170 7   -803733.61522
 91  3 28 22  2 15.0000000  0  4G18G 2G11G19
  20820546.555     1321428.922 8   1021202.53323
  23053212.188    -5514926.216 6  -4213484.69721
  23041184.7814   -3532026.04346  -2692139.46961
  20864216.289    -1063157.868 7   -809282.19222
 91  3 28 22  2 30.0000000  0  4G18G 2G11G19
  20824158.031     1340408.782 8   1035992.01223
  23044276.445    -5561887.270 6  -4250077.52021
  23036356.6954   -3557402.75246  -2711913.43361
  20862873.609    -1070228.846 7   -814792.02322
 91  3 28 22  2 45.0000000  0  4G18G 2G11G19
  20827792.125     1359504.425 8   1050871.71023
  23035351.4224   -5608783.61146  -4286619.90861
  23031551.4384   -3582647.16646  -2731584.32061
  20861532.367    -1077256.684 7   -820268.23722
 91  3 28 22  3  0.0000000  0  4G18G 2G11G19
  20831447.359     1378716.410 8   1065842.06823
  23026438.898    -5655615.082 6  -4323111.77221
  23026772.1724   -3607758.52646  -2751151.51961
  20860207.125    -1084240.885 7   -825710.45122
 91  3 28 22  3 15.0000000  0  4G18G 2G11G19
  20835126.391     1398046.359 8   1080904.33923
  23017539.7894   -5702379.27146  -4359551.18161
  23022019.4224   -3632734.49446  -2770613.21861
  20858883.742    -1091179.515 7   -831117.15722
 91  3 28 22  3 30.0000000  0  4G18G 2G11G19
  20838827.328     1417498.448 8   1096061.79223
  23008653.6644   -5749071.93046  -4395934.87361
  23017295.1954   -3657570.66846  -2789966.00061
  20857571.711    -1098068.233 7   -836484.96822
 91  3 28 22  3 45.0000000  0  4G18G 2G11G19
  20842551.672     1437064.604 8   1111308.13123
  22999781.164    -5795700.799 6  -4432268.86121
  23012592.2734   -3682274.77846  -2809215.87161
  20856269.477    -1104915.148 7   -841820.20522
 91  3 28 22  4  0.0000000  0  4G18G 2G11G19
  20846297.867     1456754.326 8   1126650.74323
  22990920.914    -5842256.160 6  -4468545.56821
  23007918.492    -3706836.985 6  -2828355.17021
  20854976.656    -1111710.554 7   -847115.31322
 91  3 28 22  4 15.0000000  0  4G18G 2G11G19
  20850066.750     1476562.489 8   1142085.65423
  22982075.234    -5888743.183 6  -4504769.02321
  23003269.5234   -3731262.12346  -2847387.65561
  20853692.078    -1118459.734 7   -852374.39622
 91  3 28 22  4 30.0000000  0  4G18G 2G11G19
  20853859.055     1496492.104 8   1157615.20523
  22973242.031    -5935158.368 6  -4540936.50221
  22998649.563    -3755546.495 6  -2866310.45721
  20852420.211    -1125159.023 7   -857594.60622
 91  3 28 22  4 45.0000000  0  4G18G 2G11G19
  20857676.609     1516549.269 8   1173244.14123
  22964425.180    -5981495.774 6  -4577043.37821
  22994056.0234   -3779684.04946  -2885118.85861
  20851153.109    -1131802.578 7   -862771.38722
 91  3 28 22  5  0.0000000  0  4G18G 2G11G19
  20861514.602     1536722.447 8   1188963.47923
  22955619.0704   -6027766.51946  -4613098.32561
  22989488.9844   -3803685.78746  -2903821.42161
  20849900.719    -1138401.515 7   -867913.40322
 91  3 28 22  5 15.0000000  0  4G18G 2G11G19
  20865375.969     1557013.102 8   1204774.35723
  22946826.7034   -6073969.13846  -4649100.17861
  22984946.750    -3827550.192 6  -2922416.98121
  20848650.031    -1144954.517 7   -873019.62022
 91  3 28 22  5 30.0000000  0  4G18G 2G11G19
  20869260.836     1577421.035 8   1220676.62223
  22938047.430    -6120103.432 6  -4685048.80621
  22980432.969    -3851276.801 6  -2940905.17221
  20847415.055    -1151461.403 7   -878089.90322
 91  3 28 22  5 45.0000000  0  4G18G 2G11G19
  20873166.664     1597949.438 8   1236672.75823
  22929281.3524   -6166165.90146  -4720941.44861
  22975942.8914   -3874862.12146  -2959283.25361
  20846183.273    -1157919.063 7   -883121.82322
 91  3 28 22  6  0.0000000  0  4G18G 2G11G19
  20877096.375     1618601.659 8   1252765.37623
  22920530.6414   -6212153.15646  -4756775.49161
  22971482.961    -3898302.589 6  -2977548.47921
  20844965.5554   -1164323.97647   -888112.65362
 91  3 28 22  6 15.0000000  0  4G18G 2G11G19
  20881048.664     1639370.979 8   1268949.23723
  22911793.023    -6258071.488 6  -4792555.84121
  22967048.516    -3921604.298 6  -2995705.57421
  20843754.195    -1170682.589 7   -893067.40222
 91  3 28 22  6 30.0000000  0  4G18G 2G11G19
  20885024.117     1660260.370 8   1285226.66422
  22903068.6954   -6303917.68646  -4828279.97661
  22962641.945    -3944764.086 6  -3013752.08621
  20842558.180    -1176991.867 7   -897983.70822
 91  3 28 22  6 45.0000000  0  4G18G 2G11G19
  20889022.984     1681276.064 8   1301602.51023
  22894360.2344   -6349685.56146  -4863943.07961
  22958263.6094   -3967775.45546  -3031682.94161
  20841363.875    -1183245.540 7   -902856.68022
 91  3 28 22  7  0.0000000  0  4G18G 2G11G19
  20893044.734     1702410.276 8   1318070.70323
  22885663.8674   -6395382.59346  -4899550.98361
  22953910.7034   -3990645.61446  -3049503.77861
  20840183.703    -1189450.881 7   -907691.99422
 91  3 28 22  7 15.0000000  0  4G18G 2G11G19
  20897089.836     1723660.986 8   1334629.67422
  22876980.2894   -6441010.34346  -4935104.89961
  22949585.656    -4013376.259 6  -3067215.89321
  20839011.156    -1195609.793 7   -912491.12822
 91  3 28 22  7 30.0000000  0  4G18G 2G11G19
  20901154.5944    1745030.82248   1351281.46663
  22868311.297    -6486566.106 6  -4970602.72321
  22945286.0234   -4035964.61046  -3084817.13961
  20837850.438    -1201719.618 7   -917252.00922
 91  3 28 22  7 45.0000000  0  4G18G 2G11G19
  20905244.484     1766520.059 8   1368026.30322
  22859655.945    -6532049.325 6  -5006044.03521
  22941015.547    -4058409.822 6  -3102306.84121
  20836694.734    -1207779.839 7   -921974.24622
 91  3 28 22  8  0.0000000  0  4G18G 2G11G19
  20909357.836     1788133.019 8   1384867.54522
  22851016.3444   -6577455.69246  -5041425.44461
  22936771.820    -4080707.326 6  -3119681.44721
  20835553.164    -1213786.215 7   -926654.51722
 91  3 28 22  8 15.0000000  0  4G18G 2G11G19
  20913493.648     1809864.217 8   1401800.91922
  22842388.734    -6622790.199 6  -5076750.87421
  22932556.4064   -4102862.22746  -3136944.94261
  20834418.086    -1219744.126 7   -931297.02422
 91  3 28 22  8 30.0000000  0  4G18G 2G11G19
  20917651.898     1831722.993 8   1418833.70222
  22833776.055    -6668043.357 6  -5112012.90321
  22928368.9384   -4124864.77046  -3154089.71361
  20833297.977    -1225643.902 7   -935894.23722
 91  3 28 22  8 45.0000000  0  4G18G 2G11G19
  20921834.2734    1853699.27548   1435958.05162
  22825179.195    -6713225.190 6  -5147219.36321
  22924209.8754   -4146724.87346  -3171123.49161
  20832182.750    -1231495.622 7   -940454.00022
 91  3 28 22  9  0.0000000  0  4G18G 2G11G19
  20926039.9064    1875796.31748   1453176.49562
  22816596.0704   -6758332.11046  -5182367.45361
  22920077.1254   -4168438.76446  -3188043.34061
  20831080.383    -1237295.656 7   -944973.49422
 91  3 28 22  9 15.0000000  0  4G18G 2G11G19
  20930266.0474    1898009.79848   1470485.67062
  22808025.383    -6803368.441 6  -5217460.52421
  22915972.1804   -4190010.64046  -3204852.52661
  20829984.063    -1243048.448 7   -949456.16922
 91  3 28 22  9 30.0000000  0  4G18G 2G11G19
  20934515.8754    1920341.49448   1487886.95962
  22799468.5314   -6848331.94346  -5252496.86661
  22911894.3524   -4211438.35046  -3221549.37161
  20828898.578    -1248751.903 7   -953900.40422
 91  3 28 22  9 45.0000000  0  4G18G 2G11G19
  20938789.1724    1942793.12948   1505381.70862
  22790926.8054   -6893220.36246  -5287474.70161
  22907844.8594   -4232719.50346  -3238132.02361
  20827822.664    -1254403.953 7   -958304.58122
 91  3 28 22 10  0.0000000  0  4G18G 2G11G19
  20943083.5004    1965364.98448   1522970.13262
  22782398.648    -6938033.401 6  -5322393.78921
  22903823.461    -4253853.652 6  -3254600.12721
  20826757.211    -1260004.332 7   -962668.49622
 91  3 28 22 10 15.0000000  0  4G18G 2G11G19
  20947400.0004    1988050.58848   1540647.19562
  22773884.1174   -6982777.27846  -5357258.98861
  22899827.9454   -4274846.69746  -3270958.28261
  20825700.313    -1265559.204 7   -966996.94622
 91  3 28 22 10 30.0000000  0  4G18G 2G11G19
  20951740.2504    2010854.48648   1558416.42962
  22765383.2194   -7027447.31046  -5392066.64861
  22895861.1174   -4295693.94846  -3287202.82961
  20824654.961    -1271063.926 7   -971286.31722
 91  3 28 22 10 45.0000000  0  4G18G 2G11G19
  20956100.6174    2033772.21348   1576274.36362
  22756897.3284   -7072047.99146  -5426820.27161
  22891919.4534   -4316399.64846  -3303337.07161
  20823613.945    -1276522.954 7   -975540.08422
 91  3 28 22 11  0.0000000  0  4G18G 2G11G19
  20960485.2114    2056806.57348   1594223.17563
  22748423.6174   -7116576.17646  -5461517.39961
  22888008.3594   -4336960.74246  -3319358.63961
  20822584.578    -1281933.296 7   -979755.91622
 91  3 28 22 11 15.0000000  0  4G18G 2G11G19
  20964890.0704    2079957.07648   1612262.49063
  22739963.0474   -7161032.20046  -5496158.30461
  22884122.2194   -4357377.33746  -3335267.61361
  20821563.734    -1287295.355 7   -983934.11822
 91  3 28 22 11 30.0000000  0  4G18G 2G11G19
  20969317.9694    2103224.36548   1630392.80963
  22731517.0004   -7205414.74146  -5530741.94961
  22880266.4224   -4377648.08546  -3351062.93761
  20820553.336    -1292607.889 7   -988073.73822
 91  3 28 22 11 45.0000000  0  4G18G 2G11G19
  20973768.6094    2126610.87648   1648616.02763
  22723085.4064   -7249721.56846  -5565266.59361
  22876435.8834   -4397770.46046  -3366742.64661
  20819551.164    -1297868.512 7   -992172.90222
 91  3 28 22 12  0.0000000  0  4G18G 2G11G19
  20978240.1024    2150115.45848   1666931.25163
  22714668.516    -7293953.321 6  -5599732.73621
  22872634.844    -4417745.206 6  -3382307.31521
  20818561.852    -1303078.180 7   -996232.36022
 91  3 28 22 12 15.0000000  0  4G18G 2G11G19
  20982735.3444    2173736.18248   1685336.97763
  22706264.9224   -7338111.73346  -5634141.73161
  22868861.7344   -4437573.83946  -3397758.12561
  20817579.148    -1308238.406 7  -1000253.29322
 91  3 28 22 12 30.0000000  0  4G18G 2G11G19
  20987253.4304    2197472.69548   1703832.91963
  22697876.7504   -7382197.10246  -5668493.81561
  22865116.9144   -4457256.47946  -3413095.18461
  20816606.234    -1313349.564 7  -1004235.98822
 91  3 28 22 12 45.0000000  0  4G18G 2G11G19
  20991790.4534    2221321.25448   1722416.17363
  22689500.9304   -7426212.79246  -5702791.60461
  22861397.7734   -4476796.57046  -3428321.16161
  20815641.570    -1318415.390 7  -1008183.36822
 91  3 28 22 12 59.9990000  0  4G18G 2G11G19
  20996349.6984    2245277.72848   1741083.51963
  22681136.9564   -7470158.36046  -5737034.75061
  22857706.901    -4496195.184 6  -3443436.89021
  20814685.769    -1323438.102 7  -1012097.15222
 91  3 28 22 13 14.9990000  0  5G18G 2G11G16G19
  21000930.3084    2269352.86448   1759843.33263
  22672788.8154   -7514031.79246  -5771221.68961
  22854042.683    -4515446.918 6  -3458438.16521
  24136028.9484         -0.50854
  20813739.370    -1328410.360 7  -1015971.61522
 91  3 28 22 13 29.9990000  0  5G18G 2G11G16G19
  21005535.2144    2293546.25448   1778695.28763
  22664455.5114   -7557828.83546  -5805349.09861
  22850408.565    -4534548.807 6  -3473322.68821
  24131336.4804     -24664.33845
  20812806.480    -1333330.406 7  -1019805.39922
 91  3 28 22 13 44.9990000  0  5G18G 2G11G16G19
  21010159.5894    2317849.72148   1797633.01963
  22656131.9644   -7601557.37546  -5839423.13361
  22846800.1204   -4553508.83946  -3488096.66461
  24126667.237      -49199.265 5
  20811875.620    -1338206.351 7  -1023604.81722
 91  3 28 22 13 59.9990000  0  5G18G 2G11G16G19
  21014805.6124    2342262.11348   1816655.62763
  22647824.0114   -7645218.23646  -5873444.43261
  22843219.331    -4572327.673 6  -3502760.60921
  24122020.8234     -73606.01044
  20810957.175    -1343039.145 7  -1027370.61022
 91  3 28 22 14 14.9990000  0  5G18G 2G11G16G19
  21019472.1204    2366786.27248   1835765.32363
  22639530.6204   -7688808.12446  -5907410.42761
  22839664.565    -4591001.951 6  -3517311.92521
  24117403.097      -97881.649 5        -0.12731
  20810044.784    -1347825.417 7  -1031100.15022
 91  3 28 22 14 29.9990000  0  5G18G 2G11G16G19
  21024159.7924    2391420.54748   1854960.82663
  22631247.2374   -7732328.72146  -5941322.42361
  22836138.2224   -4609533.20846  -3531751.79461
  24112809.276     -122027.463 5    -18815.01321
  20809147.651    -1352566.897 7  -1034794.79122
 91  3 28 22 14 44.9990000  0  5G18G 2G11G16G19
  21028867.7374    2416164.05648   1874241.44663
  22622978.3554   -7775780.64746  -5975180.91861
  22832638.839    -4627922.168 6  -3546080.77421
  24108238.5034    -146044.11945    -37529.26361
  20808247.987    -1357264.442 7  -1038455.19722
 91  3 28 22 14 59.9990000  0  5G18G 2G11G16G19
  21033599.9254    2441029.03248   1893616.71363
  22614725.230    -7819151.418 6  -6008976.16621
  22829168.722    -4646155.953 6  -3560288.85121
  24103692.933     -169918.877 5    -56132.94421
  20807368.909    -1361905.408 7  -1042071.51922
 91  3 28 22 15 14.9990000  0  5G18G 2G11G16G19
  21038353.2144    2466005.26748   1913078.67563
  22606485.7374   -7862451.20146  -6042716.09961
  22825726.925    -4664244.821 6  -3574383.99921
  24099176.9804    -193662.22945    -74634.20961
  20806490.659    -1366500.079 7  -1045651.76222
 91  3 28 22 15 29.9990000  0  5G18G 2G11G16G19
  21043126.7694    2491090.29148   1932625.41263
  22598259.4174   -7905682.03146  -6076402.29861
  22822312.769    -4682190.664 6  -3588367.69921
  24094684.0974    -217276.18345    -93034.67961
  20805627.394    -1371050.504 7  -1049197.52722
 91  3 28 22 15 44.9990000  0  5G18G 2G11G16G19
  21047921.8084    2516287.47148   1952259.54263
  22590044.9804   -7948840.13046  -6110031.82961
  22818923.909    -4699989.651 6  -3602236.96021
  24090217.745     -240756.869 5   -111331.26821
  20804767.612    -1375552.970 7  -1052705.92322
 91  3 28 22 15 59.9990000  0  5G18G 2G11G16G19
  21052738.1054    2541603.86948   1971986.56363
  22581849.2144   -7991918.38146  -6143599.14961
  22815567.495    -4717634.453 6  -3615986.08721
  24085774.706     -264096.937 5   -129518.33021
  20803921.198    -1380000.473 7  -1056171.49122
 91  3 28 22 16 14.9990000  0  5G18G 2G11G16G19
  21057578.1904    2567035.46948   1991803.35963
  22573663.995    -8034920.859 6  -6177107.40821
  22812238.2454   -4735128.84946  -3629618.01361
  24081359.8084    -287300.83345   -147599.23961
  20803084.464    -1384396.753 7  -1059597.14522
 91  3 28 22 16 29.9990000  0  5G18G 2G11G16G19
  21062438.7374    2592577.23248   2011705.99463
  22565495.0194   -8077852.11746  -6210560.17861
  22808936.480    -4752477.497 6  -3643136.35721
  24076967.6674    -310372.92445   -165577.45261
  20802257.472    -1388746.641 7  -1062986.64722
 91  3 28 22 16 44.9990000  0  5G18G 2G11G16G19
  21067320.8154    2618230.52148   2031695.53363
  22557339.909    -8120710.369 6  -6243956.05621
  22805663.120    -4769678.397 6  -3656539.58021
  24072602.972     -333311.223 5   -183451.44221
  20801438.972    -1393048.394 7  -1066338.64122
 91  3 28 22 16 59.9990000  0  5G18G 2G11G16G19
  21072221.7614    2643991.90848   2051769.30663
  22549198.3154   -8163499.07646  -6277297.74761
  22802417.9404   -4786735.09746  -3669830.44161
  24068262.7304    -356119.48545   -201224.07761
  20800632.753    -1397305.549 7  -1069655.88822
 91  3 28 22 17 14.9990000  0  5G18G 2G11G16G19
  21077147.2614    2669867.84848   2071932.33663
  22541069.2694   -8206211.44646  -6310579.95661
  22799200.003    -4803640.637 6  -3683003.51821
  24063947.6674    -378791.18645   -218890.33061
  20799827.901    -1401511.288 7  -1072933.06822
 91  3 28 22 17 29.9990000  0  5G18G 2G11G16G19
  21082091.2304    2695852.17248   2092179.82663
  22532954.534    -8248853.427 6  -6343807.31821
  22796011.3474   -4820400.94046  -3696063.42661
  24059657.737     -401331.938 5   -236454.49521
  20799039.480    -1405671.698 7  -1076174.92622
 91  3 28 22 17 44.9990000  0  5G18G 2G11G16G19
  21087057.1834    2721946.74448   2112513.22563
  22524854.433    -8291422.857 6  -6376978.14121
  22792850.198    -4837013.530 6  -3709008.23021
  24055394.651     -423739.724 5   -253915.08321
  20798254.222    -1409784.245 7  -1079379.48822
 91  3 28 22 17 59.9990000  0  5G18G 2G11G16G19
  21092044.3784    2748155.79748   2132935.82663
  22516766.9804   -8333915.53846  -6410089.16561
  22789716.5734   -4853474.25446  -3721834.70061
  24051157.206     -446010.240 5   -271268.68321
  20797484.175    -1413845.124 7  -1082543.79022
 91  3 28 22 18 14.9990000  0  5G18G 2G11G16G19
  21097053.6364    2774475.82948   2153444.91063
  22508694.9094   -8376334.35246  -6443142.63761
  22786613.065    -4869786.120 6  -3734545.17421
  24046943.0504    -468146.66545   -288517.78861
  20796717.722    -1417857.421 7  -1085670.23522
 91  3 28 22 18 29.9990000  0  5G18G 2G11G16G19
  21102082.5734    2800906.10448   2174039.89663
  22500636.3784   -8418679.91146  -6476139.01561
  22783538.0734   -4885949.47846  -3747139.93361
  24042756.995     -490149.274 5   -305662.64121
  20795964.386    -1421821.504 7  -1088759.11622
 91  3 28 22 18 44.9990000  0  5G18G 2G11G16G19
  21107134.9564    2827452.78948   2194725.58863
  22492593.7144   -8460945.82546  -6509073.34061
  22780490.0504   -4901957.98546  -3759614.03661
  24038595.6364    -512011.71145   -322698.25261
  20795219.253    -1425731.184 7  -1091805.60522
 91  3 28 22 18 59.9990000  0  5G18G 2G11G16G19
  21112206.4404    2854106.13548   2215494.39163
  22484563.4014   -8503141.71746  -6541953.10561
  22777472.8784   -4917820.99746  -3771974.76161
  24034461.0584    -533743.66645   -339632.22461
  20794488.261    -1429595.999 7  -1094817.13322
 91  3 28 22 19 14.9990000  0  5G18G 2G11G16G19
  21117298.9014    2880867.07647   2236347.04163
  22476548.105    -8545266.497 6  -6574777.44221
  22774481.6284   -4933537.39646  -3784221.24261
  24030348.198     -555343.889 4   -356463.52121
  20793757.714    -1433414.724 7  -1097792.74422
 91  3 28 22 19 29.9990000  0  5G18G 2G11G16G19
  21122411.6284    2907734.27447   2257282.48163
  22468545.5264   -8587321.11646  -6607547.12661
  22771518.9954   -4949108.09946  -3796354.20361
  24026263.940     -576813.310 5   -373192.89621
  20793039.542    -1437188.560 7  -1100733.38222
 91  3 28 22 19 44.9990000  0  5G18G 2G11G16G19
  21127544.2534    2934709.63747   2278302.20263
  22460556.0264   -8629303.28946  -6640260.36161
  22768583.222    -4964530.746 6  -3808371.78821
  24022203.815     -598149.732 5   -389818.65821
  20792330.425    -1440915.211 7  -1103637.24822
 91  3 28 22 19 59.9990000  0  5G18G 2G11G16G19
  21132698.8864    2961794.69647   2299407.40363
  22452582.4804   -8671211.46946  -6672915.93661
  22765678.0894   -4979803.55046  -3820272.61661
  24018170.917     -619351.853 5   -406339.79021
  20791631.573    -1444593.166 7  -1106503.17322
 91  3 28 22 20 14.9990000  0  5G18G 2G11G16G19
  21137873.8154    2988990.50148   2320598.90263
  22444621.2064   -8713044.23346  -6705512.74561
  22762798.167    -4994925.246 6  -3832055.70221
  24014160.456     -640418.256 5   -422755.12821
  20790939.9954   -1448221.07247  -1109330.07563
 91  3 28 22 20 29.9990000  0  5G18G 2G11G16G19
  21143070.4014    3016296.68648   2341876.40763
  22436673.151    -8754801.605 6  -6738050.81121
  22759951.0814   -5009895.67046  -3843720.91461
  24010176.7764    -661348.86245   -439064.63561
  20790259.2694   -1451798.82647  -1112117.93063
 91  3 28 22 20 44.9990000  0  5G18G 2G11G16G19
  21148286.081     3043703.484 7   2363232.31023
  22428739.644    -8796493.077 6  -6770537.53421
  22757129.7304   -5024724.27646  -3855275.60461
  24006220.1514    -682153.30245   -455275.84061
  20789586.237    -1455336.001 7  -1114874.15623
 91  3 28 22 20 59.9990000  0  5G18G 2G11G16G19
  21153521.370     3071217.627 7   2384671.86223
  22420820.4334   -8838111.95946  -6802967.68761
  22754334.9874   -5039404.29646  -3866714.52761
  24002289.0034    -702824.79745   -471383.47661
  20788922.261    -1458826.049 7  -1117593.66123
 91  3 28 22 21 14.9990000  0  5G18G 2G11G16G19
  21158779.995     3098848.308 7   2406202.21823
  22412915.714    -8879648.793 6  -6835333.91221
  22751571.9644   -5053926.18246  -3878030.22361
  23998381.3394    -723354.01145   -487380.23461
  20788268.097    -1462259.486 7  -1120269.05123
 91  3 28 22 21 29.9990000  0  5G18G 2G11G16G19
  21164059.292     3126593.747 8   2427822.00123
  22405027.534    -8921104.671 6  -6867637.06021
  22748839.034    -5068290.827 6  -3889223.39421
  23994500.8704    -743742.11445   -503267.03061
  20787627.745    -1465637.314 7  -1122901.11023
 91  3 28 22 21 44.9990000  0  5G18G 2G11G16G19
  21169359.808     3154449.985 7   2449528.12023
  22397153.894    -8962483.944 6  -6899880.50621
  22746134.5344   -5082502.52346  -3900297.38961
  23990646.698     -763992.944 5   -519046.88321
  20786993.339    -1468963.802 7  -1125493.16323
 91  3 28 22 21 59.9990000  0  5G18G 2G11G16G19
  21174682.1984    3182415.48947   2471319.37963
  22389292.433    -9003787.713 6  -6932065.12721
  22743458.675    -5096562.350 6  -3911253.04021
  23986817.6444    -784107.59645   -534720.63261
  20786369.347    -1472240.103 7  -1128046.10823
 91  3 28 22 22 14.9990000  0  5G18G 2G11G16G19
  21180023.7844    3210488.60647   2493194.49463
  22381446.698    -9045017.232 6  -6964191.89121
  22740812.081    -5110471.398 6  -3922091.20621
  23983015.480     -804087.620 5   -550289.41621
  20785753.901    -1475467.531 7  -1130560.96623
 91  3 28 22 22 29.9990000  0  5G18G 2G11G16G19
  21185387.534     3238674.606 7   2515157.56823
  22373617.433    -9086166.875 6  -6996256.41321
  22738195.081    -5124224.011 6  -3932807.47421
  23979238.3154    -823927.28345   -565748.89061
  20785151.886    -1478640.513 7  -1133033.40223
 91  3 28 22 22 44.9990000  0  6G18G 2G11G16G19G 6
  21190772.4334    3266969.86847   2537205.78163
  22365800.480    -9127240.500 6  -7028261.70621
  22735606.519    -5137823.916 6  -3943404.75121
  23975488.823     -843630.740 5   -581102.20821
  20784556.355    -1481762.851 7  -1135466.37623
  24238205.3004         -0.35754
 91  3 28 22 22 59.9990000  0  6G18G 2G11G16G19G 6
  21196177.519     3295374.115 7   2559338.92023
  22357999.331    -9168237.822 6  -7060207.53821
  22733047.487    -5151270.856 6  -3953882.83621
  23971767.487     -863197.483 5   -596348.98521
  20783974.823    -1484834.453 7  -1137859.81623
  24231079.0424     -37460.20044
 91  3 28 22 23 14.9990000  0  6G18G 2G11G16G19G 6
  21201603.378     3323886.342 7   2581556.19823
  22350211.878    -9209159.448 6  -7092094.39021
  22730518.6594   -5164565.39346  -3964242.15761
  23968071.6364    -882628.37445   -611489.92161
  20783397.878    -1487855.725 7  -1140214.03123
  24223949.8474     -74909.35044
 91  3 28 22 23 29.9990000  0  6G18G 2G11G16G19G 6
  21207050.9564    3352514.88747   2603864.11563
  22342439.8234   -9249997.03746  -7123915.75861
  22728017.589    -5177699.144 6  -3974476.19621
  23964399.1444    -901914.85845   -626518.30061
  20782834.894    -1490818.521 7  -1142522.68123
  24216828.972     -112339.459 4
 91  3 28 22 23 44.9990000  0  6G18G 2G11G16G19G 6
  21212519.1674    3381251.57047   2626256.29563
  22334682.4404   -9290758.66946  -7155677.94261
  22725549.386    -5190679.951 6  -3984591.06121
  23960756.8704    -921065.33245   -641440.72861
  20782279.417    -1493730.681 7  -1144791.87323
  24209706.9564    -149758.60643
 91  3 28 22 23 59.9990000  0  6G18G 2G11G16G19G 6
  21218008.120     3410096.733 7   2648733.00423
  22326940.2694   -9331443.47046  -7187380.25661
  22723106.839    -5203507.008 6  -3994586.11121
  23957139.261     -940078.613 5   -656256.23021
  20781735.878    -1496591.529 7  -1147021.08123
  24202587.292     -187166.273 3        -0.29631
 91  3 28 22 24 14.9990000  0  6G18G 2G11G16G19G 6
  21223516.808     3439044.248 7   2671289.46123
  22319212.362    -9372057.327 6  -7219027.28721
  22720695.0034   -5216186.18346  -4004465.92861
  23953542.105     -958960.659 5   -670969.49021
  20781199.409    -1499407.006 7  -1149214.93923
  24195470.9874    -224568.44143    -29144.65461
 91  3 28 22 24 29.9990000  0  6G18G 2G11G16G19G 6
  21229046.214     3468100.061 7   2693930.31123
  22311499.0194   -9412594.04846  -7250614.21761
  22718311.0974   -5228711.27746  -4014225.68861
  23949976.925     -977705.456 5   -685575.80121
  20780675.464    -1502171.024 7  -1151368.69323
  24188354.808     -261959.103 3    -58280.03521
 91  3 28 22 24 44.9990000  0  6G18G 2G11G16G19G 6
  21234595.589     3497265.769 7   2716656.79423
  22303800.011    -9453051.950 6  -7282139.72721
  22715956.784    -5241080.513 6  -4023864.00021
  23946433.7614    -996311.32245   -700073.85261
  20780158.011    -1504881.719 7  -1153480.90323
  24181243.0654    -299336.40444    -87404.99661
 91  3 28 22 24 59.9990000  0  6G18G 2G11G16G19G 6
  21240166.433     3526538.232 7   2739466.46122
  22296115.2924   -9493433.83346  -7313606.00661
  22713633.081    -5253296.755 6  -4033383.09621
  23942922.284    -1014781.254 5   -714465.96121
  20779651.245    -1507542.117 7  -1155553.91923
  24174130.7144    -336703.63243   -116522.14761
 91  3 28 22 25 14.9990000  0  6G18G 2G11G16G19G 6
  21245756.737     3555917.667 7   2762359.48122
  22288444.6054   -9533739.09646  -7345012.57761
  22711337.3784   -5265359.15046  -4042782.31261
  23939432.4014   -1033114.35845   -728751.48161
  20779153.995    -1510151.560 7  -1157587.22723
  24167023.480     -374060.287 4   -145630.99921
 91  3 28 22 25 29.9990000  0  6G18G 2G11G16G19G 6
  21251366.870     3585398.215 7   2785331.29523
  22280789.2454   -9573973.52946  -7376363.96361
  22709070.253    -5277273.486 6  -4052066.15621
  23935969.792    -1051316.649 5   -742935.04521
  20778666.190    -1512715.835 7  -1159585.34123
  24159916.550     -411412.143 3   -174736.17621
 91  3 28 22 25 44.9990000  0  6G18G 2G11G16G19G 6
  21256996.628     3614985.266 7   2808386.09422
  22273146.3624   -9614131.20246  -7407655.52561
  22706831.675    -5289033.842 6  -4061230.02421
  23932531.847    -1069382.320 5   -757012.18021
  20778187.581    -1515228.912 7  -1161543.56023
  24152808.581     -448753.332 4   -203832.98121
 91  3 28 22 25 59.9990000  0  6G18G 2G11G16G19G 6
  21262647.503     3644679.572 7   2831524.46522
  22265519.1674   -9654211.38046  -7438886.70961
  22704624.550    -5300639.356 7  -4070273.22421
  23929120.097    -1087310.531 5   -770982.19021
  20777722.097    -1517690.066 7  -1163461.32123
  24145704.300     -486083.405 4   -232921.17721
 91  3 28 22 26 14.9990000  0  6G18G 2G11G16G19G 6
  21268318.534     3674483.474 7   2854748.24022
  22257907.9804   -9694211.76046  -7470055.70961
  22702444.745    -5312087.755 7  -4079194.00421
  23925736.105    -1105099.023 5   -784843.33021
  20777261.972    -1520097.007 7  -1165336.84023
  24138601.5654    -523400.07844   -261998.91961
 91  3 28 22 26 29.9990000  0  6G18G 2G11G16G19G 6
  21274013.026     3704401.302 7   2878060.78522
  22250311.6754   -9734127.32446  -7501158.62361
  22700295.940    -5323373.986 6  -4087988.41521
  23922379.6444   -1122742.77245   -798591.67161
  20776818.308    -1522444.636 7  -1167166.14323
  24131506.128     -560698.306 4   -291062.29821
 91  3 28 22 26 44.9990000  0  6G18G 2G11G16G19G 6
  21279726.120     3734424.194 7   2901455.20022
  22242730.6984   -9773966.78346  -7532202.23361
  22698177.698    -5334506.723 7  -4096663.22821
  23919043.7614   -1140250.33544   -812233.91261
  20776378.808    -1524741.704 7  -1168956.04923
  24124409.183     -597987.199 4   -320118.36921
 91  3 28 22 26 59.9990000  0  6G18G 2G11G16G19G 6
  21285459.261     3764553.929 7   2924932.86622
  22235165.0194   -9813728.19546  -7563185.02461
  22696090.370    -5345483.633 7  -4105216.62021
  23915739.503    -1157620.006 4   -825768.68321
  20775953.886    -1526986.021 7  -1170704.85623
  24117317.519     -635264.788 4   -349165.67021
 91  3 28 22 27 14.9990000  0  6G18G 2G11G16G19G 6
  21291213.565     3794791.328 7   2948494.42622
  22227612.9334   -9853410.50446  -7594106.18661
  22694030.448    -5356303.806 7  -4113647.87421
  23912458.980    -1174850.798 5   -839195.26821
  20775534.940    -1529176.838 7  -1172411.97223
  24110225.792     -672530.089 4   -378203.39121
 91  3 28 22 27 29.9990000  0  6G18G 2G11G16G19G 6
  21296986.776     3825131.987 7   2972136.44922
  22220074.7454   -9893017.62146  -7624968.75461
  22692000.315    -5366971.266 7  -4121960.13421
  23909208.8004   -1191946.68845   -852516.70961
  20775130.355    -1531318.195 7  -1174080.55223
  24103134.050     -709787.108 4   -407234.66521
 91  3 28 22 27 44.9990000  0  6G18G 2G11G16G19G 6
  21302781.651     3855582.908 7   2995864.39122
  22212554.2064   -9932542.21946  -7655767.02461
  22690000.620    -5377478.673 7  -4130147.67921
  23905978.6594   -1208900.38045   -865727.36561
  20774730.4724   -1533402.83647  -1175704.93763
  24096049.956     -747028.849 4   -436254.00921
 91  3 28 22 27 59.9990000  0  6G18G 2G11G16G19G 6
  21308597.105     3886141.057 7   3019675.88122
  22205048.0974   -9971987.61046  -7686503.57361
  22688031.9644   -5387829.17147  -4138212.95961
  23902783.1514   -1225715.27545   -878829.86661
  20774344.9334   -1535433.95947  -1177287.62363
  24088962.3314    -784258.71244   -465264.11761
 91  3 28 22 28 14.9990000  0  6G18G 2G11G16G19G 6
  21314429.933     3916797.499 7   3043563.97222
  22197554.230   -10011362.257 6  -7717185.00421
  22686090.495    -5398031.045 7  -4146162.42521
  23899607.433    -1242399.584 5   -891830.60621
  20773965.3084   -1537419.76847  -1178834.99963
  24081876.644     -821484.975 4   -494271.40021
 91  3 28 22 28 29.9990000  0  6G18G 2G11G16G19G 6
  21320288.448     3947577.605 7   3067548.41722
  22190081.7144  -10050640.64546  -7747791.41961
  22684181.519    -5408058.739 7  -4153976.16821
  23896459.3864   -1258927.87145   -904709.78961
  20773600.3944   -1539334.64847  -1180327.10463
  24074801.1204    -858682.32244   -523256.13661
 91  3 28 22 28 44.9990000  0  6G18G 2G11G16G19G 6
  21326165.1594    3978462.76447   3091614.72062
  22182621.612   -10089840.966 6  -7778337.01221
  22682304.1834   -5417930.43847  -4161668.36361
  23893343.4564   -1275318.49245   -917481.69661
  20773246.3394   -1541197.12147  -1181778.37663
  24067720.7454    -895869.09443   -552232.66561
 91  3 28 22 28 59.9990000  0  6G18G 2G11G16G19G 6
  21332062.456     4009450.352 7   3115760.83422
  22175177.0814  -10128965.58746  -7808823.61161
  22680454.8394   -5427648.51247  -4169240.85261
  23890249.269    -1291573.875 5   -930148.21321
  20772901.4174   -1543009.47047  -1183190.59263
  24060648.855     -933047.793 4   -581202.91921
 91  3 28 22 29 14.9990000  0  6G18G 2G11G16G19G 6
  21337978.339     4040541.594 7   3139987.72422
  22167746.050   -10168013.296 6  -7839250.28321
  22678635.253    -5437211.741 7  -4176692.67721
  23887183.7534   -1307692.72045   -942708.33561
  20772565.9804   -1544770.34247  -1184562.69263
  24053573.6204    -970217.28144   -610165.90361
 91  3 28 22 29 29.9990000  0  6G18G 2G11G16G19G 6
  21343914.581     4071737.097 7   3164295.85522
  22160330.120   -10206982.934 6  -7869616.12321
  22676845.2304   -5446618.91747  -4184022.90561
  23884143.1204   -1323673.83445   -955161.12861
  20772243.9174   -1546478.60847  -1185893.80463
  24046504.3864   -1007376.51244   -639120.99961
 91  3 28 22 29 44.9990000  0  6G18G 2G11G16G19G 6
  21349870.9094    4103033.58347   3188682.67262
  22152927.620   -10245877.652 6  -7899923.58321
  22675084.0114   -5455873.19947  -4191233.99761
  23881125.6444   -1339520.84545   -967509.44861
  20771925.0504   -1548137.53047  -1187186.46663
  24039435.5974   -1044528.84543   -668070.66061
 91  3 28 22 29 59.9990000  0  6G18G 2G11G16G19G 6
  21355845.2224    4134428.70947   3213146.34962
  22145541.714   -10284699.380 6  -7930174.16721
  22673351.3864   -5464976.48747  -4198327.43461
  23878138.425    -1355235.545 5   -979754.65021
  20771622.2614   -1549749.01847  -1188442.16563
  24032364.5654   -1081676.37544   -697016.60061
 91  3 28 22 30 14.9990000  0  6G18G 2G11G16G19G 6
  21361840.597     4165930.102 7   3237692.83422
  22138168.073   -10323440.308 6  -7960361.78821
  22671648.5734   -5473920.88347  -4205297.06161
  23875170.8084   -1370809.82345   -991890.45361
  20771323.9334   -1551305.12847  -1189654.71263
  24025299.2454   -1118811.36643   -725952.75361
 91  3 28 22 30 29.9990000  0  6G18G 2G11G16G19G 6
  21367853.5034    4197535.98847   3262320.74262
  22130812.269   -10362102.117 6  -7990487.75921
  22669975.8624   -5482707.89647  -4212144.04661
  23872237.1984   -1386245.55345  -1003918.27261
  20771040.6124   -1552807.52647  -1190825.40663
  24018228.409    -1155935.443 3   -754880.42421
 91  3 28 22 30 44.9990000  0  6G18G 2G11G16G19G 6
  21373888.5974    4229243.12147   3287027.54262
  22123469.308   -10400687.564 6  -8020554.23621
  22668334.8944   -5491340.22547  -4218870.50861
  23869324.9334   -1401545.76345  -1015840.50661
  20770760.4874   -1554258.87947  -1191956.32063
  24011171.581    -1193051.447 4   -783801.76521
 91  3 28 22 30 59.9990000  0  6G18G 2G11G16G19G 6
  21379939.675     4261049.386 7   3311811.58222
  22116140.464   -10439198.708 6  -8050562.81421
  22666719.5264   -5499820.03847  -4225478.11761
  23866435.480    -1416712.633 5  -1027658.82821
  20770496.3864   -1555661.30647  -1193049.11663
  24004109.1594   -1230161.73144   -812718.66061
 91  3 28 22 31 14.9990000  0  6G18G 2G11G16G19G 6
  21386013.597     4292961.429 7   3336678.05822
  22108826.112   -10477628.554 6  -8080508.04021
  22665138.1514   -5508140.27747  -4231961.39261
  23863577.690    -1431739.153 5  -1039367.81021
  20770237.2694   -1557007.78647  -1194098.31163
  23997052.612    -1267259.233 4   -841625.63021
 91  3 28 22 31 29.9990000  0  6G18G 2G11G16G19G 6
  21392105.1514    4324974.34147   3361623.12162
  22101528.862   -10515981.802 6  -8110393.58721
  22663582.8004   -5516305.63547  -4238323.98061
  23860745.089    -1446629.751 5  -1050970.86121
  20769997.5654   -1558303.01647  -1195107.57263
  23989990.6514   -1304348.79445   -870526.37961
 91  3 28 22 31 44.9990000  0  6G18G 2G11G16G19G 6
  21398215.487     4357086.623 7   3386645.62222
  22094244.644   -10554259.696 6  -8140220.41121
  22662060.0344   -5524317.32247  -4244566.82561
  23857933.8944   -1461385.75945  -1062469.04761
  20769754.5584   -1559548.29847  -1196077.91363
  23982934.2534   -1341431.74445   -899421.99861
 91  3 28 22 31 59.9990000  0  6G18G 2G11G16G19G 6
  21404344.4644    4389294.78347   3411742.83462
  22086973.222   -10592465.558 6  -8169991.10621
  22660562.0894   -5532178.67247  -4250692.52361
  23855153.7694   -1476010.96845  -1073865.30461
  20769527.6054   -1560747.10547  -1197012.04163
  23975881.128    -1378511.565 5   -928315.19021
 91  3 28 22 32 14.9990000  0  6G18G 2G11G16G19G 6
  21410492.784     4421599.935 7   3436915.62722
  22079716.878   -10630597.745 6  -8199704.39821
  22659095.5504   -5539887.99647  -4256699.75761
  23852394.9404   -1490503.34145  -1085158.06261
  20769308.636    -1561897.591 7  -1197908.51423
  23968823.737    -1415586.723 5   -957204.71821
 91  3 28 22 32 29.9990000  0  6G18G 2G11G16G19G 6
  21416660.862     4454013.109 7   3462172.59022
  22072477.980   -10668645.077 6  -8229351.56721
  22657659.737    -5547434.157 6  -4262579.86021
  23849664.5264   -1504852.07645  -1096338.89561
  20769102.0194   -1562988.54247  -1198758.59363
  23961772.058    -1452646.073 5   -986081.95621
 91  3 28 22 32 44.9990000  0  6G18G 2G11G16G19G 6
  21422846.909     4486522.522 7   3487504.54322
  22065251.9174  -10706619.18646  -8258941.67961
  22656253.2924   -5554828.73147  -4268341.83561
  23846959.9334   -1519068.93345  -1107416.96261
  20768901.5814   -1564031.52747  -1199571.30163
  23954717.581    -1489701.553 5  -1014956.16421
 91  3 28 22 32 59.9990000  0  6G18G 2G11G16G19G 6
  21429051.597     4519128.003 7   3512911.35622
  22058039.1204  -10744520.01446  -8288474.70161
  22654874.7454   -5562071.59947  -4273985.60961
  23844278.565    -1533153.552 5  -1118391.97121
  20768712.0654   -1565026.47647  -1200346.57363
  23947668.4644   -1526753.06645  -1043827.28361
 91  3 28 22 33 14.9990000  0  6G18G 2G11G16G19G 6
  21435277.339     4551842.539 7   3538403.14622
  22050843.800   -10782334.062 6  -8317940.08721
  22653527.5034   -5569149.40746  -4279500.75461
  23841626.605    -1547092.472 5  -1129253.47421
  20768533.440    -1565960.019 7  -1201073.99523
  23940622.1904   -1563787.09845  -1072684.78561
 91  3 28 22 33 29.9990000  0  6G18G 2G11G16G19G 6
  21441521.034     4584651.887 7   3563968.81822
  22043661.784   -10820075.478 6  -8347348.88021
  22652210.253    -5576076.161 6  -4284898.20321
  23838996.8474   -1560900.16645  -1140012.69761
  20768366.464    -1566846.328 7  -1201764.61623
  23933575.331    -1600818.172 5  -1101539.95921
 91  3 28 22 33 44.9990000  0  6G18G 2G11G16G19G 6
  21447781.831     4617557.531 7   3589609.52422
  22036492.987   -10857742.856 6  -8376699.97421
  22650919.862    -5582850.386 7  -4290176.79621
  23836397.2534   -1574575.36845  -1150668.69561
  20768207.472    -1567683.890 7  -1202417.24623
  23926528.0194   -1637844.67045  -1130391.61061
 91  3 28 22 33 59.9990000  0  6G18G 2G11G16G19G 6
  21454062.847     4650563.146 7   3615328.12822
  22029341.089   -10895332.001 6  -8405990.11421
  22649659.8394   -5589467.85947  -4295333.24561
  23833818.0194   -1588113.79345  -1161218.11461
  20768059.675    -1568468.401 7  -1203028.54323
  23919482.706    -1674862.657 5  -1159236.60121
 91  3 28 22 34 14.9990000  0  6G18G 2G11G16G19G 6
  21460362.0424    4683663.35147   3641120.43862
  22022200.7224  -10932848.01846  -8435223.27361
  22648429.3554   -5595933.62247  -4300371.47461
  23831270.5894   -1601520.11045  -1171664.61361
  20767916.815    -1569204.824 7  -1203602.36223
  23912440.847    -1711877.071 5  -1188078.80921
 91  3 28 22 34 29.9990000  0  6G18G 2G11G16G19G 6
  21466678.995     4716861.224 7   3666988.85622
  22015075.761   -10970287.424 6  -8464396.73621
  22647229.698    -5602244.308 7  -4305288.86521
  23828740.3704   -1614791.47145  -1182005.92961
  20767787.120    -1569889.942 7  -1204136.20823
  23905397.948    -1748884.810 5  -1216915.83021
 91  3 28 22 34 44.9990000  0  6G18G 2G11G16G19G 6
  21473014.745     4750158.004 7   3692934.34522
  22007967.120   -11007648.952 6  -8493509.49822
  22646057.323    -5608398.425 7  -4310084.25821
  23826247.5034   -1627926.40245  -1192240.93161
  20767667.800    -1570522.083 7  -1204628.77423
  23898355.7064   -1785884.48545  -1245746.55661
 91  3 28 22 34 59.9990000  0  6G18G 2G11G16G19G 6
  21479369.534     4783551.525 7   3718955.21322
  22000871.730   -11044934.341 6  -8522562.94721
  22644917.722    -5614397.870 7  -4314759.12221
  23823771.394    -1640926.848 5  -1202371.14221
  20767555.651    -1571103.324 7  -1205081.67923
  23891317.1204   -1822878.08245  -1274572.55361
 91  3 28 22 35 14.9990000  0  6G18G 2G11G16G19G 6
  21485744.5424    4817045.51447   3745054.36862
  21993792.331   -11082139.650 6  -8551553.99622
  22643803.2534   -5620238.55947  -4319310.28661
  23821323.636    -1653788.877 5  -1212393.51421
  20767456.542    -1571629.459 7  -1205491.64023
  23884280.3474   -1859861.60345  -1303390.69561
 91  3 28 22 35 29.9990000  0  6G18G 2G11G16G19G 6
  21492135.6054    4850633.03747   3771226.40462
  21986725.7454  -11119271.78546  -8580488.03162
  22642722.7144   -5625927.58847  -4323743.26661
  23818903.065    -1666519.449 5  -1222313.42921
  20767366.9874   -1572107.43847  -1205864.08363
  23877241.8864   -1896842.18145  -1332206.55461
 91  3 28 22 35 44.9990000  0  6G18G 2G11G16G19G 6
  21498545.8554    4884320.58347   3797476.38262
  21979674.9254  -11156323.72346
  22641670.870    -5631457.932 7  -4328052.59721
  23816503.433    -1679111.743 5  -1232125.62221
  20767282.5974   -1572530.34047  -1206193.60363
  23870208.6674   -1933812.88145
 91  3 28 22 35 59.9990000  0  6G18G 2G11G16G19G 6
  21504974.5814    4918104.05047   3823801.09962
  21972637.3864  -11193299.33846
  22640646.2374   -5636833.28147  -4332241.15361
  23814133.9254   -1691569.49245  -1241832.93961
  20767215.5344   -1572901.77447  -1206483.02763
  23863175.0654   -1970777.55345
 91  3 28 22 36 14.9990000  0  6G18G 2G11G16G19G 6
  21511422.0654    4951986.19547   3850202.71362
  21965617.6594  -11230195.74946
  22639653.3394   -5642050.80247  -4336306.72761
  23811787.3864   -1703890.33745  -1251433.60661
  20767155.558    -1573218.827 7  -1206730.06523
  23856140.5034   -2007733.54045
 91  3 28 22 36 29.9990000  0  6G18G 2G11G16G19G 6
  21517888.1594    4985968.64347   3876682.48562
  21958611.3624  -11267011.40346  -8695609.44362
  22638690.464    -5647108.834 7  -4340248.02921
  23809471.2534   -1716072.16745  -1260925.94061
  20767103.9404   -1573479.95947  -1206933.53563
  23849109.198    -2044679.180 5  -1447403.48521
 91  3 28 22 36 44.9990000  0  6G18G 2G11G16G19G 6
  21524372.581     5020041.800 7   3903232.93922
  21951619.2764  -11303755.17247  -8724240.85962
  22637758.034    -5652016.460 7  -4344072.13021
  23807176.8154   -1728124.24545  -1270317.17161
  20767062.1984   -1573694.26847  -1207100.51963
  23842077.972    -2081623.619 5  -1476191.15821
 91  3 28 22 36 59.9990000  0  6G18G 2G11G16G19G 6
  21530875.9174    5054214.91047   3929861.27362
  21944643.2144  -11340417.36046  -8752808.70762
  22636854.737    -5656764.015 7  -4347771.49721
  23804908.901    -1740037.154 5  -1279599.96221
  20767033.4874   -1573851.95047
  23835048.558    -2118557.369 5  -1504970.51821
 91  3 28 22 37 14.9990000  0  6G18G 2G11G16G19G 6
  21537397.5194    5088488.14947   3956567.63262
  21937681.6984  -11376997.73046  -8781312.80462
  22635979.401    -5661351.094 7  -4351345.82021
  23802672.2534   -1751810.43845  -1288773.95561
  20767014.1674   -1573952.59947
  23828025.0734   -2155480.01345  -1533741.21761
 91  3 28 22 37 29.9990000  0  6G18G 2G11G16G19G 6
  21543938.1834    5122852.69747   3983345.14762
  21930734.6444  -11413504.92646  -8809759.87462
  22635137.4254   -5665786.30647  -4354801.80361
  23800456.1834   -1763452.77245  -1297845.90361
  20767004.6514   -1574004.84747
  23820999.964    -2192400.303 5  -1562510.07821
 91  3 28 22 37 44.9990000  0  6G18G 2G11G16G19G 6
  21550493.4954    5157311.22747   4010195.88762
  21923800.6124  -11449936.00546  -8838147.63362
  22634322.3944   -5670066.87247  -4358137.27761
  23798264.0264   -1774961.46345  -1306813.73761
  20767003.9254   -1574005.77647
  23813971.1984   -2229315.47145  -1591274.96661
 91  3 28 22 37 59.9990000  0  6G18G 2G11G16G19G 6
  21557070.3314    5191864.97647   4037120.82762
  21916883.0194  -11486289.60246  -8866475.01262
  22633538.9724   -5674191.27547  -4361351.07461
  23796099.3154   -1786335.27845  -1315676.45361
  20767012.8864   -1573953.93147
  23806949.675    -2266224.086 5  -1620034.72321
 91  3 28 22 38 14.9990000  0  6G18G 2G11G16G19G 6
  21563662.6444    5226513.90647   4064119.93062
  21909979.5424  -11522565.51346  -8894741.86062
  22632782.2534   -5678159.34947  -4364443.04861
  23793961.9644   -1797573.76545  -1324433.71161
  20767033.1834   -1573848.98647
  23799928.230    -2303126.121 5  -1648789.36321
 91  3 28 22 38 29.9990000  0  6G18G 2G11G16G19G 6
  21570274.4644    5261255.63647   4091191.35262
  21903092.0894  -11558765.71747  -8922949.71462
  22632055.7304   -5681973.04347  -4367414.72961
  23791847.4014   -1808678.98945  -1333087.14861
  20767063.792    -1573693.039 7
  23792906.308    -2340023.548 5  -1677540.44321
 91  3 28 22 38 44.9990000  0  6G18G 2G11G16G19G 6
  21576903.894     5296093.037 7   4118337.31922
  21896217.2224  -11594887.08147  -8951096.13562
  22631360.7764   -5685629.31047  -4370263.73861
  23789759.401    -1819647.843 5  -1341634.30821
  20767101.5894   -1573482.68047
  23785885.5344   -2376913.31145  -1706285.49361
 91  3 28 22 38 59.9990000  0  6G18G 2G11G16G19G 6
  21583550.0424    5331023.77447   4145556.01562
  21889358.9174  -11630931.62347  -8979182.69562
  22630695.6674   -5689130.32247  -4372991.76861
  23787701.6594   -1830482.77145  -1350077.11061
  20767154.6594   -1573220.24847  -1206731.09063
  23778865.948    -2413797.687 5  -1735026.39421
 91  3 28 22 39 14.9990000  0  6G18G 2G11G16G19G 6
  21590216.1444    5366047.01647   4172846.79762
  21882513.6594  -11666899.93647  -9007209.85661
  22630055.870    -5692476.480 7  -4375599.13721
  23785662.9254   -1841184.21745  -1358415.89361
  20767213.0734   -1572906.02447  -1206486.23363
  23771845.6514   -2450677.20245  -1763763.49661
 91  3 28 22 39 29.9990000  0  6G18G 2G11G16G19G 6
  21596897.9724    5401162.39747   4200209.36662
  21875683.4874  -11702792.55947  -9035178.03662
  22629450.901    -5695668.283 7  -4378086.23021
  23783655.0814   -1851752.82845  -1366651.19261
  20767284.3234   -1572540.52947  -1206201.42363
  23764832.464    -2487552.417 5  -1792497.25021
 91  3 28 22 39 44.9990000  0  6G18G 2G11G16G19G 6
  21603598.0734    5436368.51047   4227642.64262
  21868867.870   -11738610.241 7  -9063087.81422
  22628874.3704   -5698706.54047  -4380453.67061
  23781663.9724   -1862189.43445  -1374783.60061
  20767359.8084   -1572124.40547  -1205877.16163
  23757813.081    -2524424.256 5  -1821228.35921
 91  3 28 22 39 59.9990000  0  6G18G 2G11G16G19G 6
  21610314.0034    5471666.61247   4255147.59662
  21862065.7454  -11774351.22446  -9090937.83262
  22628322.144    -5701589.594 7  -4382700.18621
  23779704.5504   -1872492.39945  -1382811.89961
  20767453.5814   -1571655.94947  -1205512.12763
  23750795.8554   -2561291.06145  -1849955.55261
 91  3 28 22 40 14.9990000  0  6G18G 2G11G16G19G 6
  21617049.198     5507059.418 7   4282726.34722
  21855279.4254  -11810012.67747  -9118725.88062
  22627803.495    -5704314.720 7  -4384823.63521
  23777770.894    -1882658.984 5  -1390733.90421
  20767549.6284   -1571132.42647  -1205104.17963
  23743785.7534   -2598150.06445  -1878676.69161
 91  3 28 22 40 29.9990000  0  6G18G 2G11G16G19G 6
  21623802.9874    5542549.09047   4310380.57262
  21848509.636   -11845592.477 7  -9146450.29422
  22627316.0504   -5706879.65547  -4386822.25561
  23775863.1444   -1892687.15245  -1398548.06461
  20767664.3944   -1570551.56047  -1204651.55163
  23736770.3394   -2634999.19545  -1907390.12161
 91  3 28 22 40 44.9990000  0  6G18G 2G11G16G19G 6
  21630574.0894    5578130.32847   4338106.14862
  21841753.1284  -11881095.69447  -9174115.04262
  22626856.097    -5709289.489 7  -4388700.02721
  23773979.542    -1902582.025 5  -1406258.36521
  20767782.2764   -1569918.36547  -1204158.14463
  23729759.589    -2671843.600 5  -1936099.87321
 91  3 28 22 40 59.9990000  0  6G18G 2G11G16G19G 6
  21637361.987     5613803.064 7   4365903.01322
  21835012.2064  -11916522.06947  -9201719.91262
  22626429.362    -5711543.941 7  -4390456.72321
  23772120.8314   -1912343.25145  -1413864.52561
  20767909.7304   -1569232.53847  -1203623.73163
  23722749.784    -2708683.030 5  -1964805.72221
 91  3 28 22 41 14.9990000  0  6G18G 2G11G16G19G 6
  21644166.4404    5649559.92747   4393765.43462
  21828283.2694  -11951878.41746  -9229270.21662
  22626029.644    -5713649.944 7  -4392097.73821
  23770287.808    -1921978.163 5  -1421372.26421
  20768050.1904   -1568500.89347  -1203053.61063
  23715737.1834   -2745524.29845  -1993513.06661
 91  3 28 22 41 29.9990000  0  6G18G 2G11G16G19G 6
  21650988.292     5685409.197 7   4421699.85822
  21821570.5814  -11987156.28447  -9256759.36762
  22625659.5504   -5715599.01947  -4393616.47461
  23768477.589    -1931478.227 5  -1428774.92621
  20768197.7064   -1567714.74347  -1202441.01963
  23708730.4724   -2782359.09345  -2022215.32661
 91  3 28 22 41 44.9990000  0  6G18G 2G11G16G19G 6
  21657827.956     5721351.301 7   4449706.61822
  21814872.5264  -12022355.02047  -9284186.85862
  22625315.7694   -5717390.50047  -4395012.40761
  23766699.5734   -1940842.47645  -1436071.76561
  20768361.5504   -1566873.53947  -1201785.52763
  23701719.472    -2819186.804 5  -2050912.07221
 91  3 28 22 41 59.9990000  0  6G18G 2G11G16G19G 6
  21664685.097     5757383.435 7   4477783.53722
  21808188.6444  -12057477.30047  -9311554.77362
  22625004.2304   -5719027.13547  -4396287.68061
  23764941.542    -1950073.936 5  -1443265.14021
  20768534.2614   -1565979.85347  -1201089.14463
  23694714.8944   -2856010.17245  -2079605.45261
 91  3 28 22 42 14.9990000  0  6G18G 2G11G16G19G 6
  21671559.003     5793504.055 7   4505929.39922
  21801518.4644  -12092524.45247  -9338864.14862
  22624724.120    -5720510.320 6  -4397443.38721
  23763212.2764   -1959174.33445  -1450356.36361
  20768710.0344   -1565035.04347  -1200352.91763
  23687706.7374   -2892830.65545  -2108296.58761
 91  3 28 22 42 29.9990000  0  6G18G 2G11G16G19G 6
  21678448.253     5829712.618 7   4534143.78522
  21794864.6754  -12127496.54447  -9366115.03062
  22624468.300    -5721840.137 6  -4398479.57821
  23761503.6054   -1968143.48145  -1457345.33961
  20768903.909    -1564039.070 7  -1199576.82423
  23680702.4564   -2929648.44945  -2136985.62161
 91  3 28 22 42 44.9990000  0  6G18G 2G11G16G19G 6
  21685356.394     5866012.832 7   4562429.59822
  21788224.3474  -12162389.85347  -9393304.52762
  22624247.276    -5723012.722 7  -4399393.26021
  23759823.714    -1976977.491 5  -1464228.99721
  20769100.0264   -1562987.94947  -1198757.76163
  23673695.823    -2966459.609 5  -2165669.49321
 91  3 28 22 42 59.9990000  0  6G18G 2G11G16G19G 6
  21692281.659     5902401.248 7   4590784.13322
  21781599.2764  -12197207.39547  -9420434.98762
  22624052.105    -5724031.109 7  -4400186.78421
  23758166.065    -1985679.761 5  -1471010.00621
  20769311.6754   -1561884.78547  -1197898.14263
  23666688.6984   -3003267.52045  -2194350.81361
 91  3 28 22 43 14.9990000  0  6G18G 2G11G16G19G 6
  21699221.401     5938871.310 7   4619202.28322
  21774985.3084  -12231955.37647  -9447511.23962
  22623886.565    -5724901.794 7  -4400865.21621
  23756533.5974   -1994256.90345  -1477693.52761
  20769528.862    -1560735.941 7  -1197002.92923
  23659685.698    -3040078.307 5  -2223034.39521
 91  3 28 22 43 29.9990000  0  6G18G 2G11G16G19G 6
  21706177.878     5975427.426 7   4647687.49222
  21768387.5894  -12266629.09747  -9474529.64162
  22623751.214    -5725620.042 7  -4401424.87121
  23754926.2304   -2002704.00645  -1484275.72561
  20769756.8784   -1559536.77947  -1196068.51263
  23652680.8234   -3076887.44345  -2251716.69561
 91  3 28 22 43 44.9990000  0  6G18G 2G11G16G19G 6
  21713150.714     6012072.551 7   4676242.06122
  21761805.3474  -12301225.64647  -9501487.89862
  22623643.800    -5726182.684 7  -4401863.27921
  23753344.5264   -2011018.10345  -1490754.26261
  20769993.3084   -1558283.88547  -1195092.22263
  23645677.6124   -3113691.74145  -2280395.20361
 91  3 28 22 43 59.9990000  0  6G18G 2G11G16G19G 6
  21720140.964     6048802.350 7   4704862.60522
  21755234.8084  -12335749.04647  -9528389.15962
  22623566.855    -5726593.879 7  -4402183.67221
  23751786.526    -2019203.607 5  -1497132.58421
  20770244.3154   -1556981.34047  -1194077.24663
  23638670.5264   -3150495.48545  -2309073.31761
 91  3 28 22 44 14.9990000  0  6G18G 2G11G16G19G 6
  21727145.386     6085610.328 7   4733544.06222
  21748677.8624  -12370205.58947  -9555238.32862
  22623515.480    -5726860.016 7  -4402391.03621
  23750256.2694   -2027266.67845  -1503415.52861
  20770497.4724   -1555635.54347  -1193028.56363
  23631669.9564   -3187305.10045  -2337755.97061
 91  3 28 22 44 29.9990000  0  6G18G 2G11G16G19G 6
  21734166.581     6122503.132 7   4762291.62122
  21742134.2064  -12404588.26347  -9582029.92862
  22623493.878    -5726974.264 7
  23748743.878    -2035200.500 5  -1509597.76121
  20770763.5584   -1554239.70747  -1191940.89263
  23624662.167    -3224113.639 5  -2366437.82221
 91  3 28 22 44 44.9990000  0  6G18G 2G11G16G19G 6
  21741202.1834    6159478.26147   4791103.32162
  21735606.144   -12438899.172 7  -9608765.62122
  22623500.503    -5726938.726 7
  23747258.2764   -2043007.37945  -1515681.06861
  20771038.0264   -1552795.56947  -1190815.58263
  23617662.0194   -3260923.23545  -2395120.46961
 91  3 28 22 44 59.9990000  0  6G18G 2G11G16G19G 6
  21748254.0734    6196540.75047   4819983.09762
  21729091.8554  -12473133.08647  -9635441.30762
  22623534.6754   -5726748.08947
  23745797.855    -2050682.208 5  -1521661.48621
  20771325.987    -1551297.758 7  -1189648.44723
  23610656.003    -3297728.760 5  -2423799.94921
 91  3 28 22 45 14.9990000  0  6G18G 2G11G16G19G 6
  21755322.628     6233685.367 7   4848926.87322
  21722590.151   -12507295.139 7  -9662061.00322
  22623600.980    -5726407.510 7
  23744361.8234   -2058230.21945  -1527543.07961
  20771619.253    -1549751.424 7  -1188443.49823
  23603650.175    -3334535.180 5  -2452480.15321
 91  3 28 22 45 29.9990000  0  6G18G 2G11G16G19G 6
  21762406.886     6270913.172 7   4877935.46422
  21716103.237   -12541383.855 7  -9688623.55622
  22623692.378    -5725915.602 7  -4401655.05121
  23742952.1594   -2065649.81445  -1533324.61161
  20771923.417    -1548154.975 7  -1187199.49923
  23596650.784    -3371341.214 5  -2481159.99121
 91  3 28 22 45 44.9990000  0  6G18G 2G11G16G19G 6
  21769508.440     6308225.175 7   4907009.67022
  21709630.776   -12575398.027 7  -9715128.01922
  22623819.2454   -5725271.15547  -4401152.87061
  23741561.300    -2072939.978 5  -1539005.28021
  20772234.511    -1546507.049 7  -1185915.38923
  23589644.605    -3408145.676 5  -2509838.66121
 91  3 28 22 45 59.9990000  0  6G18G 2G11G16G19G 6
  21776622.675     6345618.894 7   4936147.54822
  21703170.995   -12609339.853 7  -9741576.11622
  22623967.487    -5724476.472 7  -4400533.62521
  23740197.878    -2080103.052 5  -1544586.92921
  20772559.933    -1544810.033 7  -1184593.03023
  23582640.8944   -3444950.82945  -2538517.85761
 91  3 28 22 46 14.9990000  0  6G18G 2G11G16G19G 6
  21783754.8864    6383093.66247   4965348.58162
  21696726.862   -12643209.636 7  -9767968.07122
  22624149.292    -5723531.782 7  -4399797.49721
  23738856.745    -2087139.226 5  -1550069.68321
  20772889.894    -1543064.010 7  -1183232.47823
  23575635.417    -3481757.019 5  -2567197.87421
 91  3 28 22 46 29.9990000  0  6G18G 2G11G16G19G 6
  21790902.1204    6420652.05247   4994614.77162
  21690294.964   -12677004.622 7  -9794301.74722
  22624355.105    -5722434.457 7  -4398942.42921
  23737547.159    -2094046.083 5  -1555451.67121
  20773236.480    -1541266.182 7  -1181831.56323
  23568631.355    -3518561.516 5  -2595876.52721
 91  3 28 22 46 44.9990000  0  6G18G 2G11G16G19G 6
  21798064.589     6458294.262 7   5023946.27822
  21683878.394   -12710724.368 7  -9820576.79422
  22624596.097    -5721184.000 7  -4397968.03521
  23736257.690    -2100822.967 5  -1560732.39121
  20773584.6124   -1539415.86147  -1180389.74563
  23561629.714    -3555363.713 5  -2624553.43421
 91  3 28 22 46 59.9990000  0  6G18G 2G11G16G19G 6
  21805244.573     6496020.117 7   5053342.96622
  21677477.300   -12744368.868 7  -9846793.21022
  22624861.2374   -5719780.49947  -4396874.39361
  23734993.440    -2107470.078 5  -1565911.97321
  20773947.519    -1537513.137 7  -1178907.09123
  23554625.003    -3592163.813 5  -2653228.67721
 91  3 28 22 47 14.9990000  0  6G18G 2G11G16G19G 6
  21812438.745     6533829.713 7   5082804.90122
  21671088.105   -12777937.823 7  -9872950.75822
  22625156.8084   -5718223.73147  -4395661.31561
  23733750.7224   -2113987.46045  -1570990.49961
  20774320.534    -1535557.619 7  -1177383.30223
  23547624.8154   -3628961.62145  -2681902.13461
 91  3 28 22 47 29.9990000  0  6G18G 2G11G16G19G 6
  21819648.472     6571718.279 7   5112328.37422
  21664713.339   -12811435.607 7  -9899052.85722
  22625482.1984   -5716518.11747  -4394332.26561
  23732536.480    -2120379.570 5  -1575971.39021
  20774701.7144   -1533553.70847  -1175821.80763
  23540621.042    -3665761.570 5  -2710577.25921
 91  3 28 22 47 44.9990000  0  6G18G 2G11G16G19G 6
  21826875.667     6609690.599 7   5141917.11522
  21658353.292   -12844857.179 7  -9925095.56622
  22625837.323    -5714658.701 7  -4392883.36021
  23731345.6984   -2126641.35045  -1580850.72361
  20775091.190    -1531496.168 7  -1174218.51723
  23533618.222    -3702558.615 5  -2739250.14721
 91  3 28 22 47 59.9990000  0  6G18G 2G11G16G19G 6
  21834116.550     6647742.173 7   5171567.60822
  21652007.198   -12878207.129 7  -9951082.46422
  22626219.6204   -5712649.84647
  23730175.120    -2132777.465 5  -1585632.16721
  20775494.9724   -1529389.36947
  23526613.558    -3739357.131 5  -2767924.14521
 91  3 28 22 48 14.9990000  0  6G18G 2G11G16G19G 6
  21841372.714     6685872.685 7   5201279.61322
  21645675.089   -12911485.121 7  -9977013.29322
  22626630.6674   -5710491.52647
  23729031.690    -2138787.740 5  -1590315.52721
  20775902.4724   -1527233.25447
  23519609.581    -3776157.099 5  -2796599.27521
 91  3 28 22 48 29.9990000  0  6G18G 2G11G16G19G 6
  21848642.956     6724085.611 7   5231055.83422
  21639355.5114  -12944687.43347 -10002885.15362
  22627070.1364   -5708180.19047  -4387835.14661
  23727914.550    -2144668.611 5  -1594898.04821
  20776323.3864   -1525023.95447  -1169175.21463
  23512611.300    -3812955.025 5  -2825272.82821
 91  3 28 22 48 44.9990000  0  6G18G 2G11G16G19G 6
  21855929.964     6762381.648 7   5260896.82422
  21633053.401   -12977813.222 7 -10028697.38522
  22627537.7614   -5705714.89747  -4385914.12961
  23726818.8554   -2150419.32445  -1599379.14961
  20776755.5264   -1522760.59547  -1167411.55463
  23505606.042    -3849749.875 5  -2853943.98321
 91  3 28 22 48 59.9990000  0  6G18G 2G11G16G19G 6
  21863233.737     6800755.550 7   5290798.48322
  21626761.190   -13010867.137 7 -10054453.60922
  22628033.4334   -5703100.44046  -4383876.89361
  23725748.331    -2156044.544 5  -1603762.46021
  20777196.0734   -1520447.90847  -1165609.45263
  23498605.011    -3886546.430 5  -2882616.45021
 91  3 28 22 49 14.9990000  0  6G18G 2G11G16G19G 6
  21870551.339     6839209.381 7   5320762.42221
  21620486.815   -13043847.093 7 -10080152.20522
  22628562.1674   -5700334.77846  -4381721.82361
  23724704.190    -2161542.245 5  -1608046.42321
  20777644.5344   -1518083.50247  -1163767.05363
  23491601.8704   -3923342.65945  -2911288.71561
 91  3 28 22 49 29.9990000  0  6G18G 2G11G16G19G 6
  21877885.1514    6877743.61847   5350789.01262
  21614224.1514  -13076752.55447 -10105792.75662
  22629118.3474   -5697417.31746  -4379448.46961
  23723680.3314   -2166912.47145  -1612231.05961
  20778105.4254   -1515666.63747  -1161883.78163
  23484601.6204   -3960137.93845  -2939960.17961
 91  3 28 22 49 44.9990000  0  6G18G 2G11G16G19G 6
  21885231.5734    6916355.10947   5380875.80362
  21607976.5734  -13109586.34247 -10131377.45962
  22629699.9254   -5694350.94246  -4377059.08361
  23722683.792    -2172157.620 5  -1616318.22221
  20778575.2304   -1513199.99347  -1159961.71863
  23477597.6444   -3996935.07145  -2968633.10561
 91  3 28 22 49 59.9990000  0  6G18G 2G11G16G19G 6
  21892596.245     6955053.460 7   5411030.27721
  21601744.8004  -13142338.52647 -10156898.57562
  22630315.4334   -5691125.85746  -4374546.02561
  23721708.8234   -2177268.19545  -1620300.52861
  20779054.5814   -1510673.85747  -1157993.30163
  23470598.6124   -4033724.25445  -2997299.84661
 91  3 28 22 50 14.9990000  0  6G18G 2G11G16G19G 6
  21899974.9174    6993827.50447   5441243.73062
  21595523.8704  -13175019.83947 -10182364.46662
  22630955.0264   -5687752.95946  -4371917.77661
  23720759.1754   -2182254.86545  -1624186.28061
  20779546.1674   -1508098.96447  -1155986.89063
  23463597.487    -4070516.221 5  -3025968.76021
 91  3 28 22 50 29.9990000  0  6G18G 2G11G16G19G 6
  21907366.9254    7032680.17347   5471518.45061
  21589320.0584  -13207627.18747 -10207772.72862
  22631628.3944   -5684229.13346  -4369171.93861
  23719836.612    -2187114.592 5  -1627973.11021
  20780043.4404   -1505471.98647  -1153939.89563
  23456593.401    -4107308.088 5  -3054637.58421
 91  3 28 22 50 44.9990000  0  6G18G 2G11G16G19G 6
  21914776.5264    7071608.42347   5501852.06662
  21583129.0264  -13240163.67847 -10233125.76762
  22632323.5264   -5680557.35446  -4366310.81061
  23718934.737    -2191850.602 5  -1631663.52221
  20780554.5344   -1502795.97847  -1151854.70063
  23449595.948    -4144102.641 5  -3083308.51721
 91  3 28 22 50 59.9990000  0  6G18G 2G11G16G19G 6
  21922199.6834    7110620.00547   5532250.61161
  21576951.1754  -13272620.79847 -10258416.96262
  22633053.1444   -5676729.18746  -4363327.82761
  23718058.4874   -2196454.59445  -1635251.08761
  20781076.8624   -1500062.32547  -1149724.59063
  23442593.862    -4180891.572 5  -3111975.05021
 91  3 28 22 51 14.9990000  0  6G18G 2G11G16G19G 6
  21929638.065     7149706.433 7   5562707.48521
  21570789.925   -13305007.122 7 -10283652.99122
  22633811.3944   -5672753.52646  -4360229.90361
  23717208.4484   -2200935.20345  -1638742.51961
  20781602.4954   -1497279.86647  -1147556.44363
  23435591.386    -4217683.629 5  -3140644.02121
 91  3 28 22 51 29.9990000  0  6G18G 2G11G16G19G 6
  21937089.4334    7188866.90147   5593222.04261
  21564638.7534  -13337323.24947 -10308834.32162
  22634595.0344   -5668630.71146  -4357017.31961
  23716377.323    -2205293.162 5  -1642138.34321
  20782143.0194   -1494448.79847  -1145350.42563
  23428591.6124   -4254479.27445  -3169315.80461
 91  3 28 22 51 44.9990000  0  6G18G 2G11G16G19G 6
  21944556.6904    7228109.99347   5623800.99061
  21558506.1054  -13369560.14147 -10333953.91762
  22635411.0424   -5664351.88246  -4353683.15861
  23715571.558    -2209519.768 5  -1645431.86321
  20782689.9564   -1491559.83147  -1143099.28763
  23421588.839    -4291269.462 5  -3197983.32521
 91  3 28 22 51 59.9990000  0  6G18G 2G11G16G19G 6
  21952040.6834    7267429.77547   5654439.68861
  21552384.9334  -13401723.31447 -10359016.05862
  22636252.5504   -5659922.64946  -4350231.80061
  23714793.183    -2213620.568 5  -1648627.33621
  20783254.6364   -1488618.53647  -1140807.37263
  23414588.300    -4328059.742 5  -3226650.92221
 91  3 28 22 52 14.9990000  0  6G18G 2G11G16G19G 6
  21959536.7534    7306821.31947   5685134.30761
  21546277.7694  -13433817.63547 -10384024.56662
  22637123.464    -5655348.203 6  -4346667.29121
  23714034.6284   -2217600.57845  -1651728.67761
  20783819.0974   -1485629.78647  -1138478.48263
  23407586.823    -4364855.083 5  -3255322.45721
 91  3 28 22 52 29.9990000  0  6G18G 2G11G16G19G 6
  21967047.2224    7346293.02147   5715891.38361
  21540185.2144  -13465834.46247 -10408972.67862
  22638023.5194   -5650619.75647  -4342982.78861
  23713301.245    -2221451.345 5  -1654729.32221
  20784401.8864   -1482584.71747  -1136105.70463
  23400585.972    -4401646.794 5  -3283991.17521
 91  3 28 22 52 44.9990000  0  6G18G 2G11G16G19G 6
  21974573.8864    7385845.05447   5746711.06061
  21534106.4254  -13497773.46647 -10433860.15062
  22638952.4954   -5645736.90347  -4339177.96461
  23712594.5114   -2225172.36045  -1657628.85361
  20784988.7764   -1479482.86747  -1133688.68563
  23393584.698    -4438434.530 5  -3312656.77321
 91  3 28 22 52 59.9990000  0  6G18G 2G11G16G19G 6
  21982115.4254    7425472.48547   5777589.49061
  21528043.972   -13529639.165 7 -10458690.49422
  22639908.5734   -5640704.46647  -4335256.58061
  23711910.581    -2228768.237 5  -1660430.88021
  20785594.6904   -1476328.71847  -1131230.90763
  23386583.644    -4475222.915 5  -3341322.87721
 91  3 28 22 53 14.9990000  0  6G18G 2G11G16G19G 6
  21989671.8554    7465183.72847   5808533.22461
  21521993.9484  -13561422.84647 -10483456.93262
  22640896.1204   -5635513.87147  -4331211.95861
  23711252.034    -2232230.501 5  -1663128.79521
  20786201.9874   -1473113.71847  -1128725.71763
  23379582.6754   -4512003.32045  -3369982.76961
 91  3 28 22 53 29.9990000  0  6G18G 2G11G16G19G 6
  21997242.9404    7504970.87547   5839536.10561
  21515961.0894  -13593132.20647 -10508165.46262
  22641914.4484   -5630172.80247  -4327050.08161
  23710617.308    -2235566.977 5  -1665728.70021
  20786821.4724   -1469845.43547  -1126179.00563
  23372585.776    -4548783.401 5  -3398642.40721
 91  3 28 22 53 44.9990000  0  6G18G 2G11G16G19G 6
  22004829.6754    7544839.81547   5870602.72161
  21509941.5504  -13624761.24747 -10532811.40062
  22642958.8004   -5624675.28347  -4322766.29261
  23710006.003    -2238771.824 5  -1668226.01621
  20787458.9404   -1466517.62947  -1123585.91163
  23365589.222    -4585557.132 5  -3427297.11021
 91  3 28 22 53 59.9990000  0  6G18G 2G11G16G19G 6
  22012430.089     7584784.786 7   5901728.58321
  21503936.6754  -13656315.25047 -10557398.86662
  22644035.3624   -5619026.60547  -4318364.72561
  23709420.355    -2241850.593 5  -1670625.10521
  20788100.1984   -1463135.71547  -1120950.66063
  23358587.730    -4622329.899 5  -3455951.05521
 91  3 28 22 54 14.9990000  0  6G18G 2G11G16G19G 6
  22020047.6904    7624811.14347   5932917.85561
  21497947.6444  -13687788.75647 -10581923.60662
  22645137.7924   -5613221.48847  -4313841.25461
  23708862.5424   -2244797.87445  -1672921.73161
  20788757.4484   -1459693.98147  -1118268.78963
  23351594.4804   -4659096.13145  -3484599.91261
 91  3 28 22 54 29.9990000  0  6G18G 2G11G16G19G 6
  22027679.5654    7664914.61747   5964167.22361
  21491972.1054  -13719185.81947 -10606388.78062
  22646273.4094   -5607264.15747  -4309199.17961
  23708324.198    -2247617.997 5  -1675119.27621
  20789422.4804   -1456196.45047  -1115543.44263
  23344596.355    -4695860.063 5  -3513246.97521
 91  3 28 22 54 44.9990000  0  6G18G 2G11G16G19G 6
  22035325.5734    7705090.67447   5995473.14761
  21486012.4174  -13750510.64247 -10630797.66762
  22647433.3704   -5601158.89847  -4304441.83461
  23707811.1834   -2250315.03745  -1677220.92861
  20790097.1054   -1452647.25347  -1112777.83563
  23337602.245    -4732625.846 5  -3541895.49121
 91  3 28 22 54 59.9990000  0  6G18G 2G11G16G19G 6
  22042985.0894    7745337.63447   6026834.32561
  21480064.698   -13781764.732 7 -10655151.42822
  22648622.5114   -5594907.17946  -4299570.36461
  23707320.573    -2252890.986 5  -1679228.20721
  20790785.4014   -1449047.83247  -1109973.09463
  23330603.456    -4769395.107 5  -3570546.70121
 91  3 28 22 55 14.9990000  0  6G18G 2G11G16G19G 6
  22050657.761     7785665.489 7   6058258.54021
  21474132.167   -13812937.895 7 -10679442.13322
  22649844.5814   -5588498.69846  -4294576.73961
  23706862.3394   -2255335.34845  -1681132.94061
  20791477.5264   -1445387.75447  -1107121.08763
  23323608.8554   -4806157.35045  -3599192.45961
 91  3 28 22 55 29.9990000  0  6G18G 2G11G16G19G 6
  22058347.1674    7826072.44847   6089744.39061
  21468215.792   -13844031.587 7 -10703670.90222
  22651093.9174   -5581935.18346  -4289462.30561
  23706416.612    -2257649.787 5  -1682936.45821
  20792187.2844   -1441668.56247  -1104223.01463
  23316614.526    -4842914.251 5  -3627834.03421
 91  3 28 22 55 44.9990000  0  6G18G 2G11G16G19G 6
  22066050.5034    7866554.90447   6121289.06361
  21462312.222   -13875049.019 7 -10727840.24522
  22652371.5034   -5575219.83646  -4284229.56761
  23705998.097    -2259837.839 5  -1684641.47721
  20792902.9014   -1437893.30047  -1101281.25163
  23309617.605    -4879668.915 5  -3656473.90021
 91  3 28 22 55 59.9990000  0  6G18G 2G11G16G19G 6
  22073768.7304    7907111.10247   6152891.20461
  21456425.386   -13905992.015 7 -10751951.59022
  22653676.8864   -5568354.47946  -4278879.93461
  23705604.980    -2261901.085 5  -1686249.25921
  20793633.1124   -1434063.53847  -1098297.02563
  23302623.8864   -4916423.14445  -3685113.40361
 91  3 28 22 56 14.9990000  0  6G18G 2G11G16G19G 6
  22081500.3944    7947739.68447   6184549.74061
  21450550.472   -13936861.265 7 -10776005.47422
  22655012.5264   -5561340.26346  -4273414.30361
  23705232.9334   -2263840.67645  -1687760.68861
  20794370.9724   -1430180.07847  -1095270.94863
  23295631.9484   -4953177.76845  -3713753.24261
 91  3 28 22 56 29.9990000  0  6G18G 2G11G16G19G 6
  22089244.1754    7988441.60647   6216265.42961
  21444690.4254  -13967655.29747 -10800000.76562
  22656376.136    -5554175.601 6  -4267831.43921
  23704891.5584   -2265655.13545  -1689174.61461
  20795124.8154   -1426241.33147  -1092201.79763
  23288638.4484   -4989931.37245  -3742392.26161
 91  3 28 22 56 44.9990000  0  6G18G 2G11G16G19G 6
  22097003.2374    8029211.49846   6248034.08861
  21438843.284   -13998379.758 7 -10823941.82622
  22657766.620    -5546866.283 6  -4262135.86021
  23704569.120    -2267350.426 5  -1690495.65621
  20795880.0894   -1422252.96047  -1089093.97763
  23281643.003    -5026689.517 5  -3771034.83921
 91  3 28 22 56 59.9990000  0  6G18G 2G11G16G19G 6
  22104775.7144    8070056.07146   6279860.92461
  21433010.815   -14029027.425 7 -10847823.05022
  22659184.4484   -5539405.29246  -4256322.09461
  23704267.855    -2268919.362 5  -1691718.26821
  20796652.4954   -1418207.66947  -1085941.80163
  23274648.0114   -5063445.19145  -3799675.49661
 91  3 28 22 57 14.9990000  0  6G18G 2G11G16G19G 6
  22112562.0424    8110978.26346   6311748.24961
  21427195.292   -14059595.062 7 -10871641.91522
  22660633.6984   -5531789.39746  -4250387.62461
  23703996.1594   -2270358.90645  -1692840.07661
  20797433.1284   -1414102.08847  -1082742.64863
  23267653.0584   -5100195.04245  -3828311.61761
 91  3 28 22 57 29.9990000  0  6G18G 2G11G16G19G 6
  22120364.5734    8151976.32446   6343694.69961
  21421391.9014  -14090084.18247 -10895399.59862
  22662113.5264   -5524020.16646  -4244333.67961
  23703747.315    -2271670.581 5  -1693862.20121
  20798224.4874   -1409937.69347  -1079497.66763
  23260660.3474   -5136940.48145  -3856944.29461
 91  3 28 22 57 44.9990000  0  6G18G 2G11G16G19G 6
  22128181.4484    8193051.70746   6375701.39561
  21415606.2304  -14120493.10947 -10919094.79762
  22663619.6754   -5516096.03246  -4238159.01961
  23703524.878    -2272853.052 5  -1694783.67321
  20799028.1514   -1405712.49247  -1076205.29763
  23253670.0894   -5173680.01545  -3885572.38661
 91  3 28 22 57 59.9990000  0  6G18G 2G11G16G19G 6
  22136011.8234    8234195.08746   6407761.07961
  21409832.0504  -14150831.13747 -10942734.74462
  22665158.7374   -5508026.33746  -4231870.94261
  23703318.4094   -2273915.50945  -1695611.61661
  20799843.0584   -1401435.69647  -1072872.72763
  23246677.4564   -5210422.71045  -3914202.93661
 91  3 28 22 58 14.9990000  0  6G18G 2G11G16G19G 6
  22143855.1364    8275412.71046   6439878.60761
  21404075.4564  -14181091.73847 -10966314.37462
  22666720.5734   -5499804.55046  -4225464.35761
  23703140.597    -2274851.780 5  -1696341.24021
  20800667.2064   -1397100.74747  -1069494.84363
  23239685.3554   -5247162.07845  -3942830.88861
 91  3 28 22 58 29.9990000  0  6G18G 2G11G16G19G 6
  22151713.1754    8316708.11546   6472056.75261
  21398331.136   -14211270.798 7 -10989830.44922
  22668316.2454   -5491426.83246  -4218936.25961
  23702987.378    -2275657.753 5  -1696969.34521
  20801503.8084   -1392703.59147  -1066068.48863
  23232695.3084   -5283894.09345  -3971453.11161
 91  3 28 22 58 44.9990000  0  6G18G 2G11G16G19G 6
  22159582.5344    8358065.04946   6504282.83161
  21392601.1984  -14241384.53947 -11013295.63462
  22669935.987    -5482909.470 6  -4212299.34921
  23702852.323    -2276349.893 5  -1697508.71821
  20802349.4954   -1388260.21647  -1062606.12163
  23225704.2534   -5320634.92445  -4000082.22161
 91  3 28 22 58 59.9990000  0  6G18G 2G11G16G19G 6
  22167466.886     8399494.346 6   6536565.30621
  21386885.401   -14271422.006 7 -11036701.37822
  22671585.5974   -5474241.58746  -4205545.14861
  23702748.448    -2276917.360 5  -1697950.97021
  20803209.0814   -1383759.64947  -1059099.19163
  23218711.269    -5357373.753 5  -4028709.75221
 91  3 28 22 59 14.9990000  0  6G18G 2G11G16G19G 6
  22175364.237     8440994.052 6   6568902.63621
  21381182.7614  -14301384.60247 -11060048.79262
  22673264.2534   -5465424.70346  -4198674.83961
  23702663.5264   -2277361.52445  -1698297.15161
  20804071.8314   -1379203.12247  -1055548.64863
  23211721.948    -5394111.761 5  -4057336.64421
 91  3 28 22 59 29.9990000  0  6G18G 2G11G16G19G 6
  22183274.026     8482563.256 6   6601294.12121
  21375496.3234  -14331273.36247 -11083338.66562
  22674970.9334   -5456459.85646  -4191689.24761
  23702601.425    -2277683.635 5  -1698548.20521
  20804949.0114   -1374591.48647  -1051955.17363
  23204730.987    -5430849.987 5  -4085963.71421
 91  3 28 22 59 44.9990000  0  6G18G 2G11G16G19G 6
  22191198.8234    8524204.03946   6633741.38461
  21369821.6674  -14361085.64047 -11106568.94162
  22676704.6444   -5447344.65646  -4184586.48861
  23702561.565    -2277881.352 5
  20805838.1204   -1369922.15947  -1048316.73863
  23197739.112    -5467585.749 5  -4114588.85721
 91  3 28 22 59 59.9990000  0  6G18G 2G11G16G19G 6
  22199135.284     8565914.332 6   6666242.80621
  21364165.0344  -14390823.46547 -11129741.20662
  22678466.5344   -5438081.12446  -4177368.15261
  23702549.839    -2277956.824 5
  20806738.7694   -1365197.08947  -1044634.87563
  23190748.0974   -5504321.28445  -4143213.82961
 91  3 28 23  0 14.9990000  0  6G18G 2G11G16G19G 6
  22207085.792     8607695.619 6   6698799.54421
  21358518.472   -14420484.912 7 -11152853.95122
  22680258.4484   -5428667.33646  -4170032.72761
  23702560.878    -2277907.994 5
  20807647.2694   -1360414.24047  -1040907.98263
  23183759.628    -5541054.475 5  -4171836.95921
 91  3 28 23  0 29.9990000  0  6G18G 2G11G16G19G 6
  22215051.105     8649549.834 6   6731413.11121
  21352890.5034  -14450067.58247 -11175905.31562
  22682079.5344   -5419101.08646  -4162578.50961
  23702592.597    -2277733.074 5
  20808571.6984   -1355571.11847  -1037134.12763
  23176768.605    -5577783.019 5  -4200456.48321
 91  3 28 23  0 44.9990000  0  6G18G 2G11G16G19G 6
  22223028.214     8691472.518 6   6764080.03321
  21347274.4874  -14479575.96647 -11198898.78962
  22683927.8784   -5409387.06146  -4155009.13361
  23702654.269    -2277436.605 5
  20809500.4954   -1350672.07747  -1033316.69363
  23169779.2064   -5614511.37045  -4229075.84561
 91  3 28 23  0 59.9990000  0  6G18G 2G11G16G19G 6
  22231021.183     8733468.661 6   6796804.19021
  21341673.9564  -14509004.85847 -11221830.32862
  22685806.1754   -5399520.06646  -4147320.56561
  23702730.847    -2277013.462 5  -1698026.37721
  20810446.7614   -1345711.68547  -1029451.46063
  23162793.8704   -5651234.31545  -4257691.01061
 91  3 28 23  1 14.9990000  0  6G18G 2G11G16G19G 6
  22239026.0504    8775530.34946   6829579.41761
  21336088.3004  -14538361.80347 -11244705.80062
  22687708.7224   -5389507.81746  -4139518.80061
  23702833.987    -2276471.354 5  -1697604.00221
  20811401.1444   -1340697.59547  -1025544.37963
  23155802.1054   -5687959.39645  -4286307.83061
 91  3 28 23  1 29.9990000  0  6G18G 2G11G16G19G 6
  22247041.6364    8817658.57946   6862406.49561
  21330514.4484  -14567645.79547 -11267524.42762
  22689643.4484   -5379349.24046  -4131603.02661
  23702960.0974   -2275809.09645  -1697088.03361
  20812365.7454   -1335628.49947  -1021594.43763
  23148813.1054   -5724685.40545  -4314925.37361
 91  3 28 23  1 44.9990000  0  6G18G 2G11G16G19G 6
  22255069.276     8859851.163 6   6895283.71921
  21324956.1594  -14596858.45547 -11290287.47462
  22691604.4254   -5369046.37346  -4123574.81361
  23703107.5734   -2275028.56445  -1696479.89761
  20813339.8314   -1330506.07647  -1017602.93863
  23141823.550    -5761414.052 5  -4343544.96621
 91  3 28 23  1 59.9990000  0  6G18G 2G11G16G19G 6
  22263112.355     8902115.263 6   6928216.67321
  21319412.1984  -14625992.35047 -11312989.14162
  22693592.3154   -5358591.98346  -4115428.53661
  23703280.644    -2274122.833 5  -1695774.19521
  20814328.5034   -1325322.74947  -1013563.98663
  23134835.6904   -5798138.16945  -4372161.02861
 91  3 28 23  2 14.9990000  0  6G18G 2G11G16G19G 6
  22271169.370     8944444.629 6   6961200.48321
  21313880.6984  -14655053.62247 -11335634.22362
  22695611.4874   -5347992.00146  -4107168.81261
  23703474.2374   -2273097.85045  -1694975.56761
  20815320.9724   -1320084.33447  -1009482.10163
  23127845.612    -5834863.592 5  -4400778.11421
 91  3 28 23  2 29.9990000  0  6G18G 2G11G16G19G 6
  22279236.9174    8986842.50246   6994237.66961
  21308366.5584  -14684038.90247 -11358220.09062
  22697654.2534   -5337243.23846  -4098793.16261
  23703693.5194   -2271950.43945  -1694081.55361
  20816331.8234   -1314787.55647  -1005354.74563
  23120858.472    -5871586.968 5  -4429393.59521
 91  3 28 23  2 44.9990000  0  6G18G 2G11G16G19G 6
  22287316.6284    9029308.45846   7027327.90561
  21302863.8154  -14712947.89247 -11380746.50562
  22699730.4644   -5326345.72846  -4090301.59461
  23703937.347    -2270680.743 5  -1693092.24121
  20817349.0194   -1309432.17947  -1001181.72063
  23113871.5504   -5908308.14345  -4458007.36261
 91  3 28 23  2 59.9990000  0  6G18G 2G11G16G19G 6
  22295411.2144    9071838.98246   7060468.45861
  21297378.1054  -14741784.04747 -11403216.17362
  22701830.2064   -5315303.01246  -4081696.88461
  23704197.2374   -2269292.57045  -1692010.62061
  20818378.9874   -1304021.70047   -996965.76663
  23106881.597    -5945030.525 5  -4486622.07421
 91  3 28 23  3 14.9990000  0  6G18G 2G11G16G19G 6
  22303517.058     9114435.994 6   7093660.82021
  21291903.4644  -14770545.40047 -11425627.55062
  22703958.8394   -5304113.00046  -4072977.39961
  23704486.0654   -2267783.69545  -1690834.95461
  20819419.8234   -1298553.79147   -992705.06063
  23099894.8624   -5981751.98545  -4515236.06761
 91  3 28 23  3 29.9990000  0  6G18G 2G11G16G19G 6
  22311633.815     9157090.122 6   7126897.69121
  21286444.6834  -14799240.92847 -11447987.63962
  22706116.1054   -5292784.84346  -4064150.27061
  23704795.050    -2266162.995 5  -1689572.14521
  20820471.3474   -1293037.11047   -988406.35163
  23092906.253    -6018481.435 5  -4543856.27621
 91  3 28 23  3 44.9990000  0  6G18G 2G11G16G19G 6
  22319764.792     9199814.917 6   7160189.61921
  21280997.792   -14827856.815 7 -11470285.66322
  22708301.6754   -5281304.84346  -4055204.81761
  23705126.4564   -2264416.97345  -1688211.66161
  20821530.7224   -1287457.81647   -984058.84463
  23085916.808    -6055205.006 5  -4572471.90521
 91  3 28 23  3 59.9990000  0  6G18G 2G11G16G19G 6
  22327906.1594    9242603.27046   7193531.07661
  21275566.6364  -14856400.08747 -11492527.11462
  22710513.9404   -5269680.01246  -4046146.50961
  23705484.245    -2262552.962 5  -1686759.26221
  20822605.3944   -1281822.80847   -979667.92963
  23078928.3154   -6091929.63545  -4601088.35561
 91  3 28 23  4 14.9990000  0  6G18G 2G11G16G19G 6
  22336060.7064    9285457.12746   7226923.56461
  21270149.3474  -14884868.35647 -11514710.11262
  22712753.8704   -5257908.30946  -4036973.75561
  23705861.323    -2260568.845 5  -1685213.27021
  20823685.6444   -1276129.82547   -975231.83863
  23071940.3704   -6128653.20645  -4629703.99461
 91  3 28 23  4 29.9990000  0  6G18G 2G11G16G19G 6
  22344228.9484    9328374.19346   7260365.31661
  21264745.1364  -14913263.64147 -11536836.24362
  22715020.6514   -5245991.89346  -4027688.23961
  23706262.917    -2258466.772 5  -1683575.37221
  20824784.6204   -1270380.72047   -970752.01663
  23064952.3784   -6165377.56445  -4658320.23161
 91  3 28 23  4 44.9990000  0  6G18G 2G11G16G19G 6
  22352406.7924    9371355.96846   7293857.49061
  21259356.3314  -14941584.36047 -11558904.27662
  22717316.9334   -5233929.28346  -4018288.79961
  23706684.0114   -2256244.95645  -1681844.16461
  20825884.5814   -1264573.76647   -966227.11663
  23057963.464    -6202101.197 5  -4686935.90921
 91  3 28 23  4 59.9990000  0  6G18G 2G11G16G19G 6
  22360598.6674    9414397.19446   7327395.98561
  21253979.7144  -14969835.56047 -11580918.13062
  22719638.2144   -5221725.57646  -4008779.42661
  23707126.7224   -2253908.97345  -1680023.98861
  20827003.6754   -1258713.68147   -961660.81763
  23050975.636    -6238828.901 5  -4715554.75621
 91  3 28 23  5 14.9990000  0  6G18G 2G11G16G19G 6
  22368800.3784    9457496.05846   7360979.39461
  21248616.5344  -14998018.72247 -11602878.96962
  22721986.4564   -5209382.40546  -3999161.37361
  23707593.1054   -2251460.36945  -1678116.05861
  20828126.0974   -1252802.05547   -957054.35463
  23043985.550    -6275562.325 5  -4744178.06921
 91  3 28 23  5 29.9990000  0  6G18G 2G11G16G19G 6
  22377012.3084    9500657.86546   7394611.84761
  21243267.1594  -15026128.07347 -11624782.29862
  22724362.0424   -5196894.11946  -3989430.24361
  23708080.0114   -2248893.68645  -1676116.11861
  20829265.9254   -1246833.08747   -952403.20863
  23036992.644    -6312295.645 5  -4772801.29321
 91  3 28 23  5 44.9990000  0  6G18G 2G11G16G19G 6
  22385238.4014    9543882.12546   7428292.96861
  21237932.7534  -15054163.98447 -11646628.39862
  22726767.0734   -5184261.32246  -3979586.51261
  23708593.089    -2246209.405 5  -1674024.55121
  20830407.8234   -1240807.10747   -947707.64363
  23030005.409    -6349029.238 5  -4801424.73021
 91  3 28 23  5 59.9990000  0  6G18G 2G11G16G19G 6
  22393476.6054    9587171.76246   7462025.03161
  21232612.2454  -15082123.54647 -11668415.00162
  22729199.4334   -5171481.16246  -3969627.95261
  23709127.8004   -2243404.63045  -1671839.08161
  20831564.6834   -1234720.92547   -942965.17163
  23023014.394    -6385760.051 5  -4830045.99921
 91  3 28 23  6 14.9990000  0  6G18G 2G11G16G19G 6
  22401726.5974    9630524.48846   7495806.24561
  21227305.8864  -15110008.53147 -11690143.50062
  22731657.5344   -5158555.52746  -3959556.02961
  23709684.112    -2240481.233 5  -1669561.18721
  20832736.1204   -1228576.26447   -938177.12663
  23016024.526    -6422489.828 5  -4858666.46521
 91  3 28 23  6 29.9990000  0  6G18G 2G11G16G19G 6
  22409988.8864    9673942.15346   7529638.07761
  21222013.815   -15137816.784 7 -11711812.20922
  22734148.4094   -5145482.35046  -3949369.14561
  23710262.745    -2237437.407 5  -1667189.44521
  20833916.2144   -1222370.93447   -933341.80863
  23009037.159    -6459216.319 5  -4887284.36721
 91  3 28 23  6 44.9990000  0  6G18G 2G11G16G19G 6
  22418262.0504    9717420.06346   7563516.83861
  21216735.675   -15165552.529 7 -11733424.42122
  22736660.5504   -5132266.12846  -3939070.79661
  23710864.7534   -2234277.49145  -1664727.25261
  20835108.6054   -1216108.76947   -928462.20563
  23002047.855    -6495943.950 6  -4915903.16621
 91  3 28 23  6 59.9990000  0  6G18G 2G11G16G19G 6
  22426547.136     9760957.682 6   7597442.12821
  21211471.753   -15193216.491 7 -11754980.71122
  22739203.3314   -5118907.64246  -3928661.58961
  23711489.987    -2231002.383 5  -1662175.30021
  20836314.2764   -1209790.45046   -923538.85263
  22995058.6124   -6532673.28946  -4944523.28861
 91  3 28 23  7 14.9990000  0  6G18G 2G11G16G19G 6
  22434842.3944    9804553.03946   7631412.41361
  21206220.097   -15220810.127 7 -11776482.19022
  22741773.3624   -5105408.41946  -3918142.71661
  23712132.737    -2227613.847 5  -1659534.94521
  20837522.4724   -1203417.43947   -918572.87863
  22988069.050    -6569405.662 6  -4973145.76821
 91  3 28 23  7 29.9990000  0  6G18G 2G11G16G19G 6
  22443151.6514    9848210.54146   7665431.12661
  21200984.5504  -15248328.83447 -11797925.28262
  22744368.4484   -5091764.15247  -3907510.82761
  23712802.409    -2224107.536 5  -1656802.80921
  20838751.0814   -1196985.29747   -913560.82863
  22981078.8624   -6606136.54046  -5001767.10561
 91  3 28 23  7 44.9990000  0  6G18G 2G11G16G19G 6
  22451471.550     9891927.251 6   7699495.96621
  21195761.1204  -15275775.47447 -11819312.21562
  22746992.6284   -5077977.69746  -3896768.13661
  23713489.0814   -2220486.28745  -1653981.13761
  20839982.4174   -1190496.55547   -908504.67063
  22974089.581    -6642868.732 6  -5030389.44021
 91  3 28 23  7 59.9990000  0  6G18G 2G11G16G19G 6
  22459800.7224    9935706.94846   7733609.89261
  21190552.5504  -15303145.85147 -11840639.72362
  22749643.6674   -5064044.97546  -3885911.47261
  23714197.9954   -2216745.90245  -1651066.60861
  20841231.3864   -1183946.62147   -903400.83463
  22967099.425    -6679597.827 6  -5059009.37421
 91  3 28 23  8 14.9990000  0  6G18G 2G11G16G19G 6
  22468142.9254    9979546.57746   7767770.51361
  21185358.667   -15330442.780 7 -11861910.00322
  22752321.7534   -5049969.03346  -3874943.21161
  23714933.183    -2212889.520 5  -1648061.71121
  20842487.2534   -1177338.40647   -898251.58563
  22960109.995    -6716326.861 6  -5087629.25821
 91  3 28 23  8 29.9990000  0  6G18G 2G11G16G19G 6
  22476496.8474   10023437.50446   7801971.10861
  21180175.8084  -15357674.64447 -11883129.57162
  22755026.1444   -5035758.39647  -3863869.99861
  23715687.503    -2208925.802 5  -1644973.15421
  20843753.1984   -1170680.21247   -893063.39463
  22953118.5114   -6753064.14846  -5116255.57561
 91  3 28 23  8 44.9990000  0  6G18G 2G11G16G19G 6
  22484859.9254   10067387.97646   7836218.10361
  21175007.620   -15384832.964 7 -11904291.84522
  22757757.5974   -5021404.64146  -3852685.26061
  23716468.1834   -2204846.30845  -1641794.41561
  20845031.6904   -1163963.47047   -887829.57563
  22946126.956    -6789801.063 6  -5144881.60621
 91  3 28 23  8 59.9990000  0  6G18G 2G11G16G19G 6
  22493233.284    10111389.233 6   7870504.66421
  21169852.0194  -15411926.20947 -11925403.40262
  22760514.573    -5006916.539 6  -3841395.84421
  23717260.550    -2200659.766 5  -1638532.22721
  20846323.0424   -1157196.60747   -882556.70563
  22939134.644    -6826546.043 5  -5173513.92321
 91  3 28 23  9 14.9990000  0  6G18G 2G11G16G19G 6
  22501617.823    10155450.722 6   7904838.16221
  21164710.5264  -15438944.57047 -11946456.60462
  22763298.7764   -4992284.37946  -3829994.16761
  23718082.0194   -2196356.35945  -1635179.00761
  20847618.0344   -1150369.66047   -877237.01663
  22932142.5814   -6863289.24445  -5202144.85761
 91  3 28 23  9 29.9990000  0  6G18G 2G11G16G19G 6
  22510013.5264   10199568.48446   7939215.51361
  21159583.8864  -15465891.79147 -11967454.38062
  22766110.675    -4977512.040 6  -3818483.26421
  23718920.2614   -2191940.19045  -1631737.91161
  20848928.5584   -1143486.26947   -871873.34663
  22925149.7064   -6900034.40745  -5230777.30561
 91  3 28 23  9 44.9990000  0  6G18G 2G11G16G19G 6
  22518418.0264   10243741.29046   7973635.75061
  21154467.9954  -15492769.11447 -11988397.68762
  22768947.808    -4962600.851 6  -3806864.17421
  23719781.5974   -2187413.03645  -1628210.33061
  20850247.761    -1136547.443 7   -866466.48123
  22918156.714    -6936782.701 5  -5259412.21221
 91  3 28 23  9 59.9990000  0  6G18G 2G11G16G19G 6
  22526837.3944   10287980.67446   8008107.86861
  21149369.5814  -15519564.51047 -12009277.15762
  22771814.4804   -4947538.96546  -3795127.64861
  23720670.0894   -2182762.67445  -1624586.73461
  20851582.9014   -1129541.00647   -861006.92863
  22911164.769    -6973522.060 5  -5288040.14421
 91  3 28 23 10 14.9990000  0  6G18G 2G11G16G19G 6
  22535268.7764   10332283.67146   8042629.56061
  21144284.1904  -15546280.67147 -12030094.88762
  22774708.3554   -4932329.18546  -3783275.88361
  23721575.6364   -2177991.91345  -1620869.32861
  20852927.620    -1122469.695 7   -855496.82823
  22904175.2454   -7010255.11545  -5316663.17661
 91  3 28 23 10 29.9990000  0  6G18G 2G11G16G19G 6
  22543709.417    10376647.224 6   8077198.42821
  21139216.151   -15572920.454 7 -12050853.10722
  22777631.7374   -4916974.61546  -3771311.29661
  23722507.4254   -2173103.68145  -1617060.40161
  20854284.956    -1115336.307 7   -849938.36023
  22897184.9724   -7046984.69045  -5345283.49561
 91  3 28 23 10 44.9990000  0  6G18G 2G11G16G19G 6
  22552163.9254   10421074.20246   8111816.72661
  21134161.651   -15599480.873 7 -12071549.48422
  22780579.3234   -4901472.26846  -3759231.54361
  23723458.784    -2168095.452 5  -1613157.96121
  20855654.1834   -1108137.54747   -844328.94563
  22890196.433    -7083707.766 5  -5373898.75121
 91  3 28 23 10 59.9990000  0  6G18G 2G11G16G19G 6
  22560632.5974   10465567.80546   8146486.93461
  21129121.839   -15625958.235 7 -12092181.14622
  22783559.6124   -4885818.63146  -3747033.91561
  23724437.605    -2162963.490 5  -1609159.10221
  20857038.089    -1100869.618 7   -838665.63323
  22883209.190    -7120420.438 5  -5402505.88421
 91  3 28 23 11 14.9990000  0  6G18G 2G11G16G19G 6
  22569108.628    10510120.617 6   8181203.28321
  21124099.159   -15652359.819 7 -12112753.75622
  22786565.4644   -4870021.15046  -3734724.19861
  23725434.159    -2157715.377 5  -1605069.74421
  20858432.6364   -1093539.75247   -832954.05663
  22876224.3314   -7157130.09345  -5431110.68761
 91  3 28 23 11 29.9990000  0  6G18G 2G11G16G19G 6
  22577596.784    10554729.209 6   8215963.08721
  21119087.5974  -15678688.81447 -12133269.81562
  22789597.8554   -4854083.22246  -3722305.04761
  23726450.6984   -2152354.53745  -1600892.54961
  20859840.5734   -1086151.01347   -827196.60763
  22869238.862    -7193839.808 5  -5459715.53021
 91  3 28 23 11 44.9990000  0  6G18G 2G11G16G19G 6
  22586097.620    10599396.163 6   8250768.37621
  21114091.862   -15704942.576 7 -12153727.24522
  22792658.5424   -4838002.27046  -3709774.44861
  23727497.839    -2146878.265 5  -1596625.39021
  20861256.9954   -1078700.76547   -821391.22663
  22862253.6674   -7230546.86245  -5488318.30961
 91  3 28 23 11 59.9990000  0  6G18G 2G11G16G19G 6
  22594608.3084   10644117.45746   8285616.00961
  21109109.7304  -15731124.61547 -12174128.79262
  22795744.933    -4821782.002 6  -3697135.29121
  23728557.4174   -2141290.40145  -1592271.28861
  20862686.4484   -1071192.12147   -815540.34263
  22855267.8234   -7267254.63745  -5516921.64061
 91  3 28 23 12 14.9990000  0  6G18G 2G11G16G19G 6
  22603128.870    10688896.045 6   8320508.26921
  21104142.808   -15757231.998 7 -12194472.16522
  22798858.378    -4805419.734 6  -3684385.49021
  23729646.823    -2135588.257 5  -1587828.12021
  20864125.3314   -1063622.06847   -809641.60462
  22848283.7534   -7303960.31945  -5545523.34561
 91  3 28 23 12 29.9990000  0  6G18G 2G11G16G19G 6
  22611662.487    10733735.110 6   8355447.67021
  21099189.011   -15783261.332 7 -12214754.71722
  22801999.3624   -4788912.13346  -3671522.43461
  23730751.6594   -2129768.40845  -1583293.27061
  20865580.1514   -1055987.05447   -803692.25463
  22841298.511    -7340660.240 5  -5574120.55421
 91  3 28 23 12 44.9990000  0  6G18G 2G11G16G19G 6
  22620207.1754   10778637.35746   8390436.28661
  21094250.8784  -15809209.38747 -12234973.94262
  22805169.2144   -4772256.19346  -3658543.79261
  23731880.058    -2123828.010 5  -1578664.46121
  20867044.1364   -1048283.98947   -797689.86962
  22834316.8554   -7377351.39146  -5602710.93761
 91  3 28 23 12 59.9990000  0  6G18G 2G11G16G19G 6
  22628763.308    10823602.725 6   8425474.09821
  21089328.9954  -15835075.96647 -12255129.67762
  22808366.956    -4755451.716 6  -3645449.40421
  23733035.472    -2117767.228 5  -1573941.86221
  20868526.8084   -1040512.39346   -791634.08563
  22827336.0114   -7414033.24646  -5631294.08761
 91  3 28 23 13 14.9990000  0  6G18G 2G11G16G19G 6
  22637331.6754   10868625.77946   8460556.86861
  21084421.4174  -15860866.34647 -12275226.03862
  22811593.175    -4738504.260 6  -3632243.60521
  23734208.753    -2111591.491 5  -1569129.67121
  20870014.0504   -1032677.56347   -785529.02662
  22820356.276    -7450711.154 6  -5659874.13821
 91  3 28 23 13 29.9990000  0  6G18G 2G11G16G19G 6
  22645909.995    10913698.660 6   8495678.46121
  21079525.370   -15886587.893 7 -12295268.76322
  22814843.159    -4721421.298 6  -3618932.22221
  23735406.995    -2105308.007 5  -1564233.54321
  20871517.1444   -1024786.76147   -779380.34563
  22813378.6754   -7487392.49346  -5688456.88061
 91  3 28 23 13 44.9990000  0  5G18G 2G11G19G 6
  22654497.980    10958829.749 6   8530845.39921
  21074646.917   -15912232.327 7 -12315251.39422
  22818120.7614   -4704194.59846  -3605508.82361
  20873029.6054   -1016831.40647   -773181.36763
  22806398.9644   -7524068.72246  -5717035.63661
 91  3 28 23 13 59.9990000  0  6G18G 2G11G16G19G 6
  22663097.190    11004016.495 6   8566055.71521
  21069780.1754  -15937801.78847 -12335175.60762
  22821425.8234   -4686826.76046  -3591975.45561
  23737860.5814         -0.23455
  20874555.7224   -1008813.69747   -766933.80563
  22799419.7764   -7560742.05246  -5745612.13861
 91  3 28 23 14 14.9980000  0  6G18G 2G11G16G19G 6
  22671703.2484   11049250.41646   8601302.78661
  21064927.897   -15963299.933 7 -12355044.25322
  22824756.131    -4669324.421 6  -3578337.27921
  23739125.5224       6619.44045
  20876092.1704   -1000739.42347   -760642.16263
  22792441.2954   -7597415.33146  -5774188.58261
 91  3 28 23 14 29.9980000  0  6G18G 2G11G16G19G 6
  22680323.350    11094545.289 6   8636597.35021
  21060090.842   -15988722.047 7 -12374853.65322
  22828114.818    -4651677.130 6  -3564586.15921
  23740405.037       13355.079 5        -0.49031
  20877643.6074    -992599.14647   -754299.09263
  22785463.037    -7634085.230 6  -5802762.40821
 91  3 28 23 14 44.9980000  0  6G18G 2G11G16G19G 6
  22688953.248    11139891.457 6   8671931.88321
  21055266.3264  -16014072.62247 -12394607.30562
  22831498.764    -4633892.472 6  -3550728.00621
  23741707.404       20199.938 5      5333.09521
  20879201.4904    -984399.66947   -747909.89163
  22778486.529    -7670755.511 6  -5831336.52421
 91  3 28 23 14 59.9980000  0  6G18G 2G11G16G19G 6
  22697593.459    11185295.856 6   8707311.79021
  21050457.6704  -16039344.72547 -12414299.81262
  22834911.404    -4615963.810 6  -3536757.62521
  23743033.959       27160.890 5     10757.14121
  20880774.1234    -976133.66247   -741468.84963
  22771508.318    -7707419.059 6  -5859905.40421
 91  3 28 23 15 14.9980000  0  6G18G 2G11G16G19G 6
  22706243.943    11230751.946 6   8742731.98421
  21045662.279   -16064544.639 7 -12433936.06722
  22838349.1624   -4597897.49946  -3522680.01161
  23744377.8894      34231.47745     16266.58061
  20882359.0294    -967807.43947   -734980.88063
  22764530.2094   -7744082.21146  -5888473.96661
 91  3 28 23 15 29.9980000  0  6G18G 2G11G16G19G 6
  22714902.561    11276257.751 6   8778190.90921
  21040879.647   -16089674.107 7 -12453517.43022
  22841812.365    -4579695.357 6  -3508496.54421
  23745744.6394      41409.79645     21860.02361
  20883954.0294    -959422.41347   -728447.10163
  22757553.975    -7780746.467 6  -5917043.37921
 91  3 28 23 15 44.9980000  0  6G18G 2G11G16G19G 6
  22723571.818    11321816.621 6   8813691.18421
  21036112.3424  -16114729.33047 -12473040.94062
  22845304.443    -4561353.858 6  -3494204.49021
  23747129.8114      48699.38945
  20885562.6314    -950974.97047   -721864.68063
  22750578.4364   -7817408.16146  -5945610.81161
 91  3 28 23 15 59.9980000  0  5G18G 2G11G19G 6
  22732250.3574   11367424.94246   8849229.99561
  21031358.061   -16139714.032 7 -12492509.49722
  22848818.475    -4542876.913 6  -3479806.88421
  20887183.7254    -942468.77747   -715236.48663
  22743601.5224   -7854070.91346  -5974179.07361
 91  3 28 23 16 14.9980000  0  6G18G 2G11G16G19G 6
  22740939.264    11413077.447 6   8884803.24021
  21026615.717   -16164632.783 7 -12511926.66122
  22852359.873    -4524269.091 6  -3465307.30021
  23749966.467        7498.176 5
  20888809.7484    -933907.96247   -708565.71962
  22736622.561    -7890739.138 6  -6002751.58321
 91  3 28 23 16 29.9980000  0  6G18G 2G11G16G19G 6
  22749635.3894   11458774.58646   8920411.25061
  21021886.123   -16189485.243 7 -12531292.16522
  22855925.897    -4505530.316 6  -3450705.67721
  23751414.256       15100.205 5
  20890452.5144    -925292.01647   -701852.00463
  22729645.303    -7927412.319 6  -6031327.97221
 91  3 28 23 16 44.9980000  0  6G18G 2G11G16G19G 6
  22758339.803    11504516.987 6   8956054.53321
  21017169.568   -16214270.285 7 -12550605.14222
  22859517.537    -4486659.853 6  -3436001.44021
  23752879.686       22805.665 5        -0.13331
  20892098.9124    -916620.04947   -695094.63163
  22722664.2644   -7964089.51846  -6059907.49261
 91  3 28 23 16 59.9980000  0  6G18G 2G11G16G19G 6
  22767053.1704   11550300.22346   8991729.63961
  21012465.381   -16238992.208 7 -12569868.93222
  22863131.975    -4467662.139 6  -3421198.04421
  23754369.8424      30609.99545      6081.06961
  20893763.7484    -907896.20846   -688296.83763
  22715683.5294   -8000774.93446  -6088493.40561
 91  3 28 23 17 14.9980000  0  6G18G 2G11G16G19G 6
  22775774.318    11596134.437 6   9027444.46221
  21007774.912   -16263640.727 7 -12589075.51822
  22866773.834    -4448526.883 6  -3406287.47721
  23755868.732       38523.408 5     12247.27721
  20895431.5224    -899109.85647   -681450.33763
  22708702.1314   -8037457.88046  -6117077.39461
 91  3 28 23 17 29.9980000  0  6G18G 2G11G16G19G 6
  22784506.1154   11642021.02346   9063200.09061
  21003099.357   -16288213.985 7 -12608223.45922
  22870440.592    -4429252.482 6  -3391268.48421
  23757398.2404      46547.84745     18500.00461
  20897120.0764    -890258.82746   -674553.43763
  22701722.326    -8074136.696 6  -6145658.17521
 91  3 28 23 17 44.9980000  0  6G18G 2G11G16G19G 6
  22793246.803    11687951.258 6   9098989.73821
  20998435.256   -16312720.509 7 -12627319.40722
  22874133.748    -4409847.554 6  -3376147.78421
  23758944.389       54674.465 5     24832.35621
  20898810.8574    -881351.73547   -667612.85763
  22694743.186    -8110819.754 6  -6174242.25621
 91  3 28 23 17 59.9980000  0  6G18G 2G11G16G19G 6
  22801996.514    11733928.250 6   9134815.80521
  20993785.732   -16337157.158 7 -12646360.90422
  22877851.475    -4390309.128 6  -3360923.05721
  23760507.514       62906.265 5     31246.67221
  20900519.1864    -872385.28846   -660626.03163
  22687761.350    -8147503.672 6  -6202827.01221
 91  3 28 23 18 14.9980000  0  6G18G 2G11G16G19G 6
  22810754.467    11779953.637 6   9170679.58421
  20989148.920   -16361521.850 7 -12665346.33122
  22881596.193    -4370635.429 6  -3345592.92421
  23762100.4674      71244.80645     37744.14461
  20902235.4824    -863357.56647   -653591.44363
  22680779.5614   -8184186.54746  -6231410.95661
 91  3 28 23 18 29.9980000  0  6G18G 2G11G16G19G 6
  22819520.3344   11826020.98646   9206576.06661
  20984524.795   -16385820.796 7 -12684280.52323
  22885363.498    -4350832.843 6  -3330162.35821
  23763705.3034      79683.82345     44319.90861
  20903960.9434    -854274.53247   -646513.76663
  22673798.7174   -8220874.51146  -6259998.85561
 91  3 28 23 18 44.9980000  0  6G18G 2G11G16G19G 6
  22828295.9824   11872134.47746   9242508.50061
  20979914.397   -16410049.448 7 -12703159.94123
  22889158.240    -4330896.845 6  -3314627.83821
  23765330.0294      88227.99945     50977.65561
  20905702.8734    -845131.29547   -639389.16963
  22666816.5614   -8257562.75746  -6288587.00761
 91  3 28 23 18 59.9980000  0  6G18G 2G11G16G19G 6
  22837079.7724   11918296.70646   9278478.91261
  20975316.811   -16434205.376 7 -12721982.68922
  22892978.584    -4310825.238 6  -3298987.64921
  23766975.5764      96879.13045     57718.70061
  20907455.4364    -835925.28747   -632215.66563
  22659836.709    -8294248.845 6  -6317173.45121
 91  3 28 23 19 14.9980000  0  6G18G 2G11G16G19G 6
  22845872.7254   11964500.67246   9314481.84561
  20970732.717   -16458295.256 7 -12740753.97323
  22896820.936    -4290624.801 6  -3283247.07221
  23768638.295      105630.516 5     64537.89521
  20909217.5374    -826662.96347   -624998.28162
  22652854.178    -8330939.145 6  -6345763.19021
 91  3 28 23 19 29.9980000  0  6G18G 2G11G16G19G 6
  22854672.1704   12010747.14346   9350517.90461
  20966161.732   -16482318.115 7 -12759473.02823
  22900688.975    -4270294.621 6  -3267405.39421
  23770329.1704     114483.24745     71436.05761
  20910994.0534    -817343.17346   -617736.11963
  22645871.123    -8367632.615 6  -6374355.40521
 91  3 28 23 19 44.9980000  0  6G18G 2G11G16G19G 6
  22863481.740    12057034.497 6   9386585.80521
  20961602.576   -16506274.949 7 -12778140.63923
  22904582.670    -4249836.147 6  -3251463.74421
  23772031.2484     123435.45245     78411.70661
  20912775.3504    -807967.14947   -610430.13763
  22638888.076    -8404330.462 6  -6402951.01921
 91  3 28 23 19 59.9980000  0  6G18G 2G11G16G19G 6
  22872297.5454   12103363.79546   9422686.40261
  20957057.201   -16530164.429 7 -12796755.76923
  22908500.959    -4229248.135 6  -3235421.16021
  23773749.998      132488.810 5     85466.17921
  20914574.5224    -798533.39547   -603079.16962
  22631903.717    -8441031.059 6  -6431548.78421
 91  3 28 23 20 14.9980000  0  6G18G 2G11G16G19G 6
  22881123.264    12149740.645 6   9458824.04221
  20952524.311   -16553980.930 7 -12815314.02723
  22912445.678    -4208525.291 6  -3219273.51121
  23775496.8974     141648.44945     92603.47061
  20916377.6624    -789036.21247   -595678.77462
  22624921.2954   -8477728.96946  -6460144.45761
 91  3 28 23 20 29.9980000  0  6G18G 2G11G16G19G 6
  22889958.639    12196167.354 6   9495000.53821
  20948007.232   -16577721.754 7 -12833813.31723
  22916413.865    -4187665.099 6  -3203018.84521
  23777258.9204     150916.67944     99825.36861
  20918200.7014    -779472.76747   -588226.74862
  22617937.389    -8514421.228 6  -6488735.72221
 91  3 28 23 20 44.9980000  0  6G18G 2G11G16G19G 6
  22898800.303    12242628.281 6   9531203.69821
  20943500.318   -16601402.410 7 -12852265.72323
  22920406.123    -4166683.181 6  -3186669.32421
  23779035.5294     160277.81344    107119.69461
  20920027.2254    -769858.40247   -580735.04362
  22610953.037    -8551123.263 6  -6517334.60121
 91  3 28 23 20 59.9980000  0  6G18G 2G11G16G19G 6
  22907648.826    12289129.885 6   9567438.54521
  20939007.006   -16625016.081 7 -12870665.93323
  22924423.537    -4145572.906 6  -3170219.78121
  23780846.748      169738.739 4    114491.75021
  20921868.9124    -760186.18047   -573198.25363
  22603969.873    -8587828.194 6  -6545935.73021
 91  3 28 23 21 14.9980000  0  6G18G 2G11G16G19G 6
  22916505.936    12335674.380 6   9603706.82121
  20934526.514   -16648560.386 7 -12889012.09023
  22928466.498    -4124332.030 6  -3153668.47721
  23782653.732      179301.584 4    121943.21721
  20923721.4364    -750453.47647   -565614.33863
  22596984.4824   -8624533.54146  -6574537.20861
 91  3 28 23 21 29.9980000  0  6G18G 2G11G16G19G 6
  22925368.811    12382254.223 6   9640002.64521
  20930058.389   -16672042.758 7 -12907309.99523
  22932530.576    -4102968.315 6  -3137021.44721
  23784499.811      188958.570 4    129468.05221
  20925585.6934    -740667.82046   -557989.15963
  22589997.162    -8661246.654 6  -6603144.72121
 91  3 28 23 21 44.9980000  0  6G18G 2G11G16G19G 6
  22934240.0294   12428870.02346   9676326.46761
  20925601.717   -16695462.556 7 -12925559.12923
  22936619.818    -4081481.112 6  -3120278.19121
  23786348.4204     198710.15544
  20927455.5374    -730827.95747
  22583008.365    -8697966.575 6  -6631757.54521
 91  3 28 23 21 59.9980000  0  6G18G 2G11G16G19G 6
  22943120.8264   12475532.31346   9712686.53661
  20921158.553   -16718808.504 7 -12943750.73223
  22940735.014    -4059859.399 6  -3103430.12421
  23788223.967      208567.373 4
  20929340.3424    -720922.72047
  22576022.6864   -8734682.11246  -6660366.95061
 91  3 28 23 22 14.9980000  0  6G18G 2G11G16G19G 6
  22952007.3574   12522232.94546   9749076.47961
  20916728.154   -16742088.414 7 -12961890.87323
  22944872.498    -4038111.277 6  -3086483.55321
  23790124.6474     218522.37244
  20931235.6544    -710960.00147
  22569035.2564   -8771401.13946  -6688979.07861
 91  3 28 23 22 29.9980000  0  6G18G 2G11G16G19G 6
  22960901.7324   12568978.33046   9785501.28561
  20912312.311   -16765295.941 7 -12979974.61323
  22949036.600    -4016230.550 6  -3069433.66121
  23792031.592      228581.347 4
  20933145.0684    -700933.13047
  22562048.6074   -8808117.00746  -6717588.74561
 91  3 28 23 22 44.9980000  0  6G18G 2G11G16G19G 6
  22969802.311    12615753.116 6   9821949.01321
  20907907.451   -16788446.023 7 -12998013.59623
  22953222.193    -3994232.342 6  -3052292.21721
  23793973.053      238728.938 4
  20935060.6784    -690856.98447
  22555060.045    -8844844.611 6  -6746207.55721
 91  3 28 23 22 59.9980000  0  6G18G 2G11G16G19G 6
  22978712.178    12662571.136 6   9858430.42121
  20903515.264   -16811524.671 7 -13015996.90923
  22957434.092    -3972102.845 6  -3035048.48221
  23795920.193      248979.038 4    176237.68521
  20936992.2014    -680717.57447   -511274.73262
  22548069.998    -8881569.891 6  -6774824.55021
 91  3 28 23 23 14.9980000  0  5G18G 2G11G19G 6
  22987630.904    12709433.280 6   9894946.21821
  20899137.3114  -16834530.69147 -13033923.64063
  22961671.092    -3949841.006 6  -3017701.62121
  20938931.9594    -670513.45847   -503323.48262
  22541083.0614   -8918291.37446  -6803438.60361
 91  3 28 23 23 29.9980000  0  5G18G 2G11G19G 6
  22996556.334    12756338.949 6   9931495.92321
  20894773.170   -16857464.761 7 -13051794.30123
  22965930.818    -3927447.798 6  -3000252.38621
  20940887.3974    -660245.22347   -495322.26862
  22534096.2874   -8955009.86046  -6832050.31561
 91  3 28 23 23 44.9980000  0  5G18G 2G11G19G 6
  23005489.5764   12803284.08146   9968076.38761
  20890421.381   -16880330.746 7 -13069611.90823
  22970218.2404   -3904927.27446  -2982703.95961
  20942852.2014    -649916.53647   -487273.94762
  22527108.3504   -8991729.11746  -6860662.62661
 91  3 28 23 23 59.9980000  0  5G18G 2G11G19G 6
  23014431.998    12850269.206 6  10004688.00321
  20886082.9044  -16903127.62647 -13087375.66963
  22974526.381    -3882278.602 6  -2965055.66721
  20944830.4824    -639526.34447   -479177.70162
  22520119.0684   -9028447.87646  -6889274.54761
 91  3 28 23 24 14.9980000  0  5G18G 2G11G19G 6
  23023380.022    12897286.769 6  10041324.90021
  20881757.5454  -16925862.56747 -13105091.17163
  22978859.904    -3859509.161 6  -2947313.27121
  20946816.4044    -629081.66747   -471039.00062
  22513132.0064   -9065173.29846  -6917891.66161
 91  3 28 23 24 29.9980000  0  5G18G 2G11G19G 6
  23032333.318    12944347.767 6  10077995.63521
  20877444.3814  -16948524.26047 -13122749.59863
  22983219.443    -3836607.870 6  -2929468.13121
  20948818.686     -618571.026 7   -462848.90323
  22506144.4044   -9101894.03246  -6946505.12761
 91  3 28 23 24 44.9980000  0  5G18G 2G11G19G 6
  23041294.943    12991446.437 6  10114695.73421
  20873145.2014  -16971118.60647 -13140355.54463
  22987600.3734   -3813580.66546  -2911524.88561
  20950828.0224    -608000.06347   -454611.79863
  22499157.1704   -9138615.52146  -6975119.17761
 91  3 28 23 24 59.9980000  0  5G18G 2G11G19G 6
  23050265.8264   13038586.45446  10151428.04661
  20868859.3264  -16993641.45447 -13157905.77563
  22992007.100    -3790423.706 6  -2893480.52621
  20952852.342     -597364.577 7   -446324.41723
  22492168.1474   -9175333.70646  -7003730.65761
 91  3 28 23 25 14.9980000  0  5G18G 2G11G19G 6
  23059244.037    13085765.485 6  10188190.76721
  20864586.7404  -17016094.95347 -13175401.97163
  22996437.178    -3767139.353 6  -2875336.89221
  20954887.7014    -586666.53247   -437988.28862
  22485180.7644   -9212050.79646  -7032341.28261
 91  3 28 23 25 29.9980000  0  5G18G 2G11G19G 6
  23068231.272    13132986.289 6  10224986.03521
  20860327.2644  -17038476.42047 -13192842.03663
  23000892.326    -3743724.965 6  -2857091.94321
  20956938.8034    -575903.17747   -429601.26962
  22478196.6234   -9248763.57246  -7060948.55461
 91  3 28 23 25 44.9980000  0  5G18G 2G11G19G 6
  23077227.3114   13180255.61946  10261819.11261
  20856083.9984  -17060778.69647 -13210220.40163
  23005373.514    -3720173.707 6  -2838740.33721
  20958998.4984    -565067.17947   -421157.64563
  22471211.006    -9285465.122 6  -7089547.07221
 91  3 28 23 25 59.9980000  0  5G18G 2G11G19G 6
  23086230.068    13227569.281 6  10298686.73021
  20851853.9434  -17083005.29947 -13227539.79263
  23009882.717    -3696489.523 6  -2820285.15521
  20961074.154     -554162.096 7   -412660.19322
  22464229.3814   -9322159.03546  -7118139.64261
 91  3 28 23 26 14.9980000  0  5G18G 2G11G19G 6
  23095241.3814   13274921.68346  10335584.53861
  20847637.0144  -17105161.80147 -13244804.56963
  23014413.8894   -3672677.96146  -2801730.72061
  20963160.740     -543193.337 7   -404113.12222
  22457246.5764   -9358850.40546  -7146730.22661
 91  3 28 23 26 29.9980000  0  5G18G 2G11G19G 6
  23104258.678    13322311.694 6  10372511.64321
  20843434.9904  -17127249.07747 -13262015.39263
  23018967.8114   -3648740.26846  -2783078.00561
  20965260.6624    -532161.67947   -395517.03763
  22450264.5764   -9395540.21346  -7175319.59861
 91  3 28 23 26 44.9980000  0  5G18G 2G11G19G 6
  23113287.436    13369747.749 6  10409474.63621
  20839246.3184  -17149258.87547 -13279165.84963
  23023549.045    -3624668.100 6  -2764320.50421
  20967372.975     -521058.509 7   -386865.22923
  22443283.1004   -9432219.94446  -7203901.11761
 91  3 28 23 26 59.9980000  0  5G18G 2G11G19G 6
  23122319.998    13417225.484 6  10446470.10321
  20835072.9284  -17171194.90447 -13296258.81863
  23028154.522    -3600465.419 6  -2745461.30421
  20969500.5294    -509887.52047   -378160.57163
  22436306.4204   -9468893.03946  -7232477.45561
 91  3 28 23 27 14.9980000  0  5G18G 2G11G19G 6
  23131363.943    13464746.914 6  10483499.62321
  20830911.1314  -17193054.93347 -13313292.57763
  23032785.4284   -3576130.30046  -2726498.90361
  20971637.6474    -498646.25747   -369401.15563
  22429328.7724   -9505557.39846  -7261046.99461
 91  3 28 23 27 29.9980000  0  5G18G 2G11G19G 6
  23140413.2014   13512298.39246  10520552.54361
  20826764.9824  -17214852.48747 -13330277.64763
  23037439.8184   -3551676.50846  -2707444.03161
  20973788.045     -487348.160 7   -360597.45622
  22422351.3894   -9542226.28746  -7289620.06161
 91  3 28 23 27 44.9980000  0  5G18G 2G11G19G 6
  23149468.8114   13559887.19646  10557634.55661
  20822629.3974  -17236580.12647 -13347208.23763
  23042117.2644   -3527096.77046  -2688291.01961
  20975950.7954    -475985.70947   -351743.61163
  22415371.7724   -9578892.25446  -7318190.84961
 91  3 28 23 27 59.9980000  0  5G18G 2G11G19G 6
  23158530.467    13607507.324 6  10594740.97921
  20818506.850   -17258243.485 7 -13364088.73523
  23046817.1544   -3502397.01646  -2669044.48661
  20978122.467     -464564.474 7   -342843.96123
  22408395.9984   -9615560.82246  -7346763.66361
 91  3 28 23 28 14.9980000  0  5G18G 2G11G19G 6
  23167596.1234   13655153.71145  10631867.86761
  20814395.3184  -17279847.33747 -13380922.86963
  23051538.9284   -3477582.11146  -2649708.22761
  20980307.561     -453088.889 7   -333901.95723
  22401416.9434   -9652236.53646  -7375342.05261
 91  3 28 23 28 29.9980000  0  5G18G 2G11G19G 6
  23176670.4754   13702832.70045  10669020.14161
  20810298.3184  -17301385.18047 -13397705.56763
  23056284.1544   -3452645.79146  -2630277.36761
  20982504.0844    -441552.51947   -324912.59063
  22394437.7874   -9688912.77146  -7403920.83961
 91  3 28 23 28 44.9980000  0  5G18G 2G11G19G 6
  23185750.1234   13750541.92845  10706195.99161
  20806210.3184  -17322858.96447 -13414438.35063
  23061051.967    -3427590.350 6  -2610753.67321
  20984708.615     -429957.125 7   -315877.23022
  22387457.7874   -9725591.48946  -7432501.57361
 91  3 28 23 28 59.9980000  0  5G18G 2G11G19G 6
  23194833.3974   13798278.71545  10743393.30161
  20802136.6704  -17344271.31547 -13431123.26763
  23065841.0374   -3402418.52846  -2591139.30261
  20986928.2404    -418305.18746   -306797.81163
  22380477.522    -9762275.154 6  -7461086.15121
 91  3 28 23 29 14.9980000  0  5G18G 2G11G19G 6
  23203925.3344   13846053.90845  10780620.54961
  20798075.4754  -17365611.20047 -13447751.70663
  23070657.1004   -3377119.47046  -2571425.78361
  20989155.9044    -406585.56947   -297665.65162
  22373496.4984   -9798952.53146  -7489665.84161
 91  3 28 23 29 29.9980000  0  5G18G 2G11G19G 6
  23213023.2094   13893869.26745  10817879.08261
  20794028.5144  -17386876.57347 -13464322.09563
  23075493.9514   -3351691.31646  -2551611.66661
  20991403.1394    -394796.03946   -288479.01562
  22366518.9904   -9835621.53946  -7518238.99861
 91  3 28 23 29 44.9980000  0  5G18G 2G11G19G 6
  23222129.7404   13941719.05545  10855164.44561
  20789995.3424  -17408072.62147 -13480838.45963
  23080358.8734   -3326139.69746  -2531701.35261
  20993654.654     -382941.860 7   -279242.00922
  22359541.8424   -9872287.37446  -7546809.69261
 91  3 28 23 29 59.9980000  0  5G18G 2G11G19G 6
  23231240.404    13989600.067 5  10892474.15021
  20785974.7174  -17429202.63647 -13497303.37463
  23085242.9674   -3300467.97046  -2511697.44561
  20995925.693     -371025.942 6   -269956.89422
  22352564.5294   -9908953.08346  -7575380.28161
 91  3 28 23 30 14.9980000  0  5G18G 2G11G19G 6
  23240360.1624   14037521.95345  10929815.71161
  20781968.0144  -17450256.86847 -13513709.22763
  23090151.9364   -3274666.49446  -2491592.42661
  20998204.576     -359038.427 7   -260615.98822
  22345588.9514   -9945608.58346  -7603942.91261
 91  3 28 23 30 29.9980000  0  5G18G 2G11G19G 6
  23249485.9904   14085476.86145  10967182.97661
  20777973.3574  -17471242.76647 -13530061.84163
  23095085.2174   -3248743.11446  -2471392.42561
  21000499.873     -346986.809 6   -251225.13123
  22338614.5294   -9982261.40646  -7632503.46761
 91  3 28 23 30 44.9980000  0  5G18G 2G11G19G 6
  23258618.2724   14133459.78045  11004572.08061
  20773993.4044  -17492165.27347 -13546365.04963
  23100041.8424   -3222702.68846  -2451101.21361
  21002801.498     -334875.743 7   -241787.94822
  22331638.1004  -10018916.19146  -7661065.54161
 91  3 28 23 30 59.9980000  0  5G18G 2G11G19G 6
  23267753.912    14181469.450 5  11041982.01721
  20770022.9364  -17513025.02247 -13562619.36463
  23105018.8734   -3196546.42646  -2430719.74361
  21005116.225     -322705.777 7   -232304.87322
  22324664.107   -10055573.671 6  -7689629.73021
 91  3 28 23 31 14.9980000  0  5G18G 2G11G19G 6
  23276897.1864   14229517.53145  11079421.89861
  20766067.7954  -17533810.03347 -13578815.43263
  23110019.6394   -3170262.51346  -2410238.80861
  21007447.850     -310465.038 6   -222766.65022
  22317689.928   -10092221.831 6  -7718186.63421
 91  3 28 23 31 29.9980000  0  5G18G 2G11G19G 6
  23286044.357    14277592.076 5  11116882.37921
  20762125.1864  -17554532.24247 -13594962.56763
  23115044.8654   -3143863.01946  -2389667.80561
  21009787.701     -298165.133 6   -213182.32322
  22310715.0764  -10128872.09746  -7746745.19361
 91  3 28 23 31 44.9980000  0  5G18G 2G11G19G 6
  23295200.248    14325706.999 5  11154374.34821
  20758195.904   -17575177.721 7 -13611049.91223
  23120092.670    -3117334.205 6  -2368996.02521
  21012143.326     -285791.800 6   -203540.78222
  22303743.3814  -10165510.49946  -7775294.50561
 91  3 28 23 31 59.9980000  0  5G18G 2G11G19G 6
  23304361.420    14373851.032 5  11191888.98121
  20754279.3424  -17595757.45047 -13627086.02563
  23125163.5224   -3090687.29346  -2348232.23061
  21014511.881     -273356.183 6   -193850.70622
  22296771.6314  -10202148.01046  -7803843.11661
 91  3 28 23 32 14.9980000  0  5G18G 2G11G19G 6
  23313529.748    14422024.707 5  11229426.72021
  20750376.061   -17616270.594 7 -13643070.24923
  23130256.373    -3063921.665 6  -2327375.92821
  21016887.967     -260857.155 6   -184111.21422
  22289799.9044  -10238783.49546  -7832390.15461
 91  3 28 23 32 29.9980000  0  5G18G 2G11G19G 6
  23322704.076    14470230.836 5  11266989.73721
  20746485.568   -17636713.908 7 -13659000.06023
  23135373.5534   -3037034.28746  -2306424.75961
  21019281.311     -248291.322 6   -174319.67222
  22282829.8264  -10275413.66946  -7860933.04761
 91  3 28 23 32 44.9980000  0  5G18G 2G11G19G 6
  23331887.0924   14518476.13845  11304583.29361
  20742609.889   -17657080.589 7 -13674870.16123
  23140513.5764   -3010018.61146  -2285373.61061
  21021683.990     -235651.813 6   -164470.72022
  22275860.3974  -10312031.77746  -7889466.54561
 91  3 28 23 32 59.9980000  0  5G18G 2G11G19G 6
  23341072.037    14566750.319 5  11342199.34221
  20738746.881   -17677380.743 7 -13690688.41323
  23145677.1474   -2982884.91046  -2264230.50061
  21024103.3814    -222948.65946   -154572.16762
  22268892.3184  -10348647.44846  -7917998.14461
 91  3 28 23 33 14.9980000  0  5G18G 2G11G19G 6
  23350261.240    14615054.679 5  11379838.90621
  20734896.795   -17697612.837 7 -13706453.63223
  23150863.5684   -2955632.06146  -2242994.54361
  21026531.553     -210180.065 7   -144622.62522
  22261926.1314  -10385259.28246  -7946526.74861
 91  3 28 23 33 29.9980000  0  5G18G 2G11G19G 6
  23359459.561    14663382.655 5  11417496.88421
  20731058.584   -17717782.983 7 -13722170.58423
  23156071.1784   -2928266.40546  -2221670.68961
  21028972.8504    -197352.12647   -134626.84163
  22254959.0534  -10421873.18146  -7975056.97261
 91  3 28 23 33 44.9980000  0  5G18G 2G11G19G 6
  23368663.826    14711747.421 5  11455183.50221
  20727234.990   -17737877.951 7 -13737828.95723
  23161302.6784   -2900774.85546  -2200248.73361
  21031426.4674    -184451.48947   -124574.40562
  22247993.600   -10458475.792 6  -8003578.38521
 91  3 28 23 33 59.9980000  0  5G18G 2G11G19G 6
  23377874.311    14760143.854 5  11492894.81521
  20723423.170   -17757902.668 7 -13753432.58523
  23166556.365    -2873162.528 6  -2178732.66721
  21033898.3424    -171482.95446   -114469.05862
  22241029.0224  -10495071.81446  -8032094.67061
 91  3 28 23 34 14.9980000  0  5G18G 2G11G19G 6
  23387090.9204   14808577.11345  11530634.82461
  20719628.147   -17777851.847 7 -13768977.35523
  23171834.1544   -2845424.40246  -2157118.57961
  21036376.3574    -158441.05847   -104306.55662
  22234067.8504  -10531655.80646  -8060601.58361
 91  3 28 23 34 29.9980000  0  5G18G 2G11G19G 6
  23396311.3264   14857037.97845  11568396.33261
  20715843.600   -17797734.295 7 -13784470.12823
  23177136.0374   -2817569.43946  -2135413.44361
  21038871.2094    -145334.39947    -94093.58962
  22227105.8654  -10568236.48046  -8089105.91061
 91  3 28 23 34 44.9980000  0  5G18G 2G11G19G 6
  23405539.5294   14905521.09945  11606175.17561
  20712073.178   -17817555.065 7 -13799914.84123
  23182457.3574   -2789602.81246  -2113621.30161
  21041375.5144    -132167.75447    -83833.88163
  22220144.006   -10604818.651 6  -8117611.40621
 91  3 28 23 34 59.9980000  0  5G18G 2G11G19G 6
  23414770.326    14954032.468 5  11643976.06721
  20708312.217   -17837308.238 7 -13815306.88023
  23187801.3734   -2761518.93346  -2091737.79661
  21043895.7794    -118935.30347    -73522.88762
  22213183.5924  -10641396.29446  -8146113.37461
 91  3 28 23 35 14.9980000  0  5G18G 2G11G19G 6
  23424008.779    15002573.535 5  11681800.06621
  20704567.928   -17856992.000 7 -13830644.83423
  23193168.4904   -2733316.33746  -2069761.78161
  21046425.4594    -105634.98247    -63159.00963
  22206224.5924  -10677967.44446  -8174610.27661
 91  3 28 23 35 29.9980000  0  5G18G 2G11G19G 6
  23433250.6934   15051142.86245  11719646.09161
  20700834.670   -17876607.561 7 -13845929.64123
  23198556.9044   -2704996.30146  -2047694.25661
  21048970.5844     -92267.91147    -52743.11762
  22199265.3814  -10714533.17746  -8203102.96461
 91  3 28 23 35 44.9980000  0  5G18G 2G11G19G 6
  23442497.076    15099739.724 5  11757513.57021
  20697115.311   -17896155.178 7 -13861161.51023
  23203969.4754   -2676559.27846  -2025535.56561
  21051525.2794     -78834.20247    -42275.29962
  22192308.9754  -10751093.61146  -8231591.52061
 91  3 28 23 35 59.9980000  0  5G18G 2G11G19G 6
  23451749.1624   15148360.36545  11795399.58461
  20693407.740   -17915638.545 7 -13876343.30923
  23209401.8974   -2648009.33046  -2003288.88861
  21054094.8034     -65337.56147    -31758.44462
  22185350.8814  -10787652.34346  -8260078.75161
 91  3 28 23 36 14.9980000  0  5G18G 2G11G19G 6
  23461007.420    15197003.919 5  11833303.44821
  20689711.772   -17935058.250 7 -13891475.50323
  23214855.8504   -2619347.37646  -1980954.92961
  21056675.2404     -51778.47847    -21192.92762
  22178395.6234  -10824209.87546  -8288565.04161
 91  3 28 23 36 29.9980000  0  5G18G 2G11G19G 6
  23470268.857    15245670.362 5  11871225.16221
  20686027.857   -17954414.252 7 -13906558.05723
  23220330.7724   -2590573.41946  -1958533.69961
  21059269.0224     -38156.74147    -10578.59762
  22171439.8814  -10860765.89046  -8317050.15861
 91  3 28 23 36 44.9980000  0  5G18G 2G11G19G 6
  23479534.9754   15294357.38845  11909162.88961
  20682356.6624  -17973708.76147 -13921592.69663
  23225827.3734   -2561689.83846  -1936027.05161
  21061869.3114     -24474.24547        83.07862
  22164483.2484  -10897322.31846  -8345535.60461
 91  3 28 23 36 59.9980000  0  5G18G 2G11G19G 6
  23488802.8974   15343074.09445  11947123.75061
  20678698.8504  -17992932.23348 -13936571.98463
  23231346.9984   -2532687.51846  -1913427.87461
  21064488.1544     -10721.34147     10799.61862
  22157526.6934  -10933869.63446  -8374013.95161
 91  3 28 23 37 14.9980000  0  5G18G 2G11G19G 6
  23498076.5844   15391812.71245  11985101.68861
  20675053.0454  -18012091.91948 -13951501.56863
  23236886.756    -2503574.046 6  -1890742.09521
  21067115.5454       3094.67447     21565.33362
  22150572.209   -10970414.920 6  -8402490.71121
 91  3 28 23 37 29.9980000  0  5G18G 2G11G19G 6
  23507356.287    15440575.664 5  12023098.59821
  20671418.717   -18031185.282 8 -13966379.47023
  23242448.8894   -2474347.05046  -1867967.83561
  21069758.4824      16976.50846     32382.33662
  22143620.154   -11006955.600 6  -8430963.88821
 91  3 28 23 37 44.9980000  0  5G18G 2G11G19G 6
  23516643.6314   15489366.51145  12061117.23561
  20667799.5844  -18050208.69848 -13981202.87363
  23248031.2794   -2445003.03946  -1845102.41161
  21072413.139       30927.828 7     43253.48023
  22136667.475   -11043487.818 6  -8459430.47021
 91  3 28 23 37 59.9980000  0  5G18G 2G11G19G 6
  23525932.178    15538181.745 5  12099154.88021
  20664192.381   -18069165.454 8 -13995974.33023
  23253637.7014   -2415545.51446  -1822148.53961
  21075083.1934      44945.51246     54176.33762
  22129716.4904  -11080014.58746  -8487892.80161
 91  3 28 23 38 14.9980000  0  5G18G 2G11G19G 6
  23535225.186    15587017.784 5  12137208.72621
  20660596.8504  -18088058.98648 -14010696.52263
  23259264.6704   -2385978.12146  -1799109.04561
  21077760.240       59026.551 7     65148.56423
  22122765.639   -11116539.241 6  -8516353.49321
 91  3 28 23 38 29.9980000  0  5G18G 2G11G19G 6
  23544523.147    15635877.132 5  12175280.73221
  20657014.4904  -18106886.60148 -14025367.35263
  23264912.1474   -2356298.41546  -1775982.04761
  21080452.061       73173.622 6     76172.24123
  22115817.100   -11153058.793 6  -8544810.20521
 91  3 28 23 38 44.9980000  0  5G18G 2G11G19G 6
  23553823.8974   15684752.91945  12213365.55461
  20653442.7254  -18125654.51648 -14039991.66163
  23270582.373    -2326512.830 6  -1752772.53821
  21083155.053       87380.679 6     87242.65923
  22108866.951   -11189579.483 6  -8573267.81221
 91  3 28 23 38 59.9980000  0  5G18G 2G11G19G 6
  23563130.920    15733660.459 5  12251475.12521
  20649885.928   -18144347.593 8 -14054557.65123
  23276272.170    -2296606.635 6  -1729469.04621
  21085872.178      101662.971 6     98371.70223
  22101919.732   -11226085.967 6  -8601714.34121
 91  3 28 23 39 14.9980000  0  5G18G 2G11G19G 6
  23572441.943    15782589.857 5  12289601.69921
  20646340.686   -18162975.348 8 -14069072.74123
  23281984.5064   -2266589.48346  -1706079.10061
  21088603.756      116011.171 6    109552.10323
  22094972.936   -11262587.611 6  -8630157.10421
 91  3 28 23 39 29.9980000  0  5G18G 2G11G19G 6
  23581757.772    15831537.473 5  12327742.48721
  20642807.904   -18181541.261 8 -14083539.64923
  23287717.068    -2236465.161 6  -1682605.64421
  21091347.787      130421.809 6    120781.15123
  22088028.693   -11299087.701 6  -8658598.65821
 91  3 28 23 39 44.9980000  0  5G18G 2G11G19G 6
  23591074.3034   15880502.23845  12365896.63861
  20639286.0224  -18200046.11248 -14097958.96963
  23293469.8974   -2206234.63546  -1659049.42461
  21094100.186      144894.205 7    132058.32523
  22081082.975   -11335586.909 6  -8687039.52221
 91  3 28 23 39 59.9980000  0  5G18G 2G11G19G 6
  23600394.412    15929476.715 5  12404058.35521
  20635775.662   -18218497.228 8 -14112336.42023
  23299240.9284   -2175905.44046  -1635416.33061
  21096864.811      159421.090 6    143377.95123
  22074135.756   -11372092.336 6  -8715485.24021
 91  3 28 23 40 14.9980000  0  5G18G 2G11G19G 6
  23609719.147    15978472.135 5  12442236.38121
  20632275.9984  -18236883.17548 -14126663.09063
  23305032.998    -2145466.324 6  -1611697.57521
  21099641.357      174014.207 6    154749.18723
  22067189.982   -11408592.458 6  -8743926.81221
 91  3 28 23 40 29.9980000  0  5G18G 2G11G19G 6
  23619046.615    16027487.737 5  12480430.14321
  20628789.9284  -18255204.11748 -14140939.11363
  23310846.936    -2114917.638 6  -1587893.45021
  21102430.951      188673.524 6    166172.01423
  22060245.373   -11445087.127 6  -8772364.14021
 91  3 28 23 40 44.9980000  0  5G18G 2G11G19G 6
  23628378.5684   16076525.31545  12518641.02261
  20625316.5064  -18273458.55348 -14155163.31163
  23316681.545    -2084258.178 6  -1564003.01121
  21105232.389      203400.624 6    177647.65623
  22053303.959   -11481574.695 6  -8800795.92721
 91  3 28 23 40 59.9980000  0  5G18G 2G11G19G 6
  23637714.8114   16125583.74745  12556868.17561
  20621854.936   -18291646.902 8 -14169336.01323
  23322536.107    -2053488.849 6  -1540026.95821
  21108051.740      218194.932 6    189175.66623
  22046360.662   -11518055.520 6  -8829222.46921
 91  3 28 23 41 14.9980000  0  5G18G 2G11G19G 6
  23647052.514    16174654.770 5  12595105.10321
  20618404.8894  -18309777.43948 -14183463.66063
  23328411.428    -2022618.097 6  -1515971.88221
  21110875.248      233048.604 6    200749.93523
  22039418.428   -11554537.733 6  -8857650.07821
 91  3 28 23 41 29.9980000  0  5G18G 2G11G19G 6
  23656392.670    16223748.654 5  12633359.85421
  20614968.3424  -18327839.59348 -14197538.02963
  23334306.3184   -1991635.58046  -1491829.70261
  21113717.303      247972.273 6    212378.74823
  22032477.5144  -11591010.62446  -8886070.43061
 91  3 28 23 41 44.9980000  0  5G18G 2G11G19G 6
  23665735.381    16272857.519 5  12671626.28921
  20611541.7174  -18345841.02948 -14211565.08763
  23340221.443    -1960549.151 6  -1467606.56621
  21116567.795      262958.516 6    224056.31723
  22025537.342   -11627481.524 6  -8914489.23121
 91  3 28 23 41 59.9980000  0  5G18G 2G11G19G 6
  23675085.373    16321987.018 5  12709908.79421
  20608130.4044  -18363775.75148 -14225540.15863
  23346158.7954   -1929353.07246  -1443297.97361
  21119434.857      278013.303 6    235787.29923
  22018597.889   -11663944.487 6  -8942901.85021
 91  3 28 23 42 14.9980000  0  5G18G 2G11G19G 6
  23684439.2404   16371132.72445  12748203.93161
  20604727.9124  -18381648.05248 -14239466.58963
  23352115.084    -1898051.819 6  -1418907.43321
  21122308.686      293132.463 7    247568.43923
  22011660.029   -11700403.503 6  -8971311.38821
 91  3 28 23 42 29.9980000  0  5G18G 2G11G19G 6
  23693796.2324   16420294.34545  12786511.44761
  20601339.5924  -18399458.18948 -14253344.58063
  23358092.959    -1866645.991 6  -1394435.39921
  21125200.998      308315.906 6    259399.67323
  22004723.873   -11736858.604 6  -8999717.88221
 91  3 28 23 42 44.9980000  0  5G18G 2G11G19G 6
  23703155.4204   16469478.52745  12824836.55961
  20597962.8654  -18417199.27648 -14267168.76863
  23364089.811    -1835128.832 6  -1369876.62321
  21128101.225      323570.627 7    271286.45122
  21997788.3814  -11773302.76646  -9028115.84961
 91  3 28 23 42 59.9980000  0  5G18G 2G11G19G 6
  23712520.7014   16518685.71945  12863179.60461
  20594600.6624  -18434870.33148 -14280938.38663
  23370106.951    -1803499.692 6  -1345230.59121
  21131020.842      338897.709 6    283229.61123
  21990854.842   -11809734.840 6  -9056504.40021
 91  3 28 23 43 14.9980000  0  5G18G 2G11G19G 6
  23721886.717    16567908.482 5  12901534.76921
  20591249.2564  -18452478.77048 -14294659.21363
  23376146.9204   -1771766.18446  -1320503.21961
  21133946.037      354289.915 7    295223.51622
  21983923.217   -11846161.999 6  -9084889.11521
 91  3 28 23 43 29.9980000  0  5G18G 2G11G19G 6
  23731255.107    16617142.298 5  12939898.56521
  20587910.0374  -18470028.92048 -14308334.61763
  23382204.8504   -1739932.95946  -1295698.15261
  21136886.186      369743.211 7    307265.02923
  21976990.857   -11882588.478 6  -9113273.30521
 91  3 28 23 43 44.9980000  0  5G18G 2G11G19G 6
  23740626.951    16666390.847 5  12978273.83521
  20584582.3574  -18487516.75448 -14321961.45963
  23388282.904    -1707996.227 6  -1270812.43621
  21139840.107      385261.508 7    319357.18922
  21970059.147   -11919009.982 6  -9141653.61821
 91  3 28 23 43 59.9980000  0  5G18G 2G11G19G 6
  23750003.576    16715655.297 5  13016661.50021
  20581266.2874  -18504940.74348 -14335538.55963
  23394378.803    -1675954.706 6  -1245845.05921
  21142806.482      400846.502 7    331501.32522
  21963130.811   -11955424.873 6  -9170028.77721
 91  3 28 23 44 14.9980000  0  5G18G 2G11G19G 6
  23759380.123    16764934.302 5  13055060.49821
  20577962.5614  -18522302.34248 -14349067.03763
  23400495.459    -1643809.983 6  -1220797.27721
  21145784.201      416497.053 7    343696.54122
  21956202.0844  -11991834.30646  -9198399.67161
 91  3 28 23 44 29.9980000  0  5G18G 2G11G19G 6
  23768757.522    16814228.783 5  13093471.56221
  20574670.2954  -18539600.50148 -14362546.08363
  23406633.9674   -1611561.32546  -1195668.49261
  21148779.240      432214.344 6    355943.76922
  21949274.209   -12028237.134 6  -9226765.43421
 91  3 28 23 44 44.9980000  0  5G18G 2G11G19G 6
  23778142.6544   16863535.57645  13131892.18961
  20571390.6704  -18556838.04848 -14375977.90063
  23412788.811    -1579211.746 6  -1170461.09221
  21151779.709      447995.621 7    368240.85222
  21942347.225   -12064635.928 6  -9255128.05221
 91  3 28 23 44 59.9980000  0  5G18G 2G11G19G 6
  23787530.123    16912857.487 5  13170324.62721
  20568123.1704  -18574011.81048 -14389360.01763
  23418964.0294   -1546758.38846  -1145172.79161
  21154796.967      463844.006 6    380590.23122
  21935423.412   -12101027.484 6  -9283485.02921
 91  3 28 23 45 14.9980000  0  5G18G 2G11G19G 6
  23796914.529    16962193.002 5  13208767.65221
  20564866.6934  -18591123.13848 -14402693.48463
  23425159.701    -1514202.930 6  -1119804.94521
  21157823.2254     479758.27646    392990.95562
  21928498.326   -12137412.967 6  -9311837.27821
 91  3 28 23 45 29.9980000  0  5G18G 2G11G19G 6
  23806309.084    17011541.509 5  13247220.80021
  20561622.6154  -18608172.28948 -14415978.49863
  23431374.7094   -1481545.86946  -1094357.92661
  21160865.6934     495738.20546    405442.84162
  21921576.850   -12173792.514 6  -9340184.89721
 91  3 28 23 45 44.9980000  0  5G18G 2G11G19G 6
  23815702.5294   17060907.20045  13285687.35261
  20558390.248   -18625155.143 8 -14429211.85023
  23437609.4674   -1448783.27846  -1068828.67661
  21163918.506      511788.196 6    417949.31622
  21914655.451   -12210161.647 6  -9368524.40121
 91  3 28 23 45 59.9980000  0  5G18G 2G11G19G 6
  23825095.8504   17110276.24345  13324156.49461
  20555169.4284  -18642085.19148 -14442404.05963
  23443860.647    -1415928.848 6  -1043227.87421
  21166982.639      527895.105 6    430500.14022
  21907733.7724  -12246533.61546  -9396866.09761
 91  3 28 23 46 14.9980000  0  5G18G 2G11G19G 6
  23834495.4364   17159658.13145  13362635.65661
  20551958.3814  -18658952.44748 -14455547.33663
  23450132.561    -1382973.115 6  -1017548.12521
  21170060.4364     544068.76546    443102.98562
  21900815.4124  -12282898.51846  -9425202.29761
 91  3 28 23 46 29.9980000  0  5G18G 2G11G19G 6
  23843896.670    17209056.897 5  13401127.94821
  20548762.7014  -18675752.98448 -14468638.62563
  23456422.498    -1349912.087 6   -991786.32421
  21173155.3734     560313.41646    455761.14462
  21893897.1544  -12319251.95146  -9453529.55961
 91  3 28 23 46 44.9980000  0  5G18G 2G11G19G 6
  23853298.217    17258467.579 5  13439629.54721
  20545575.9124  -18692491.53248 -14481681.60463
  23462731.287    -1316750.959 6   -965946.53421
  21176256.6234     576624.37946    468470.97862
  21886979.4984  -12355598.60846  -9481851.54361
 91  3 28 23 46 59.9980000  0  5G18G 2G11G19G 6
  23862704.568    17307890.949 5  13478141.02621
  20542403.7094  -18709167.24848 -14494675.63163
  23469062.881    -1283488.931 6   -940028.11221
  21179372.5684     593002.78946    481233.36062
  21880064.967   -12391937.299 6  -9510167.31721
 91  3 28 23 47 14.9980000  0  5G18G 2G11G19G 6
  23872112.662    17357326.294 4  13516661.83221
  20539242.053   -18725780.166 8 -14507620.72023
  23475411.764    -1250126.450 6   -914031.43121
  21182502.2014     609448.62346    494048.28762
  21873151.451   -12428268.054 6  -9538476.91321
 91  3 28 23 47 29.9980000  0  4G 2G11G19G 6
  20536092.0614  -18742332.72648 -14520518.77763
  23481779.373    -1216666.147 6   -887958.51021
  21185645.920      625959.327 6    506913.75622
  21866239.756   -12464593.068 6  -9566782.03721
 91  3 28 23 47 44.9980000  0  4G 2G11G19G 6
  20532955.334   -18758817.824 8 -14533364.26423
  23488166.373    -1183101.279 6   -861804.11821
  21188798.920      642542.398 6    519835.61422
  21859328.631   -12500905.064 6  -9595077.01621
 91  3 28 23 47 59.9980000  0  4G 2G11G19G 6
  20529828.5764  -18775246.15348 -14546165.52163
  23494572.0534   -1149442.90246   -835576.86161
  21191968.3114     659187.07146    532805.47862
  21852418.490   -12537214.738 6  -9623370.18321
 91  3 28 23 48 14.9980000  0  4G 2G11G19G 6
  20526714.272   -18791612.654 8 -14558918.59623
  23500995.139    -1115686.041 6   -809272.85221
  21195146.670      675898.488 6    545827.34022
  21845511.506   -12573516.637 6  -9651657.29521
 91  3 28 23 48 29.9980000  0  4G 2G11G19G 6
  20523611.7174  -18807918.12748 -14571624.11863
  23507437.7954   -1081831.69546   -782892.89261
  21198341.475      692676.078 6    558900.77022
  21838603.115   -12609811.280 6  -9679938.75621
 91  3 28 23 48 44.9980000  0  4G 2G11G19G 6
  20520521.2794  -18824156.15048 -14584277.08363
  23513900.022    -1047873.749 6   -756432.19721
  21201546.381      709526.412 6    572030.87722
  21831699.615   -12646092.119 6  -9708209.45521
 91  3 28 23 48 59.9980000  0  4G 2G11G19G 6
  20517442.803   -18840336.605 8 -14596885.18623
  23520380.701    -1013822.481 6   -729898.79221
  21204768.061      726439.758 6    585210.08722
  21824795.936   -12682368.911 6  -9736476.99921
 91  3 28 23 49 14.9980000  0  4G 2G11G19G 6
  20514374.568   -18856456.496 8 -14609446.10023
  23526877.7484    -979674.97446   -703290.39961
  21207995.506      743419.059 6    598440.68722
  21817894.5534  -12718638.31946  -9764738.79161
 91  3 28 23 49 29.9980000  0  4G 2G11G19G 6
  20511319.1704  -18872513.32248 -14621957.87363
  23533394.912     -945429.059 6   -676605.31321
  21211241.522      760466.880 6    611724.68122
  21810994.959   -12754897.762 6  -9792992.82121
 91  3 28 23 49 44.9980000  0  4G 2G11G19G 6
  20508276.7254  -18888502.71548 -14634417.10163
  23539930.772     -911080.590 6   -649840.33021
  21214498.295      777587.919 6    625065.72822
  21804098.232   -12791142.587 6  -9821235.46021
 91  3 28 23 49 59.9980000  0  4G 2G11G19G 6
  20505245.2404  -18904432.50548 -14646829.88763
  23546484.873     -876637.613 6   -623001.69521
  21217769.678      794774.609 6    638457.93322
  21797201.881   -12827380.385 6  -9849472.62821
 91  3 28 23 50 14.9980000  0  4G 2G11G19G 6
  20502225.4514  -18920299.89848 -14659194.05363
  23553058.506     -842097.694 6   -596087.52621
  21221051.678      812029.671 6    651903.41322
  21790307.123   -12863608.276 6  -9877702.08521
 91  3 28 23 50 29.9980000  0  4G 2G11G19G 6
  20499218.4904  -18936108.04048 -14671512.04663
  23559647.779     -807464.251 6   -569100.47021
  21224350.9434     829349.93646    665399.69562
  21783414.123   -12899829.328 6  -9905926.20221
 91  3 28 23 50 44.9980000  0  4G 2G11G19G 6
  20496221.9984  -18951850.69648 -14683779.01563
  23566257.076     -772731.376 6   -542035.94521
  21227657.1004     846741.81346    678951.77462
  21776524.2014  -12936036.93646  -9934139.85561
 91  3 28 23 50 59.9980000  0  4G 2G11G19G 6
  20493237.7874  -18967532.86848 -14695998.85463
  23572884.912     -737904.350 6   -514898.05121
  21230982.2794     864200.50346    692555.92262
  21769636.029   -12972236.081 6  -9962346.90921
 91  3 28 23 51 14.9980000  0  4G 2G11G19G 6
  20490265.1234  -18983154.38648 -14708171.42863
  23579530.928     -702982.995 5   -487686.65321
  21234315.5924     881726.51446    706212.52762
  21762748.2874  -13008426.10746  -9990546.86161
 91  3 28 23 51 29.9980000  0  4G 2G11G19G 6
  20487304.1934  -18998710.99648 -14720293.42463
  23586195.287     -667963.382 6   -460398.69421
  21237665.7094     899324.12046    719924.91962
  21755865.0064  -13044602.66546 -10018736.31761
 91  3 28 23 51 44.9980000  0  4G 2G11G19G 6
  20484355.6154  -19014208.59248 -14732369.43363
  23592876.3424    -632851.64446   -433038.95661
  21241025.998      916987.669 6    733688.70122
  21748982.084   -13080771.461 6 -10046919.72421
 91  3 28 23 51 59.9980000  0  4G 2G11G19G 6
  20481417.8504  -19029644.54748 -14744397.41063
  23599575.8114    -597645.59146   -405605.72361
  21244400.826      934719.756 6    747505.88522
  21742102.3184  -13116929.70246 -10075094.91061
 91  3 28 23 52 14.9980000  0  4G 2G11G19G 6
  20478492.4824  -19045018.65448 -14756377.19463
  23606293.7174    -562345.30746   -378099.06261
  21247786.756      952520.484 6    761376.56122
  21735224.0614  -13153076.95346 -10103261.53561
 91  3 28 23 52 29.9980000  0  4G 2G11G19G 6
  20475577.8654  -19060333.54148 -14768310.83563
  23613028.248     -526953.665 6   -350521.21321
  21251188.334      970387.351 6    775298.77522
  21728347.9284  -13189215.65546 -10131421.49761
 91  3 28 23 52 44.9980000  0  4G 2G11G19G 6
  20472675.123   -19075589.560 8 -14780198.59923
  23619779.1624    -491471.07846   -322872.48661
  21254599.904      988320.435 6    789272.58522
  21721471.4364  -13225345.78646 -10159574.77961
 91  3 28 23 52 59.9980000  0  4G 2G11G19G 6
  20469782.1934  -19090787.69048 -14792041.25963
  23626548.818     -455898.935 6   -295153.98221
  21258024.553     1006318.695 6    803297.18622
  21714597.9364  -13261468.27147 -10187722.10261
 91  3 28 23 53 14.9980000  0  4G 2G11G19G 6
  20466901.6154  -19105928.67748 -14803839.39263
  23633336.068     -420238.145 6   -267366.40221
  21261462.787     1024381.688 6    817372.22422
  21707724.8034  -13297583.41747 -10215863.70461
 91  3 28 23 53 29.9980000  0  4G 2G11G19G 6
  20464032.0454  -19121006.09748 -14815587.99463
  23640140.303     -384482.637 6   -239505.01421
  21264915.006     1042515.742 6    831502.63622
  21700854.6234  -13333684.97747 -10243994.72361
 91  3 28 23 53 44.9980000  0  4G 2G11G19G 6
  20461175.3184  -19136018.76447 -14827286.14063
  23646961.678     -348631.456 6   -211569.08021
  21268377.490     1060722.149 6    845689.43322
  21693988.928   -13369771.295 7 -10272113.86121
 91  3 28 23 53 59.9980000  0  4G 2G11G19G 6
  20458329.6154  -19150973.61348 -14838939.23463
  23653800.475     -312691.906 6   -183564.28921
  21271856.295     1078994.033 6    859927.24822
  21687122.318   -13405849.181 7 -10300226.42121
 91  3 28 23 54 14.9980000  0  4G 2G11G19G 6
  20455496.0534  -19165869.76348 -14850546.59163
  23660657.607     -276663.439 6   -155490.21021
  21275344.373     1097332.550 6    874216.98322
  21680258.295   -13441917.561 7 -10328331.57421
 91  3 28 23 54 29.9980000  0  4G 2G11G19G 6
  20452671.4364  -19180704.07047 -14862105.75663
  23667532.2724    -240542.94846   -127344.41061
  21278851.529     1115741.045 6    888561.24722
  21673397.717   -13477972.963 7 -10356426.61021
 91  3 28 23 54 44.9980000  0  4G 2G11G19G 6
  20449860.2014  -19195479.46348 -14873619.01563
  23674420.717     -204333.826 6    -99129.56421
  21282362.311     1134216.450 6    902957.64722
  21666538.701   -13514018.261 7 -10384513.78321
 91  3 28 23 54 59.9980000  0  4G 2G11G19G 6
  20447058.6314  -19210200.37648 -14885089.83063
  23681326.5454    -168040.73946    -70849.29861
  21285894.826     1152754.481 6    917402.85122
  21659680.1004  -13550057.55747 -10412596.28661
 91  3 28 23 55 14.9980000  0  4G 2G11G19G 6
  20444268.3574  -19224863.09948 -14896515.29863
  23688251.318     -131660.040 6    -42500.74221
  21289430.029     1171359.252 6    931900.06122
  21652824.467   -13586086.791 7 -10440670.93621
 91  3 28 23 55 29.9980000  0  4G 2G11G19G 6
  20441491.5614  -19239461.46448 -14907890.61563
  23695190.6544     -95186.01346    -14079.46261
  21292988.850     1190036.853 6    946454.02222
  21645970.982   -13622099.820 7 -10468732.96221
 91  3 28 23 55 44.9980000  0  4G 2G11G19G 6
  20438724.5684  -19253997.83248 -14919217.62863
  23702149.248      -58621.229 6     14412.52721
  21296553.014     1208784.934 6    961062.89722
  21639120.420   -13658098.716 6 -10496783.97521
 91  3 28 23 55 59.9980000  0  4G 2G11G19G 6
  20435970.4754  -19268473.24848 -14930497.14163
  23709124.404      -21966.873 6     42974.31221
  21300132.225     1227602.875 6    975726.21022
  21632273.006   -13694084.153 7 -10524824.49921
 91  3 28 23 56 14.9980000  0  4G 2G11G19G 6
  20433226.3654  -19282891.61648 -14941732.20663
  23716116.9284      14772.77746     71602.56461
  21303726.709     1246486.517 6    990440.71422
  21625425.147   -13730060.005 6 -10552857.54921
 91  3 28 23 56 29.9980000  0  4G 2G11G19G 6
  20430494.4364  -19297249.73148 -14952920.31763
  23723124.6704      51600.61545    100299.52861
  21307334.209     1265439.380 6   1005209.16122
  21618581.9594  -13766022.72546 -10580880.37861
 91  3 28 23 56 44.9980000  0  4G 2G11G19G 6
  20427774.061   -19311546.629 8 -14964060.73123
  23730147.7564      88517.24745    129065.67061
  21310952.123     1284462.524 6   1020032.37222
  21611741.647   -13801971.251 6 -10608892.13821
 91  3 28 23 56 59.9980000  0  4G 2G11G19G 6
  20425063.865   -19325786.044 8 -14975156.35623
  23737191.217      125518.683 5    157897.90421
  21314590.154     1303552.100 6   1034907.34722
  21604902.186   -13837909.141 6 -10636895.61121
 91  3 28 23 57 14.9980000  0  4G 2G11G19G 6
  20422364.9984  -19339965.41148 -14986205.18863
  23744248.904      162607.225 5    186798.03321
  21318232.732     1322710.895 6   1049836.25022
  21598067.381   -13873833.545 6 -10664888.56921
 91  3 28 23 57 29.9980000  0  4G 2G11G19G 6
  20419678.709   -19354087.416 8 -14997209.32423
  23751320.936      199780.008 5    215763.78821
  21321892.803     1341936.271 6   1064817.03622
  21591232.654   -13909746.984 6 -10692872.98721
 91  3 28 23 57 44.9980000  0  4G 2G11G19G 6
  20417000.443   -19368156.085 8 -15008171.89823
  23758412.0764     237032.74645    244791.84261
  21325560.662     1361224.424 6   1079846.74222
  21584400.139   -13945653.085 6 -10720851.68421
 91  3 28 23 57 59.9980000  0  4G 2G11G19G 6
  20414333.936   -19382172.748 8 -15019093.94923
  23765515.967      274363.860 5    273880.98421
  21329245.147     1380574.153 6   1094924.43122
  21577567.1544  -13981552.97646 -10748825.55661
 91  3 28 23 58 14.9980000  0  4G 2G11G19G 6
  20411677.857   -19396128.385 8 -15029968.44623
  23772633.537      311781.974 5    303037.90621
  21332938.115     1399994.728 6   1110057.32222
  21570739.647   -14017437.482 7 -10776787.42621
 91  3 28 23 58 29.9980000  0  4G 2G11G19G 6
  20409036.764   -19410007.308 8 -15040783.17123
  23779775.412      349302.535 5    332274.65821
  21336653.264     1419501.921 6   1125257.70422
  21563917.576   -14053290.777 6 -10804724.98221
 91  3 28 23 58 44.9980000  0  4G 2G11G19G 6
  20406407.936   -19423822.613 8 -15051548.32123
  23786932.201      386912.121 5    361580.77621
  21340376.498     1439082.659 6   1140515.39822
  21557097.107   -14089125.641 6 -10832648.18221
 91  3 28 23 58 59.9980000  0  4G 2G11G19G 6
  20403790.232   -19437579.122 8 -15062267.65623
  23794105.115      424605.843 5    390952.45521
  21344119.600     1458732.250 6   1155826.74122
  21550280.943   -14124946.535 6 -10860560.49321
 91  3 28 23 59 14.9980000  0  4G 2G11G19G 6
  20401184.107   -19451273.046 8 -15072938.22723
  23801294.022      462387.102 5    420392.34521
  21347868.920     1478454.509 6   1171194.71722
  21543468.022   -14160749.619 7 -10888458.92221
 91  3 28 23 59 29.9980000  0  4G 2G11G19G 6
  20398589.193   -19464908.486 8 -15083563.22423
  23808499.654      500251.465 5    449897.00821
  21351636.397     1498245.447 6   1186616.20222
  21536657.4204  -14196538.67747 -10916346.43161
 91  3 28 23 59 44.9980000  0  4G 2G11G19G 6
  20396007.904   -19478476.587 8 -15094135.74723
  23815722.451      538207.622 5    479473.16821
  21355415.717     1518114.202 6   1202098.32922
  21529852.1544  -14232304.65847 -10944215.96161
 91  3 28 23 59 59.9980000  0  4G 2G11G19G 6
  20393438.131   -19491977.189 8 -15104655.67823
  23822962.9514     576255.51945    509120.83561
  21359213.904     1538060.895 6   1217641.18422
  21523050.857   -14268046.959 7 -10972067.03421
 91  3 29  0  0 14.9980000  0  4G 2G11G19G 6
  20390880.795   -19505416.415 8 -15115127.77823
  23830219.287      614388.541 5    538834.83321
  21363023.998     1558079.455 6   1233240.03922
  21516252.0374  -14303771.78147 -10999904.48761
 91  3 29  0  0 29.9980000  0  4G 2G11G19G 6
  20388335.725   -19518791.186 8 -15125549.65823
  23837492.928      652609.594 5    568617.41621
  21366846.076     1578173.298 6   1248897.55722
  21509458.4674  -14339475.78746 -11027725.72661
 91  3 29  0  0 44.9980000  0  4G 2G11G19G 6
  20385802.279   -19532106.669 8 -15135925.34123
  23844781.1934     690913.22745    598464.36061
  21370683.748     1598337.115 6   1264609.59622
  21502666.2954  -14375163.88246 -11055534.56262
 91  3 29  0  0 59.9980000  0  4G 2G11G19G 6
  20383280.100   -19545358.592 8 -15146251.49123
  23852087.928      729303.539 5    628378.85821
  21374535.2794    1618575.36346   1280379.63662
  21495878.9904  -14410831.45746 -11083327.41362
 91  3 29  0  1 14.9980000  0  4G 2G11G19G 6
  20380770.381   -19558547.912 8 -15156528.86423
  23859410.4824     767779.29945    658359.92961
  21378401.326     1638887.164 6   1296206.98622
  21489093.7644  -14446479.23346 -11111104.84261
 91  3 29  0  1 29.9980000  0  4G 2G11G19G 6
  20378272.397   -19571673.504 8 -15166756.58023
  23866746.576      806341.187 5    688408.09221
  21382280.357     1659273.584 6   1312092.48522
  21482315.7644  -14482105.96046 -11138865.86762
 91  3 29  0  1 44.9980000  0  4G 2G11G19G 6
  20375786.053   -19584742.777 8 -15176940.40523
  23874099.592      844981.608 5    718517.47221
  21386172.764     1679727.493 6   1328030.57122
  21475538.6234  -14517718.73046 -11166616.02261
 91  3 29  0  1 59.9980000  0  4G 2G11G19G 6
  20373310.732   -19597748.296 8 -15187074.55723
  23881470.904      883707.732 5    748693.61921
  21390078.639     1700256.622 6   1344027.26822
  21468764.6474  -14553309.85546 -11194349.30761
 91  3 29  0  2 14.9980000  0  4G 2G11G19G 6
  20370847.232   -19610694.426 8 -15197162.43223
  23888854.3424     922514.83145    778932.88061
  21393998.951     1720856.409 6   1360079.02722
  21461996.037   -14588883.573 6 -11222069.03222
 91  3 29  0  2 29.9980000  0  4G 2G11G19G 6
  20368395.428   -19623579.607 8 -15207202.81923
  23896254.1004     961404.26745    809236.30761
  21397933.2404    1741528.72946   1376187.30062
  21455231.3184  -14624438.02846 -11249773.74161
 91  3 29  0  2 44.9980000  0  4G 2G11G19G 6
  20365954.779   -19636404.903 8 -15217196.53623
  23903669.7724    1000374.51345    839602.68061
  21401881.107     1762272.430 6   1392351.19722
  21448467.959   -14659974.190 6 -11277464.19921
 91  3 29  0  2 59.9980000  0  4G 2G11G19G 6
  20363526.225   -19649169.054 8 -15227142.61123
  23911102.2874    1039426.63545    870032.85261
  21405841.873     1783088.728 6   1408571.66522
  21441710.061   -14695490.509 7 -11305139.19521
 91  3 29  0  3 14.9980000  0  4G 2G11G19G 6
  20361107.600   -19661875.445 8 -15237043.67523
  23918548.2794    1078557.20646    900524.16561
  21409815.7794    1803974.62746   1424846.36362
  21434954.7564  -14730989.89247 -11332800.99061
 91  3 29  0  3 29.9980000  0  3G 2G19G 6
  20358700.279   -19674528.511 8 -15246903.18423
  21413802.186     1824925.679 6   1441171.83122
  21428201.0614  -14766476.69547 -11360452.98861
 91  3 29  0  3 44.9980000  0  3G 2G19G 6
  20356302.303   -19687126.773 8 -15256719.98923
  21417802.7564    1845943.68946   1457549.47562
  21421452.1864  -14801949.08247 -11388093.75061
 91  3 29  0  3 59.9980000  0  3G 2G19G 6
  20353917.107   -19699661.966 8 -15266487.64723
  21421814.8114    1867036.69346   1473985.55462
  21414705.2644  -14837398.77047 -11415716.82261
 91  3 29  0  4 14.9980000  0  3G 2G19G 6
  20351542.701   -19712137.689 8 -15276208.96723
  21425844.295     1888201.223 6   1490477.37022
  21407963.3184  -14872829.05947 -11443324.77961
 91  3 29  0  4 29.9980000  0  3G 2G19G 6
  20349179.209   -19724558.690 8 -15285887.64323
  21429884.592     1909432.832 6   1507021.45522
  21401224.3344  -14908244.30847 -11470921.02461
 91  3 29  0  4 44.9980000  0  3G 2G19G 6
  20346826.326   -19736924.605 8 -15295523.39423
  21433937.740     1930731.934 6   1523618.13222
  21394487.5294  -14943643.98147 -11498505.12361
 91  3 29  0  4 59.9980000  0  3G 2G19G 6
  20344484.600   -19749231.493 8 -15305113.15223
  21438003.123     1952102.499 6   1540270.49722
  21387754.8574  -14979023.93747 -11526073.85361
 91  3 29  0  5 14.9980000  0  3G 2G19G 6
  20342153.326   -19761480.452 8 -15314657.76923
  21442084.092     1973543.532 6   1556977.77222
  21381025.7014  -15014384.96047 -11553627.83961
 91  3 29  0  5 29.9980000  0  3G 2G19G 6
  20339831.943   -19773677.672 8 -15324162.07223
  21446175.045     1995048.818 6   1573735.11022
  21374299.2564  -15049733.14047 -11581171.81561
 91  3 29  0  5 44.9980000  0  3G 2G19G 6
  20337522.365   -19785813.656 8 -15333618.65523
  21450283.193     2016628.192 6   1590550.17822
  21367576.9204  -15085058.46947 -11608697.98361
 91  3 29  0  5 59.9980000  0  3G 2G19G 6
  20335222.943   -19797898.634 8 -15343035.49523
  21454402.0534    2038271.41046   1607415.00062
  21360857.6624  -15120371.00447 -11636214.18462
 91  3 29  0  6 14.9980000  0  3G 2G19G 6
  20332933.0374  -19809931.39548 -15352411.65163
  21458531.826     2059979.893 6   1624330.68022
  21354140.3114  -15155669.34547 -11663719.32461
 91  3 29  0  6 29.9980000  0  3G 2G19G 6
  20330654.397   -19821908.054 8 -15361744.07823
  21462676.865     2081757.605 6   1641300.30522
  21347425.9124  -15190949.40547 -11691210.21761
 91  3 29  0  6 44.9980000  0  3G 2G19G 6
  20328385.7174  -19833827.82348 -15371032.18263
  21466834.326     2103605.209 6   1658324.39022
  21340716.2174  -15226210.10147 -11718686.01962
 91  3 29  0  6 59.9980000  0  3G 2G19G 6
  20326129.0144  -19845689.29948 -15380274.85963
  21471007.451     2125524.453 6   1675404.29522
  21334008.8814  -15261449.76946 -11746145.44762
 91  3 29  0  7 14.9980000  0  3G 2G19G 6
  20323883.6004  -19857490.81948 -15389470.81763
  21475189.490     2147516.889 6   1692541.23222
  21327308.2324  -15296666.48147 -11773586.97862
 91  3 29  0  7 29.9980000  0  3G 2G19G 6
  20321646.9514  -19869240.17748 -15398626.12963
  21479389.654     2169574.693 6   1709729.11222
  21320609.4364  -15331867.86547 -11801016.56862
 91  3 29  0  7 44.9980000  0  3G 2G19G 6
  20319422.2254  -19880936.57548 -15407740.17363
  21483597.068     2191698.988 6   1726968.79722
  21313914.1074  -15367052.78047 -11828433.32261
 91  3 29  0  7 59.9980000  0  4G15G 2G19G 6
  23646048.1154         -0.84755
  20317205.9594  -19892576.53048 -15416810.24063
  21487822.9984    2213893.17646   1744262.93962
  21307221.3894  -15402217.54947 -11855834.37961
 91  3 29  0  8 14.9980000  0  4G15G 2G19G 6
  23639828.2874     -32702.49045
  20315002.2484  -19904159.04248 -15425835.54363
  21492059.100     2236158.566 6   1761612.57122
  21300535.5144  -15437360.95147 -11883218.78662
 91  3 29  0  8 29.9980000  0  4G15G 2G19G 6
  23633619.756      -65326.017 5
  20312808.8814  -19915682.57548 -15434814.89363
  21496306.248     2258496.710 6   1779018.88822
  21293851.7564  -15472481.05547 -11910585.04262
 91  3 29  0  8 44.9980000  0  4G15G 2G19G 6
  23627422.545      -97875.392 5        -0.28631
  20310626.8184  -19927151.45848 -15443751.65563
  21500573.5294    2280903.44246   1796478.65462
  21287172.2094  -15507581.94547 -11937936.32862
 91  3 29  0  8 59.9980000  0  4G15G 2G19G 6
  23621246.904     -130349.686 5    -25304.79221
  20308455.2404  -19938565.12048 -15452645.38663
  21504849.0614    2303379.28046   1813992.26762
  21280497.3654  -15542662.89447 -11965272.07061
 91  3 29  0  9 14.9980000  0  4G15G 2G19G 6
  23615083.2324    -162748.48345    -50550.45661
  20306293.4754  -19949923.52248 -15461496.06463
  21509141.029     2325924.352 6   1831559.82822
  21273825.3114  -15577723.58147 -11992592.02562
 91  3 29  0  9 29.9980000  0  4G15G 2G19G 6
  23608929.686     -195071.563 5    -75737.14221
  20304142.2014  -19961227.45848 -15470304.29563
  21513444.0534    2348537.98646   1849180.81162
  21267156.6314  -15612764.49547 -12019896.57461
 91  3 29  0  9 44.9980000  0  4G15G 2G19G 6
  23602790.850     -227325.844 5   -100870.20821
  20302000.240   -19972483.736 8 -15479075.39323
  21517758.4514    2371213.55146   1866850.05062
  21260491.0684  -15647792.18147 -12047190.81561
 91  3 29  0  9 59.9980000  0  4G15G 2G19G 6
  23596667.381     -259503.141 5   -125943.29421
  20299868.5294  -19983684.58248 -15487803.29763
  21522088.5454    2393958.81046   1884573.59162
  21253830.6784  -15682798.82647 -12074468.65962
 91  3 29  0 10 14.9980000  0  4G15G 2G19G 6
  23590561.522     -291595.602 5   -150950.27021
  20297749.8424  -19994822.31748 -15496482.02263
  21526430.5924    2416781.41046   1902357.40462
  21247173.9364  -15717776.43947 -12101723.88562
 91  3 29  0 10 29.9980000  0  4G15G 2G19G 6
  23584470.725     -323605.637 5   -175893.04421
  20295642.0294  -20005900.40048 -15505114.26663
  21530787.7094    2439678.15246   1920198.98362
  21240522.576   -15752727.983 7 -12128958.80122
 91  3 29  0 10 44.9980000  0  4G15G 2G19G 6
  23578393.0924    -355539.00045   -200776.05261
  20293543.107   -20016925.100 8 -15513704.91923
  21535156.6474    2462642.90146   1938093.56262
  21233876.287   -15787659.420 7 -12156178.04722
 91  3 29  0 10 59.9980000  0  4G15G 2G19G 6
  23572331.381     -387394.581 5   -225598.43621
  20291456.2094  -20027895.25748 -15522253.05963
  21539539.7954    2485676.79346   1956042.01462
  21227231.748   -15822569.540 7 -12183380.67922
 91  3 29  0 11 14.9980000  0  4G15G 2G19G 6
  23566286.607     -419171.128 5   -250359.24821
  20289378.451   -20038810.059 8 -15530758.07823
  21543937.7644    2508780.47846   1974044.84062
  21220593.6154  -15857457.40447 -12210565.96962
 91  3 29  0 11 29.9980000  0  4G15G 2G19G 6
  23560252.0374    -450865.83845   -275056.30161
  20287313.1234  -20049667.19048 -15539218.15063
  21548348.7954    2531956.57646   1992104.10062
  21213959.256   -15892320.257 7 -12237731.77522
 91  3 29  0 11 44.9980000  0  4G15G 2G19G 6
  23554236.4904    -482481.23645   -299691.55561
  20285256.451   -20060469.663 8 -15547635.63523
  21552771.4044    2555202.11246   2010217.46862
  21207329.490   -15927160.815 7 -12264880.21122
 91  3 29  0 11 59.9980000  0  4G15G 2G19G 6
  23548235.9284    -514013.31445   -324261.86261
  20283211.8734  -20071214.01848 -15556007.83163
  21557207.5454    2578520.60446   2028387.68562
  21200705.3504  -15961975.41147 -12292008.41761
 91  3 29  0 12 14.9980000  0  4G15G 2G19G 6
  23542249.5454    -545460.92245   -348766.37761
  20281178.3184  -20081899.19748 -15564333.91663
  21561659.9204    2601913.27446   2046615.70361
  21194084.295   -15996762.828 7 -12319115.44121
 91  3 29  0 12 29.9980000  0  4G15G 2G19G 6
  23536281.8344    -576824.16345   -373205.14661
  20279157.225   -20092526.042 8 -15572614.55023
  21566124.3034    2625379.42746   2064900.98262
  21187469.178   -16031523.438 7 -12346201.57621
 91  3 29  0 12 44.9980000  0  4G15G 2G19G 6
  23530333.670     -608107.639 5   -397581.75521
  20277144.006   -20103099.566 8 -15580853.63623
  21570603.9434    2648914.17846   2083239.71561
  21180858.584   -16066262.014 7 -12373270.54221
 91  3 29  0 12 59.9980000  0  4G15G 2G19G 6
  23524393.0374    -639302.60345   -421889.38661
  20275144.748   -20113611.330 8 -15589044.59523
  21575095.8264    2672525.86546   2101638.39461
  21174253.701   -16100969.908 7 -12400315.60422
 91  3 29  0 13 14.9980000  0  4G15G 2G19G 6
  23518471.7724    -670413.71045   -446131.68761
  20273154.584   -20124066.673 8 -15597191.59123
  21579603.7094    2696209.39346   2120093.06061
  21167654.756   -16135652.055 7 -12427340.60222
 91  3 29  0 13 29.9980000  0  4G15G 2G19G 6
  23512570.029     -701439.692 5   -470307.67721
  20271175.756   -20134464.407 8 -15605293.69423
  21584123.7564    2719965.98346   2138604.65462
  21161059.3344  -16170307.01947 -12454344.41062
 91  3 29  0 13 44.9980000  0  4G15G 2G19G 6
  23506680.357     -732382.736 5   -494418.99821
  20269207.889   -20144807.284 8 -15613353.05323
  21588659.6704    2743793.01046   2157171.13462
  21154470.006   -16204937.523 7 -12481329.16922
 91  3 29  0 13 59.9980000  0  4G15G 2G19G 6
  23500810.9754    -763236.50145   -518460.78261
  20267251.709   -20155089.186 8 -15621364.90323
  21593208.3114    2767696.40346   2175797.11461
  21147884.967   -16239537.294 7 -12508289.98122
 91  3 29  0 14 14.9980000  0  4G15G 2G19G 6
  23494953.8894    -794006.10945   -542436.98061
  20265305.029   -20165315.849 8 -15629333.70623
  21597768.5374    2791670.64546   2194478.30061
  21141305.795   -16274111.614 7 -12535230.95822
 91  3 29  0 14 29.9980000  0  4G15G 2G19G 6
  23489114.9364    -824693.27645   -566348.93961
  20263369.350   -20175489.356 8 -15637261.09423
  21602343.2874    2815713.54346   2213212.99461
  21134730.990   -16308662.327 7 -12562153.54122
 91  3 29  0 14 44.9980000  0  4G15G 2G19G 6
  23483290.3424    -855293.03245   -590192.78361
  20261444.100   -20185605.358 8 -15645143.67223
  21606933.2254    2839829.66446   2232004.73561
  21128162.264   -16343184.685 7 -12589054.03022
 91  3 29  0 14 59.9980000  0  5G15G 2G13G19G 6
  23477486.147     -885807.189 5   -613969.91421
  20259529.295   -20195666.079 8 -15652983.17423
  23388196.4824         -0.84355
  21611535.9984    2864016.94846   2250851.93761
  21121597.443   -16377680.597 7 -12615933.91122
 91  3 29  0 15 14.9980000  0  5G15G 2G13G19G 6
  23471691.998     -916236.351 5   -637680.81821
  20257625.904   -20205672.408 8 -15660780.29023
  23375722.6154     -65546.45945
  21616153.7404    2888274.59446   2269753.95861
  21115038.639   -16412150.817 7 -12642793.77022
 91  3 29  0 15 29.9980000  0  5G15G 2G13G19G 6
  23465920.584     -946585.131 5   -661329.09221
  20255730.811   -20215629.344 8 -15668538.92723
  23363255.5374    -131068.28045
  21620781.4824    2912597.61846   2288706.92361
  21108482.928   -16446600.016 7 -12669637.24722
 91  3 29  0 15 44.9980000  0  5G15G 2G13G19G 6
  23460157.779     -976852.065 5   -684913.59121
  20253845.240   -20225535.907 8 -15676258.30723
  23350793.0534    -196564.80845
  21625423.5374    2936986.94446   2307711.55761
  21101931.537   -16481026.930 7 -12696463.36222
 91  3 29  0 15 59.9980000  0  5G15G 2G13G19G 6
  23454415.8894   -1007032.02745   -708430.30661
  20251971.436   -20235387.290 8 -15683934.69323
  23338334.4824    -262030.88345
  21630076.1544    2961447.43546   2326771.64461
  21095385.256   -16515426.633 7 -12723268.27122
 91  3 29  0 16 14.9980000  0  5G15G 2G13G19G 6
  23448688.326    -1037129.834 5   -731883.00021
  20250106.107   -20245188.538 8 -15691572.01423
  23325882.615     -327471.104 5
  21634743.654     2985974.238 6   2345883.39321
  21088843.498   -16549803.847 7 -12750055.66022
 91  3 29  0 16 29.9980000  0  5G15G 2G13G19G 6
  23442977.693    -1067136.904 5   -755265.02021
  20248251.639   -20254931.655 8 -15699164.03723
  23313435.4044    -392876.96045
  21639426.1934    3010575.29846   2365053.01361
  21082307.389   -16584150.184 7 -12776818.99122
 91  3 29  0 16 44.9980000  0  5G15G 2G13G19G 6
  23437283.4364   -1097056.81845   -778579.09861
  20246408.178   -20264620.993 8 -15706714.15423
  23300992.4754    -458252.18545        -0.23171
  21644120.2404    3035246.65946   2384277.41361
  21075775.748   -16618469.594 7 -12803561.34022
 91  3 29  0 16 59.9980000  0  5G15G 2G13G19G 6
  23431608.248    -1126890.144 5   -801825.72721
  20244574.732   -20274257.385 8 -15714223.01623
  23288556.3814    -523597.21245    -50918.10261
  21648829.2174    3059987.52846   2403555.97661
  21069250.928   -16652762.680 7 -12830283.17122
 91  3 29  0 17 14.9980000  0  5G15G 2G13G19G 6
  23425947.982    -1156632.513 5   -825001.45421
  20242751.561   -20283836.742 8 -15721687.43423
  23276128.537     -588907.507 5   -101808.84221
  21653551.428     3084801.788 6   2422891.71421
  21062730.342   -16687025.195 7 -12856981.18722
 91  3 29  0 17 29.9980000  0  5G15G 2G13G19G 6
  23420302.5764   -1186291.12745   -848111.93061
  20240938.178   -20293366.430 8 -15729113.14923
  23263707.498     -654190.166 5   -152678.07621
  21658283.998     3109682.055 6   2442278.89521
  21056215.482   -16721264.376 7 -12883661.01922
 91  3 29  0 17 44.9980000  0  5G15G 2G13G19G 6
  23414675.615    -1215866.406 5   -871157.47321
  20239134.373   -20302847.319 8 -15736500.83923
  23251290.170     -719445.729 5   -203526.20021
  21663031.5224    3134627.69546   2461717.01162
  21049704.615   -16755480.790 7 -12910323.11122
 91  3 29  0 17 59.9980000  0  5G15G 2G13G19G 6
  23409063.170    -1245361.756 5   -894140.72321
  20237338.311   -20312283.503 8 -15743853.69723
  23238875.0294    -784677.67645   -254355.94761
  21667790.3344    3159634.78146   2481203.01361
  21043196.881   -16789678.146 7 -12936970.35522
 91  3 29  0 18 14.9980000  0  5G15G 2G13G19G 6
  23403467.201    -1274773.464 5   -917058.81521
  20235551.186   -20321671.676 8 -15751169.14123
  23226466.076     -849882.185 5   -305164.28821
  21672561.7484    3184706.42746   2500739.32161
  21036693.061   -16823852.955 7 -12963600.02722
 91  3 29  0 18 29.9980000  0  5G15G 2G13G19G 6
  23397885.5534   -1304099.84346   -939910.41561
  20233774.412   -20331010.743 8 -15758446.32023
  23214063.607     -915057.611 5   -355949.98921
  21677345.4984    3209844.18546   2520327.15461
  21030194.404   -16858003.751 7 -12990210.99222
 91  3 29  0 18 44.9980000  0  5G15G 2G13G19G 6
  23392318.139    -1333337.744 6   -962693.07821
  20232006.740   -20340297.666 8 -15765682.87323
  23201667.7404    -980200.55845   -406710.32861
  21682143.1004    3235050.90046   2539968.71861
  21023701.522   -16892127.109 7 -13016800.57822
 91  3 29  0 18 59.9980000  0  5G15G 2G13G19G 6
  23386773.1234   -1362488.88346   -985408.13561
  20230249.482   -20349534.427 8 -15772880.33623
  23189277.584    -1045312.527 5   -457446.62021
  21686953.5614    3260324.61246   2559662.47961
  21017211.998   -16926224.898 7 -13043370.23822
 91  3 29  0 19 14.9980000  0  5G15G 2G13G19G 6
  23381241.3344   -1391560.09046  -1008060.89761
  20228499.998   -20358728.494 8 -15780044.53223
  23176890.670    -1110400.497 5   -508164.15321
  21691772.5454    3285658.01146   2579402.74661
  21010726.748   -16960304.253 7 -13069925.52722
 91  3 29  0 19 29.9970000  0  5G15G 2G13G19G 6
  23375726.642    -1420546.232 6  -1030647.38721
  20226759.360   -20367876.388 8 -15787172.74823
  23164509.564    -1175456.876 5   -558857.07521
  21696607.0174    3311052.35446   2599190.50661
  21004245.509   -16994359.770 7 -13096462.25122
 91  3 29  0 19 44.9970000  0  5G15G 2G13G19G 6
  23370224.743    -1449445.784 6  -1053166.39921
  20225027.829   -20376974.562 8 -15794262.22223
  23152137.439    -1240484.979 5   -609528.01521
  21701450.1184    3336515.92346   2619032.21161
  20997770.9704  -17028390.83447 -13122979.92062
 91  3 29  0 19 59.9970000  0  5G15G 2G13G19G 6
  23364743.3534   -1478264.11546  -1075622.12061
  20223304.360   -20386030.205 8 -15801318.55223
  23139763.556    -1305487.781 5   -660179.18821
  21706308.7354    3362039.24446   2638920.48261
  20991298.735   -17062402.750 7 -13149482.66522
 91  3 29  0 20 14.9970000  0  5G15G 2G13G19G 6
  23359276.9074   -1506987.64346  -1098003.96661
  20221591.696   -20395029.619 8 -15808331.07123
  23127402.712    -1370451.335 5   -710799.78321
  21711179.165     3387635.951 6   2658865.92421
  20984832.767   -17096381.604 7 -13175959.64522
 91  3 29  0 20 29.9970000  0  5G15G 2G13G19G 6
  23353825.142    -1535625.299 5  -1120318.91521
  20219888.501   -20403982.379 8 -15815307.23423
  23115046.4394   -1435384.70545   -761396.89061
  21716062.3534    3413296.50446   2678861.12761
  20978371.446   -17130336.668 7 -13202418.08522
 91  3 29  0 20 44.9970000  0  5G15G 2G13G19G 6
  23348391.478    -1564176.612 5  -1142566.57121
  20218192.939   -20412888.471 8 -15822247.03523
  23102694.970    -1500287.322 5   -811970.03221
  21720956.5794    3439021.07646   2698906.20261
  20971914.267   -17164267.638 7 -13228857.75122
 91  3 29  0 20 59.9970000  0  5G15G 2G13G19G 6
  23342976.5324   -1592639.11845  -1164745.03861
  20216507.407   -20421745.782 8 -15829148.82123
  23090351.4394   -1565156.59845   -862517.14861
  21725862.415     3464811.796 6   2719002.82221
  20965462.399   -17198172.115 7 -13255276.77922
 91  3 29  0 21 14.9970000  0  5G15G 2G13G19G 6
  23337578.095    -1621005.243 5  -1186848.40821
  20214833.142   -20430547.158 8 -15836007.02323
  23078016.462    -1629984.795 5   -913032.26521
  21730785.6184    3490675.77846   2739156.53561
  20959017.064   -17232042.718 7 -13281669.40322
 91  3 29  0 21 29.9970000  0  5G15G 2G13G19G 6
  23332198.1734   -1649283.13745  -1208883.02061
  20213167.423   -20439301.036 8 -15842828.21223
  23065685.6964   -1694780.26545   -963521.95061
  21735717.5484    3516604.59446   2759360.76761
  20952576.735   -17265887.593 7 -13308041.98422
 91  3 29  0 21 44.9970000  0  5G15G 2G13G19G 6
  23326831.4624   -1677474.29745  -1230850.05661
  20211510.017   -20448009.296 8 -15849613.85823
  23053360.7824   -1759544.71945  -1013987.41361
  21740666.4784    3542596.49246   2779614.15561
  20946140.946   -17299708.547 7 -13334395.92622
 91  3 29  0 21 59.9970000  0  5G15G 2G13G19G 6
  23321483.345    -1705585.417 5  -1252754.72421
  20209860.220   -20456679.158 8 -15856369.58223
  23041040.814    -1824284.492 5  -1064433.66121
  21745625.6344    3568644.40946   2799911.19261
  20939708.431   -17333512.225 7 -13360736.40222
 91  3 29  0 22 14.9970000  0  5G15G 2G13G19G 6
  23316151.728    -1733605.651 5  -1274588.56621
  20208218.9234  -20465300.39648 -15863087.41963
  23028727.462    -1888988.499 5  -1114852.01921
  21750591.353     3594758.705 6   2820259.94921
  20933280.767   -17367287.966 7 -13387055.11522
 91  3 29  0 22 29.9970000  0  5G15G 2G13G19G 6
  23310838.235    -1761534.613 5  -1296351.29121
  20206588.696   -20473872.721 8 -15869767.14023
  23016420.368    -1953656.433 5  -1165242.26021
  21755575.5644    3620939.48546   2840660.52261
  20926859.118   -17401035.433 7 -13413351.78822
 91  3 29  0 22 44.9970000  0  5G15G 2G13G19G 6
  23305535.5484   -1789375.07845  -1318045.07561
  20204965.118   -20482399.252 8 -15876411.17723
  23004121.7984   -2018291.03645  -1215606.57061
  21760570.8534    3647183.74946   2861110.55862
  20920441.485   -17434757.375 7 -13439628.57722
 91  3 29  0 22 59.9970000  0  5G15G 2G13G19G 6
  23300258.1964   -1817126.80645  -1339669.69561
  20203352.1424  -20490880.08848 -15883019.60863
  22991827.8604   -2082891.88045  -1265944.55361
  21765575.0244    3673491.33546   2881609.93361
  20914029.751   -17468453.655 7 -13465885.36422
 91  3 29  0 23 14.9970000  0  5G15G 2G13G19G 6
  23294993.4854   -1844785.59745  -1361221.89161
  20201747.118   -20499311.574 8 -15889589.58523
  22979540.517    -2147454.845 5  -1316253.03321
  21770592.7984    3699866.14846   2902161.69761
  20907622.548   -17502120.413 7 -13492119.14822
 91  3 29  0 23 29.9970000  0  5G15G 2G13G19G 6
  23289749.5244   -1872356.25145  -1382705.42161
  20200151.735   -20507698.801 8 -15896125.07323
  22967262.1814   -2211984.43845  -1366535.48461
  21775622.2984    3726303.16446   2922761.92661
  20901221.235   -17535762.375 7 -13518333.61022
 91  3 29  0 23 44.9970000  0  5G15G 2G13G19G 6
  23284519.079    -1899835.371 5  -1404117.61821
  20198564.462   -20516038.725 8 -15902623.69923
  22954987.610    -2276477.421 5  -1416789.42521
  21780668.196     3752805.477 6   2943413.03621
  20894824.337   -17569376.302 7 -13544526.22922
 91  3 29  0 23 59.9970000  0  5G15G 2G13G19G 6
  23279306.8064   -1927223.18745  -1425458.68361
  20196986.556   -20524332.289 8 -15909086.20223
  22942722.4854   -2340933.93345  -1467014.93161
  21785726.501     3779372.227 6   2964114.35921
  20888432.814   -17602962.631 7 -13570697.34322
 91  3 29  0 24 14.9970000  0  5G15G 2G13G19G 6
  23274112.3924   -1954518.24545  -1446727.45861
  20195417.212   -20532578.318 8 -15915511.66023
  22930462.8214   -2405352.35045  -1517210.78561
  21790791.3454    3806004.48746   2984866.73261
  20882047.212   -17636519.989 7 -13596845.88122
 91  3 29  0 24 29.9970000  0  5G15G 2G13G19G 6
  23268934.017    -1981721.201 5  -1467924.48621
  20193856.884   -20540777.961 8 -15921900.97423
  22918213.2124   -2469733.70645  -1567377.74261
  21795870.6574    3832701.11046   3005669.25461
  20875667.243   -17670049.230 7 -13622972.51022
 91  3 29  0 24 44.9970000  0  5G15G 2G13G19G 6
  23263778.1814   -2008831.16945  -1489049.05061
  20192305.189   -20548930.478 8 -15928253.56423
  22905965.8604   -2534076.78245  -1617514.86761
  21800963.954     3859462.939 6   3026522.58521
  20869291.649   -17703549.321 7 -13649076.42322
 91  3 29  0 24 59.9970000  0  5G15G 2G13G19G 6
  23258636.6424   -2035846.00445  -1510099.47261
  20190763.524   -20557033.991 8 -15934567.97023
  22893729.712    -2598379.257 5  -1667620.38821
  21806069.0094    3886291.94946   3047428.27261
  20862922.118   -17737018.203 7 -13675156.02322
 91  3 29  0 25 14.9970000  0  5G15G 2G13G19G 6
  23253511.4854   -2062770.67645  -1531079.65361
  20189229.556   -20565094.270 8 -15940848.68523
  22881502.767    -2662646.068 5  -1717698.08421
  21811189.4154    3913182.47946   3068381.89261
  20856557.970   -17770461.119 7 -13701215.38522
 91  3 29  0 25 29.9970000  0  5G15G 2G13G19G 6
  23248409.462    -2089593.420 6  -1551980.41121
  20187706.243   -20573099.704 8 -15947086.66523
  22869283.532    -2726865.237 5  -1767738.67921
  21816316.978     3940146.038 6   3089392.41021
  20850201.157   -17803866.280 7 -13727245.33522
 91  3 29  0 25 44.9970000  0  5G15G 2G13G19G 6
  23243322.0484   -2116323.95845  -1572809.31561
  20186191.868   -20581060.322 8 -15953289.72323
  22857065.6104   -2791046.38945  -1817749.64561
  21821461.7904    3967172.77946   3110452.17561
  20843850.079   -17837243.359 7 -13753253.39822
 91  3 29  0 25 59.9970000  0  5G15G 2G13G19G 6
  23238254.2984   -2142959.66046  -1593564.31561
  20184685.134   -20588974.074 8 -15959456.25823
  22844861.368    -2855187.362 5  -1867729.32121
  21826615.5644    3994264.68446   3131562.71261
  20837503.704   -17870590.176 7 -13779237.88422
 91  3 29  0 26 14.9970000  0  5G15G 2G13G19G 6
  23233201.884    -2169504.295 5  -1614248.34421
  20183187.821   -20596844.901 8 -15965589.34823
  22832662.517    -2919291.458 5  -1917680.24621
  21831785.2284    4021417.82646   3152720.97061
  20831162.579   -17903910.354 7 -13805201.61122
 91  3 29  0 26 29.9970000  0  5G15G 2G13G19G 6
  23228170.306    -2195952.567 5  -1634857.30121
  20181698.548   -20604667.803 8 -15971685.07923
  22820473.110    -2983353.254 5  -1967598.20621
  21836964.0404    4048637.28646   3173930.90261
  20824829.712   -17937198.631 7 -13831140.47622
 91  3 29  0 26 44.9970000  0  5G15G 2G13G19G 6
  23223154.1494   -2222303.72746  -1655390.58761
  20180219.954   -20612442.665 8 -15977743.40323
  22808289.2984   -3047371.93145  -2017482.60761
  21842156.392     4075923.173 6   3195192.59121
  20818500.798   -17970454.508 7 -13857054.09022
 91  3 29  0 26 59.9970000  0  5G15G 2G13G19G 6
  23218156.2674   -2248558.92946  -1675849.10461
  20178748.696   -20620170.780 8 -15983765.28323
  22796113.6894   -3111348.41045  -2067334.10861
  21847359.103     4103274.302 6   3216505.11421
  20812178.220   -18003679.008 7 -13882943.26122
 91  3 29  0 27 14.9970000  0  5G15G 2G13G19G 6
  23213179.8924   -2274720.70446  -1696234.80661
  20177286.439   -20627855.494 8 -15989753.34823
  22783947.134    -3175285.519 5  -2117154.93821
  21852576.7824    4130687.40046   3237865.93461
  20805861.806   -18036875.133 7 -13908810.31622
 91  3 29  0 27 29.9970000  0  5G15G 2G13G19G 6
  23208220.0174   -2300788.84345  -1716547.54961
  20175832.3294  -20635496.79848 -15995707.58463
  22771789.1654   -3239182.94645  -2166944.85561
  21857805.8374    4158162.64646   3259275.18061
  20799550.173   -18070042.560 7 -13934655.01222
 91  3 29  0 27 44.9970000  0  5G15G 2G13G19G 6
  23203275.0714   -2326765.07545  -1736788.68561
  20174385.860   -20643096.689 8 -16001629.55023
  22759635.2984   -3303042.14645  -2216704.99261
  21863046.001     4185698.003 6   3280731.25621
  20793244.321   -18103182.983 7 -13960478.66622
 91  3 29  0 27 59.9970000  0  5G15G 2G13G19G 6
  23198350.064    -2352643.170 5  -1756953.33821
  20172948.4394  -20650649.36748 -16007514.72663
  22747493.6964   -3366857.06945  -2266430.62461
  21868298.345     4213299.289 6   3302238.70721
  20786944.196   -18136290.381 7 -13986276.58522
 91  3 29  0 28 14.9970000  0  5G15G 2G13G19G 6
  23193447.595    -2378421.363 5  -1777040.15121
  20171521.095   -20658153.277 8 -16013361.90723
  22735355.892    -3430625.603 5  -2316120.10521
  21873563.728     4240967.994 6   3323798.69521
  20780650.064   -18169362.922 7 -14012047.34322
 91  3 29  0 28 29.9970000  0  5G15G 2G13G19G 6
  23188558.376    -2404104.551 5  -1797052.94021
  20170101.087   -20665613.937 8 -16019175.38423
  22723231.829    -3494352.904 5  -2365777.48521
  21878839.884     4268698.759 6   3345407.03421
  20774362.384   -18202405.830 7 -14037795.00922
 91  3 29  0 28 44.9970000  0  5G15G 2G13G19G 6
  23183688.4934   -2429693.64345  -1816992.38661
  20168689.478   -20673032.557 8 -16024956.09723
  22711109.7594   -3558039.82345  -2415403.36861
  21884130.478     4296490.146 6   3367062.61821
  20768079.360   -18235420.114 7 -14063520.38122
 91  3 29  0 28 59.9970000  0  5G15G 2G13G19G 6
  23178834.3144   -2455191.66645  -1836860.87561
  20167284.782   -20680412.324 8 -16030706.54423
  22698997.899    -3621688.989 5  -2464999.85721
  21889427.743     4324339.039 6   3388763.00121
  20761802.431   -18268408.550 7 -14089225.60522
 91  3 29  0 29 14.9970000  0  5G15G 2G13G19G 6
  23174003.329    -2480593.250 5  -1856654.22421
  20165888.853   -20687748.273 8 -16036422.84323
  22686894.142    -3685295.003 5  -2514562.71021
  21894739.907     4352250.418 6   3410512.07921
  20755531.298   -18301365.969 7 -14114906.66222
 91  3 29  0 29 29.9970000  0  5G15G 2G13G19G 6
  23169186.1034   -2505893.84345  -1876368.88161
  20164502.181   -20695036.492 8 -16042101.95223
  22674800.5174   -3748853.41345  -2564088.49361
  21900064.032     4380228.153 6   3432312.86221
  20749265.774   -18334288.047 7 -14140560.17722
 91  3 29  0 29 44.9970000  0  5G15G 2G13G19G 6
  23164393.564    -2531092.529 5  -1896004.13021
  20163124.407   -20702276.321 8 -16047743.35723
  22662714.2514   -3812363.20445  -2613576.35861
  21905401.126     4408273.159 6   3454166.06721
  20743007.806   -18367173.739 7 -14166185.34722
 91  3 29  0 29 59.9970000  0  5G15G 2G13G19G 6
  23159614.2594   -2556198.04645  -1915566.77561
  20161753.939   -20709476.654 8 -16053353.98323
  22650635.1264   -3875832.58245  -2663032.74961
  21910747.415     4436376.722 6   3476064.89921
  20736756.056   -18400031.814 7 -14191788.99322
 91  3 29  0 30 14.9970000  0  5G15G 2G13G19G 6
  23154856.0014   -2581202.53645  -1935050.71461
  20160392.665   -20716630.158 8 -16058928.11923
  22638567.8844   -3939253.91045  -2712451.69761
  21916108.587     4464546.081 6   3498014.99921
  20730508.524   -18432854.673 7 -14217365.20022
 91  3 29  0 30 29.9970000  0  5G15G 2G13G19G 6
  23150115.9544   -2606106.64245  -1954456.42861
  20159040.040   -20723737.949 8 -16064466.64023
  22626507.899    -4002627.765 5  -2761833.67021
  21921481.782     4492780.157 6   3520015.53121
  20724268.837   -18465642.975 7 -14242914.47822
 91  3 29  0 30 44.9970000  0  5G15G 2G13G19G 6
  23145399.5094   -2630906.80045  -1973781.14361
  20157696.798   -20730796.363 8 -16069966.68323
  22614456.7744   -4065950.11745  -2811175.49061
  21926867.798     4521082.414 6   3542069.18721
  20718036.829   -18498392.881 7 -14268433.83822
 91  3 29  0 30 59.9970000  0  5G15G 2G13G19G 6
  23140700.8064   -2655602.55345  -1993024.50661
  20156363.087   -20737805.606 8 -16075428.40923
  22602416.9624   -4129220.68745  -2860476.94761
  21932266.618     4549452.703 6   3564175.86421
  20711811.978   -18531104.206 7 -14293923.13722
 91  3 29  0 31 14.9970000  0  5G15G 2G13G19G 6
  23136018.657    -2680188.870 5  -2012182.59321
  20155040.337   -20744761.049 8 -16080848.21623
  22590386.2204   -4192434.62145  -2909734.31761
  21937679.071     4577895.750 6   3586339.23021
  20705595.814   -18563772.101 7 -14319378.59822
 91  3 29  0 31 29.9970000  0  5G15G 2G13G19G 6
  23131360.712    -2704670.190 5  -2031258.86421
  20153725.032   -20751667.461 8 -16086229.81823
  22578368.9544   -4255596.14845  -2958950.81561
  21943104.720     4606406.920 6   3608555.67921
  20699387.220   -18596400.989 7 -14344803.65922
 91  3 29  0 31 44.9970000  0  5G15G 2G13G19G 6
  23126724.571    -2729041.433 5  -2050249.39221
  20152421.649   -20758520.199 8 -16091569.59223
  22566359.5714   -4318700.15545  -3008122.52761
  21948543.446     4634990.935 6   3630828.88621
  20693185.728   -18628985.788 7 -14370194.36422
 91  3 29  0 31 59.9970000  0  5G15G 2G13G19G 6
  23122105.204    -2753310.791 5  -2069160.49421
  20151125.962   -20765327.634 8 -16096874.06823
  22554362.204    -4381754.516 5  -3057255.50721
  21953995.649     4663639.140 6   3653152.10721
  20686991.564   -18661534.857 7 -14395557.22822
 91  3 29  0 32 14.9970000  0  5G15G 2G13G19G 6
  23117507.7904   -2777469.67145  -2087985.52961
  20149840.868   -20772081.506 8 -16102136.80823
  22542372.8294   -4444750.60345  -3106343.12561
  21959461.290     4692360.009 6   3675531.96021
  20680806.915   -18694039.445 7 -14420885.42922
 91  3 29  0 32 29.9970000  0  5G15G 2G13G19G 6
  23112930.196    -2801522.982 5  -2106728.29021
  20148564.540   -20778787.270 8 -16107362.06023
  22530393.0714   -4507693.48945  -3155389.25861
  21964941.259     4721148.183 6   3697964.25021
  20674628.235   -18726504.756 7 -14446183.03522
 91  3 29  0 32 44.9970000  0  5G15G 2G13G19G 6
  23108372.1494   -2825468.93945  -2125387.41361
  20147298.251   -20785443.450 8 -16112548.67223
  22518428.282    -4570581.208 5  -3204392.38221
  21970431.649     4750005.036 6   3720450.06021
  20668459.017   -18758929.064 7 -14471448.68322
 91  3 29  0 32 59.9970000  0  5G15G 2G13G19G 6
  23103836.8604   -2849316.79245  -2143970.08761
  20146039.056   -20792059.487 8 -16117704.01523
  22506470.790    -4633422.559 5  -3253359.45421
  21975933.470     4778921.133 6   3742982.02421
  20662294.165   -18791321.384 7 -14496689.40822
 91  3 29  0 33 14.9970000  0  5G15G 2G13G19G 6
  23099319.9704   -2873054.46845  -2162466.91561
  20144789.8844  -20798623.74648 -16122819.00863
  22494522.681    -4696205.478 5  -3302280.90221
  21981448.970     4807908.324 6   3765569.40721
  20656139.017   -18823669.752 7 -14521895.88222
 91  3 29  0 33 29.9970000  0  5G15G 2G13G19G 6
  23094821.571    -2896683.749 5  -2180879.27021
  20143550.743   -20805138.369 8 -16127895.32423
  22482583.8454   -4758931.71945  -3351158.23261
  21986975.235     4836964.353 6   3788210.41821
  20649992.087   -18855976.015 7 -14547069.55022
 91  3 29  0 33 44.9970000  0  5G15G 2G13G19G 6
  23090345.923    -2920205.784 5  -2199208.05121
  20142320.032   -20811605.051 8 -16132934.28223
  22470660.4784   -4821602.50645  -3399992.36861
  21992520.384     4866087.510 6   3810903.73621
  20643851.134   -18888241.616 7 -14572211.53222
 91  3 29  0 33 59.9970000  0  5G15G 2G13G19G 6
  23085890.3764   -2943619.84145  -2217452.71161
  20141098.493   -20818023.318 8 -16137935.51623
  22458744.243    -4884217.080 5  -3448782.68621
  21998073.978     4895278.463 6   3833649.88921
  20637719.587   -18920465.688 7 -14597321.15422
 91  3 29  0 34 14.9970000  0  5G15G 2G13G19G 6
  23081456.876    -2966922.890 5  -2235610.85721
  20139886.2284  -20824390.16348 -16142896.68463
  22446839.4544   -4946771.99845  -3497526.48461
  22003643.946     4924539.920 6   3856450.97221
  20631595.462   -18952645.165 7 -14622396.02723
 91  3 29  0 34 29.9970000  0  5G15G 2G13G19G 6
  23077042.0014   -2990116.31345  -2253683.58561
  20138684.3064  -20830707.71648 -16147819.44263
  22434946.5324   -5009268.84445  -3546225.10061
  22009226.868     4953870.064 5   3879305.57721
  20625480.470   -18984781.628 7 -14647437.37822
 91  3 29  0 34 44.9970000  0  5G15G 2G13G19G 6
  23072647.899    -3013205.268 5  -2271674.90721
  20137490.2284  -20836981.37048 -16152707.99763
  22423065.0404   -5071712.45545  -3594882.17761
  22014817.587     4983263.369 5   3902209.39821
  20619372.118   -19016880.183 7 -14672449.19322
 91  3 29  0 34 59.9970000  0  5G15G 2G13G19G 6
  23068276.220    -3036185.288 5  -2289581.33921
  20136305.8764  -20843206.78048 -16157558.95663
  22411191.954    -5134098.493 5  -3643494.43121
  22020426.009     5012724.096 5   3925165.75721
  20613271.431   -19048936.388 7 -14697428.01122
 91  3 29  0 35 14.9970000  0  5G15G 2G13G19G 6
  23063922.923    -3059054.528 5  -2307401.44721
  20135130.7204  -20849382.61348 -16162371.28863
  22399330.1734   -5196424.85445  -3692060.16661
  22026043.876     5042253.843 6   3948175.89221
  20607179.634   -19080948.338 7 -14722372.34822
 91  3 29  0 35 29.9970000  0  5G15G 2G13G19G 6
  23059591.376    -3081815.852 5  -2325137.47221
  20133964.4154  -20855512.13048 -16167147.52663
  22387482.189    -5258694.378 6  -3740581.62721
  22031676.071     5071849.025 5   3971237.01921
  20601096.384   -19112919.300 7 -14747284.74423
 91  3 29  0 35 44.9970000  0  5G15G 2G13G19G 6
  23055281.7434   -3104472.52145  -2342791.93061
  20132805.6034  -20861598.79548 -16171890.37763
  22375644.524    -5320910.100 6  -3789061.14821
  22037318.5714    5101506.31245   3994346.53961
  20595019.2824  -19144852.28947 -14772167.55162
 91  3 29  0 35 59.9970000  0  5G15G 2G13G19G 6
  23050991.189    -3127021.264 5  -2360362.30221
  20131655.8684  -20867639.70948 -16176597.57463
  22363813.2984   -5383068.66246  -3837496.12661
  22042974.931     5131228.785 5   4017506.85521
  20588950.2594  -19176744.08847 -14797018.26863
 91  3 29  0 36 14.9970000  0  5G15G 2G13G19G 6
  23046715.251    -3149470.809 5  -2377855.37021
  20130514.2744  -20873643.86248 -16181276.12763
  22351993.939    -5445178.757 6  -3885893.35321
  22048642.228     5161007.329 5   4040710.86121
  20582887.5404  -19208603.50147 -14821843.74963
 91  3 29  0 36 29.9970000  0  5G15G 2G13G19G 6
  23042466.587    -3171814.966 6  -2395266.33121
  20129379.6964  -20879605.40548 -16185921.47863
  22340186.353    -5507234.358 6  -3934248.13221
  22054323.087     5190847.715 5   4063963.06021
  20576833.1964  -19240424.28247 -14846639.12463
 91  3 29  0 36 44.9970000  0  5G15G 2G13G19G 6
  23038234.415    -3194054.159 6  -2412595.49221
  20128252.9784  -20885525.21648 -16190534.30863
  22328387.415    -5569235.575 6  -3982560.52821
  22060010.314     5220749.231 5   4087262.88621
  20570784.3924  -19272206.96247 -14871404.81563
 91  3 29  0 36 59.9970000  0  5G15G 2G13G19G 6
  23034022.806    -3216184.656 6  -2429839.95421
  20127135.4784  -20891399.93848 -16195112.00563
  22316599.7044   -5631178.58546  -4030827.57761
  22065711.314     5250715.001 5   4110612.79321
  20564743.9704  -19303947.91247 -14896137.99062
 91  3 29  0 37 14.9970000  0  5G15G 2G13G19G 6
  23029829.3064   -3238214.01546  -2447005.61961
  20126024.1574  -20897237.27348 -16199660.56963
  22304822.306    -5693070.709 6  -4079054.95721
  22071426.267     5280737.387 5   4134006.80321
  20558710.8684  -19335654.62547 -14920844.48763
 91  3 29  0 37 29.9970000  0  5G15G 2G13G19G 6
  23025656.9784   -3260141.01146  -2464091.51961
  20124920.5174  -20903036.57448 -16204179.49863
  22293054.9314   -5754910.84746  -4127241.82161
  22077147.970     5310817.412 5   4157445.73021
  20552684.3214  -19367325.82547 -14945523.30763
 91  3 29  0 37 44.9970000  0  5G15G 2G13G19G 6
  23021506.665    -3281955.820 6  -2481089.99321
  20123826.165   -20908788.208 8 -16208661.27723
  22281296.251    -5816688.874 6  -4175380.32321
  22082886.3684    5340964.49345   4180936.90661
  20546665.8454  -19398951.61447 -14970166.74663
 91  3 29  0 37 59.9970000  0  5G15G 2G13G19G 6
  23017376.056    -3303662.621 6  -2498004.30721
  20122739.9464  -20914496.63648 -16213109.39463
  22269552.485    -5878408.919 6  -4223473.62721
  22088635.649     5371174.068 5   4204476.78121
  20540654.8844  -19430536.38947 -14994778.22863
 91  3 29  0 38 14.9970000  0  5G15G 2G13G19G 6
  23013264.2984   -3325261.06346  -2514834.19861
  20121661.946   -20920161.856 8 -16217523.83923
  22257819.8294   -5940070.55346  -4271521.42161
  22094395.673     5401446.153 5   4228065.37221
  20534652.7434  -19462079.87247 -15019357.53463
 91  3 29  0 38 29.9970000  0  5G15G 2G13G19G 6
  23009177.8144   -3346752.21146  -2531580.48561
  20120591.7904  -20925785.09448 -16221905.56963
  22246094.274    -6001674.284 6  -4319524.09121
  22100167.267     5431779.699 5   4251701.85021
  20528657.9704  -19493582.82747 -15043905.25863
 91  3 29  0 38 44.9970000  0  5G15G 2G13G19G 6
  23005105.415    -3368138.731 6  -2548245.22721
  20119529.454   -20931369.589 8 -16226257.11223
  22234382.540    -6063223.055 6  -4367483.95521
  22105953.454     5462171.553 5   4275383.76721
  20522670.8764  -19525048.16647 -15068423.67363
 91  3 29  0 38 59.9970000  0  5G15G 2G13G19G 6
  23001057.673    -3389416.663 5  -2564825.35921
  20118474.579   -20936911.643 8 -16230575.58223
  22222684.079    -6124712.951 6  -4415397.96521
  22111747.181     5492625.323 5   4299113.92321
  20516690.4704  -19556471.95547 -15092909.70963
 91  3 29  0 39 14.9970000  0  5G15G 2G13G19G 6
  22997025.220    -3410586.953 5  -2581321.63021
  20117428.173   -20942412.487 8 -16234861.94123
  22210991.267    -6186144.771 6  -4463266.67621
  22117554.142     5523139.666 5   4322891.28421
  20510718.1654  -19587855.14747 -15117364.11063
 91  3 29  0 39 29.9970000  0  5G15G 2G13G19G 6
  22993020.5954   -3431650.73845  -2597734.90461
  20116388.845   -20947873.417 8 -16239117.19523
  22199310.5244   -6247519.23046  -4511090.73561
  22123371.1494    5553713.14645   4346714.72061
  20504753.8684  -19619198.63747 -15141787.57463
 91  3 29  0 39 44.9970000  0  5G15G 2G13G19G 6
  22989032.024    -3452607.551 5  -2614064.81421
  20115357.181   -20953294.463 8 -16243341.37323
  22187643.0484   -6308835.91946  -4558869.74861
  22129202.095     5584345.900 5   4370584.35321
  20498797.0174  -19650502.15047 -15166179.89263
 91  3 29  0 39 59.9970000  0  5G15G 2G13G19G 6
  22985064.2824   -3473454.28945  -2630308.95461
  20114332.962   -20958672.837 8 -16247532.29523
  22175986.142    -6370091.834 6  -4606601.42521
  22135040.665     5615040.542 5   4394502.19621
  20492849.1654  -19681762.64447 -15190538.68263
 91  3 29  0 40 14.9970000  0  5G15G 2G13G19G 6
  22981116.3374   -3494191.03945  -2646467.38861
  20113318.017   -20964008.859 8 -16251690.22123
  22164342.142    -6431286.873 6  -4654285.64421
  22140896.009     5645796.879 5   4418468.13021
  20486908.1344  -19712980.20747 -15214864.02063
 91  3 29  0 40 29.9970000  0  5G15G 2G13G19G 6
  22977193.290    -3514820.896 5  -2662542.54121
  20112309.767   -20969306.066 8 -16255817.89923
  22152707.774    -6492423.849 6  -4701924.64021
  22146761.470     5676611.565 5   4442479.51621
  20480974.5794  -19744157.83947 -15239158.24063
 91  3 29  0 40 44.9970000  0  5G15G 2G13G19G 6
  22973286.9544   -3535341.89945  -2678532.86561
  20111310.095   -20974562.882 8 -16259914.10423
  22141086.0014   -6553501.05746  -4749517.06661
  22152634.5714    5707485.86645   4466537.35861
  20475050.1894  -19775293.70847 -15263419.92163
 91  3 29  0 40 59.9970000  0  5G15G 2G13G19G 6
  22969401.3454   -3555753.33945  -2694437.81061
  20110316.931   -20979778.593 8 -16263978.27623
  22129473.196    -6614517.160 6  -4797061.87321
  22158520.392     5738420.391 5   4490642.12221
  20469133.4234  -19806386.94047 -15287648.37563
 91  3 29  0 41 14.9970000  0  5G15G 2G13G19G 6
  22965540.5174   -3576051.38046  -2710254.40061
  20109332.939   -20984949.752 8 -16268007.73523
  22117875.610    -6675468.357 6  -4844556.09921
  22164419.931     5769418.842 5   4514796.70721
  20463224.2514  -19837433.75847 -15311840.66063
 91  3 29  0 41 29.9970000  0  5G15G 2G13G19G 6
  22961697.6264   -3596237.85246  -2725984.04561
  20108356.743   -20990078.283 8 -16272003.97723
  22106286.485    -6736356.296 6  -4892001.04121
  22170329.892     5800479.217 5   4538999.54721
  20457325.3064  -19868435.79947 -15335998.05863
 91  3 29  0 41 44.9970000  0  5G15G 2G13G19G 6
  22957879.5094   -3616314.99346  -2741628.50061
  20107387.774   -20995167.070 8 -16275969.24623
  22094713.8764   -6797183.33846  -4939398.53661
  22176251.165     5831598.447 5   4563248.23921
  20451434.2434  -19899395.61147 -15360122.54663
 91  3 29  0 41 59.9970000  0  5G15G 2G13G19G 6
  22954079.3684   -3636278.34346  -2757184.27161
  20106427.837   -21000212.103 8 -16279900.42123
  22083151.251    -6857944.818 6  -4986744.94421
  22182187.610     5862780.754 5   4587546.08821
  20445551.2824  -19930308.80647 -15384210.71063
 91  3 29  0 42 14.9970000  0  5G15G 2G13G19G 6
  22950301.7204   -3656133.98946  -2772656.14261
  20105475.720   -21005219.600 8 -16283802.35223
  22071598.454    -6918646.626 6  -5034044.84321
  22188130.3064    5894019.60345   4611887.98161
  20439676.4704  -19961181.34847 -15408267.19563
 91  3 29  0 42 29.9970000  0  5G15G 2G13G19G 6
  22946543.032    -3675874.320 6  -2788038.14221
  20104531.259   -21010182.297 8 -16287669.37123
  22060060.946    -6979281.188 6  -5081292.35821
  22194086.7904    5925322.39645   4636279.71461
  20433810.399   -19992005.561 7 -15432286.02323
 91  3 29  0 42 44.9970000  0  5G15G 2G13G19G 6
  22942811.673    -3695500.362 6  -2803331.09021
  20103595.040   -21015101.394 8 -16291502.41723
  22048534.735    -7039848.988 6  -5128487.85421
  22200055.7904    5956688.36745   4660720.67461
  20427954.5794  -20022782.24147 -15456267.80963
 91  3 29  0 42 59.9970000  0  5G15G 2G13G19G 6
  22939098.0644   -3715007.22346  -2818531.15661
  20102668.579   -21019972.329 8 -16295297.93223
  22037023.0094   -7100345.25746  -5175627.60261
  22206036.064     5988121.824 5   4685214.22021
  20422107.204   -20053506.679 7 -15480208.88723
 91  3 29  0 43 14.9970000  0  5G15G 2G13G19G 6
  22935408.4854   -3734397.69046  -2833640.53261
  20101749.853   -21024798.054 8 -16299058.21423
  22025524.7514   -7160772.83246  -5222713.82661
  22212031.3064    6019619.61545   4709757.89261
  20416269.720   -20084181.557 7 -15504111.34523
 91  3 29  0 43 29.9970000  0  5G15G 2G13G19G 6
  22931740.0324   -3753671.53146  -2848659.04861
  20100840.782   -21029578.896 8 -16302783.53323
  22014037.6494   -7221131.43446  -5269746.31061
  22218038.814     6051181.506 5   4734351.51721
  20410442.446   -20114806.806 7 -15527975.12923
 91  3 29  0 43 44.9970000  0  5G15G 2G13G19G 6
  22928096.751    -3772822.703 6  -2863581.96321
  20099939.665   -21034308.895 8 -16306469.23023
  22002565.7284   -7281414.62546  -5316720.03561
  22224057.5954    6082813.42745   4758999.71261
  20404624.978   -20145376.204 7 -15551795.39923
 91  3 29  0 43 59.9970000  0  5G15G 2G13G19G 6
  22924473.454    -3791860.701 6  -2878416.68621
  20099047.837   -21038997.760 8 -16310122.87223
  21991106.384    -7341631.603 6  -5363642.16321
  22230088.1654    6114505.73145   4783694.95661
  20398816.321   -20175899.110 7 -15575579.43723
 91  3 29  0 44 14.9970000  0  5G15G 2G13G19G 6
  22920875.446    -3810775.341 6  -2893155.29121
  20098165.032   -21043635.698 8 -16313736.83123
  21979660.6894   -7401772.19746  -5410504.78361
  22236132.3454    6146267.92745   4808444.66661
  20393018.696   -20206365.471 7 -15599319.41223
 91  3 29  0 44 29.9970000  0  5G15G 2G13G19G 6
  22917296.454    -3829570.516 6  -2907800.80921
  20097291.657   -21048226.999 8 -16317314.45223
  21968230.5644   -7461840.26146  -5457310.88961
  22242192.5714    6178096.02345   4833245.72361
  20387231.204   -20236779.067 7 -15623018.27223
 91  3 29  0 44 44.9970000  0  5G15G 2G13G19G 6
  22913744.407    -3848244.403 6  -2922351.81821
  20096427.915   -21052769.874 8 -16320854.33924
  21956815.407    -7521833.532 6  -5504058.69921
  22248259.110     6209991.662 5   4858099.40921
  20381454.728   -20267137.900 7 -15646674.45923
 91  3 29  0 44 59.9970000  0  5G15G 2G13G19G 6
  22910212.532    -3866793.998 6  -2936805.97121
  20095572.306   -21057261.585 8 -16324354.35923
  21945413.821    -7581749.162 6  -5550746.01421
  22254343.5404    6241957.49945   4883007.79261
  20375688.407   -20297439.064 7 -15670285.70923
 91  3 29  0 45 14.9970000  0  5G15G 2G13G19G 6
  22906704.439    -3885231.705 6  -2951172.95021
  20094724.837   -21061715.101 8 -16327824.61423
  21934024.978    -7641599.447 6  -5597382.42821
  22260434.5014    6273980.58845   4907960.78161
  20369930.2744  -20327695.21147 -15693861.88763
 91  3 29  0 45 29.9970000  0  5G15G 2G13G19G 6
  22903221.423    -3903543.026 6  -2965441.44421
  20093887.071   -21066116.242 8 -16331254.05823
  21922650.774    -7701369.987 6  -5643956.69821
  22266543.564     6306074.823 5   4932969.21921
  20364184.493   -20357891.880 7 -15717391.71123
 91  3 29  0 45 44.9970000  0  5G15G 2G13G19G 6
  22899758.5714   -3921734.04546  -2979616.19261
  20093058.821   -21070471.106 8 -16334647.44223
  21911289.7124   -7761066.72046  -5690473.46261
  22272661.6654    6338234.29945   4958028.49761
  20358448.571   -20388034.885 7 -15740879.72023
 91  3 29  0 45 59.9970000  0  5G15G 2G13G19G 6
  22896319.704    -3939806.545 6  -2993698.57521
  20092238.407   -21074781.993 8 -16338006.56123
  21899943.306    -7820690.974 6  -5736933.75321
  22278791.7514    6370456.91445   4983136.96961
  20352721.345   -20418125.929 7 -15764327.24523
 91  3 29  0 46 14.9970000  0  5G15G 2G13G19G 6
  22892903.1964   -3957761.52846  -3007689.41561
  20091426.189   -21079050.082 8 -16341332.32923
  21888611.282    -7880243.491 6  -5783338.13721
  22284939.087     6402741.386 5   5008293.64521
  20347005.767   -20448165.946 7 -15787735.00623
 91  3 29  0 46 29.9970000  0  5G15G 2G13G19G 6
  22889507.517    -3975602.109 6  -3021591.10821
  20090621.353   -21083278.958 8 -16344627.54123
  21877292.103    -7939727.925 6  -5829689.47521
  22291089.767     6435083.952 5   5033495.58521
  20341297.5874  -20478158.29747 -15811105.62863
 91  3 29  0 46 44.9970000  0  5G15G 2G13G19G 6
  22886136.9074   -3993322.42546  -3035399.08861
  20089825.251   -21087462.645 8 -16347887.54523
  21865987.392    -7999137.744 6  -5875982.67321
  22297259.009     6467490.551 5   5058747.43021
  20335601.657   -20508096.775 7 -15834434.27023
 91  3 29  0 46 59.9970000  0  5G15G 2G13G19G 6
  22882786.165    -4010922.821 6  -3049113.61121
  20089036.860   -21091601.994 8 -16351112.99523
  21854695.118    -8058473.259 6  -5922217.97521
  22303440.509     6499960.277 5   5084048.46721
  20329913.892   -20537981.757 7 -15857721.22623
 91  3 29  0 47 14.9970000  0  5G15G 2G13G19G 6
  22879460.8294   -4028397.81046  -3062730.42861
  20088258.9784  -21095691.65848 -16354299.73563
  21843418.3534   -8117728.84146  -5968391.00361
  22309630.220     6532498.321 5   5109402.72221
  20324237.7044  -20567807.70947 -15880962.18663
 91  3 29  0 47 29.9970000  0  5G15G 2G13G19G 6
  22876158.251    -4045750.902 6  -3076252.25021
  20087489.626   -21099735.585 8 -16357450.83323
  21832156.462    -8176907.962 6  -6014504.43121
  22315836.0094    6565100.86045   5134807.24461
  20318573.649   -20597578.109 7 -15904159.86023
 91  3 29  0 47 44.9970000  0  5G15G 2G13G19G 6
  22872880.5714   -4062980.34546  -3089677.73161
  20086729.212   -21103732.226 8 -16360565.08523
  21820910.860    -8236008.711 6  -6060556.80021
  22322050.407     6597769.544 5   5160263.30521
  20312919.431   -20627291.154 7 -15927312.83623
 91  3 29  0 47 59.9970000  0  5G15G 2G13G19G 6
  22869624.735    -4080085.790 6  -3103006.59621
  20085977.610   -21107681.443 8 -16363642.38423
  21809680.024    -8295030.624 6  -6106547.74421
  22328281.3924    6630504.30945   5185770.85761
  20307275.9934  -20656946.50947 -15950420.86663
 91  3 29  0 48 14.9970000  0  5G15G 2G13G19G 6
  22866395.126    -4097061.571 6  -3116234.42021
  20085236.837   -21111577.628 8 -16366678.35924
  21798464.0014   -8353967.58646  -6152472.48961
  22334523.0484    6663310.76845   5211334.27061
  20301645.4154  -20686538.25447 -15973479.32763
 91  3 29  0 48 29.9970000  0  5G15G 2G13G19G 6
  22863188.2594   -4113910.39346  -3129363.31561
  20084504.0244  -21115424.16148 -16369675.64763
  21787263.4934   -8412822.49246  -6198333.29561
  22340777.3294    6696185.59845   5236950.96461
  20296025.1034  -20716069.46947 -15996490.62663
 91  3 29  0 48 44.9970000  0  5G15G 2G13G19G 6
  22860002.5484   -4130643.27446  -3142401.86561
  20083779.8534  -21119232.27248 -16372642.99363
  21776077.3144   -8471606.27846  -6244138.67361
  22347045.939     6729117.626 5   5262612.21321
  20290414.8064  -20745550.89147 -16019463.12663
 91  3 29  0 48 59.9970000  0  5G15G 2G13G19G 6
  22856841.407    -4147263.921 6  -3155352.96121
  20083060.8294  -21123005.75348 -16375583.35563
  21764903.9934   -8530322.30546  -6289891.28361
  22353323.2044    6762102.85545   5288314.92361
  20284812.8764  -20774986.01747 -16042399.54963
 91  3 29  0 49 14.9970000  0  5G15G 2G13G19G 6
  22853700.712    -4163764.021 6  -3168210.12721
  20082351.7984  -21126736.65448 -16378490.54063
  21753745.720    -8588962.006 6  -6335584.39121
  22359612.5644    6795149.30945   5314065.34961
  20279222.9854  -20804366.66047 -16065293.51763
 91  3 29  0 49 29.9970000  0  5G15G 2G13G19G 6
  22850585.556    -4180140.800 6  -3180971.19921
  20081649.8534  -21130422.35548 -16381362.50663
  21742601.4394   -8647522.45146  -6381215.74161
  22365910.915     6828259.388 5   5339865.33821
  20273642.7674  -20833689.83947 -16088142.70863
 91  3 29  0 49 44.9970000  0  5G15G 2G13G19G 6
  22847492.407    -4196387.281 6  -3193630.72221
  20080958.7124  -21134056.19848 -16384194.06064
  21731473.6894   -8705996.74246  -6426779.97361
  22372224.9934    6861439.74845   5365720.10461
  20268075.2984  -20862948.53447 -16110941.65263
 91  3 29  0 49 59.9970000  0  5G15G 2G13G19G 6
  22844424.5404   -4212515.33646  -3206197.98461
  20080275.4854  -21137649.98548 -16386994.40363
  21720360.149    -8764396.115 6  -6472285.81921
  22378548.853     6894678.508 5   5391620.36721
  20262516.2984  -20892154.35847 -16133699.39963
 91  3 29  0 50 14.9970000  0  5G15G 2G13G19G 6
  22841378.5324   -4228519.28345  -3218668.53861
  20079598.4784  -21141198.74248 -16389759.65663
  21709262.7354   -8822715.30746  -6517729.18961
  22384887.610     6927980.764 5   5417570.12521
  20256970.6574  -20921301.93647 -16156411.75763
 91  3 29  0 50 29.9970000  0  5G15G 2G13G19G 6
  22838357.571    -4244398.824 6  -3231042.14821
  20078932.3604  -21144702.43548 -16392489.79563
  21698179.9704   -8880953.93546  -6563109.79261
  22391236.4464    6961346.36645   5443569.22861
  20251434.9624  -20950390.99947 -16179078.52163
 91  3 29  0 50 44.9970000  0  5G15G 2G13G19G 6
  22835357.0404   -4260156.87146  -3243321.08261
  20078273.524   -21148163.924 8 -16395187.04824
  21687112.7354   -8939114.36846  -6608429.44861
  22397599.2984    6994772.48645   5469615.48661
  20245910.5954  -20979424.11047 -16201701.68563
 91  3 29  0 50 59.9970000  0  5G15G 2G13G19G 6
  22832384.4624   -4275790.22846  -3255502.86361
  20077623.6034  -21151580.52148 -16397849.32163
  21676060.6344   -8997193.48146  -6653685.74561
  22403971.1034    7028261.93145   5495711.09061
  20240396.4854  -21008398.15947 -16224278.82463
 91  3 29  0 51 14.9970000  0  5G15G 2G13G19G 6
  22829432.1184   -4291301.13245  -3267589.21561
  20076981.8604  -21154954.68648 -16400478.53063
  21665023.274    -9055193.568 6  -6698880.46621
  22410354.4624    7061812.11945   5521854.02661
  20234893.7594  -21037315.32647 -16246811.64063
 91  3 29  0 51 29.9970000  0  5G15G 2G13G19G 6
  22826502.6654   -4306686.60745  -3279577.85161
  20076347.8374  -21158283.55248 -16403072.44164
  21654001.8454   -9113111.10346  -6744010.85761
  22416754.9784    7095425.82645   5548046.45561
  20229402.1494  -21066172.40747 -16269297.63663
 91  3 29  0 51 44.9970000  0  5G15G 2G13G19G 6
  22823601.0094   -4321943.36646  -3291466.17661
  20075724.345   -21161564.279 8 -16405628.84024
  21642996.6964   -9170942.81346  -6789074.38061
  22423160.954     7129105.882 5   5574290.57921
  20223923.3844  -21094966.13247 -16291734.26763
 91  3 29  0 51 59.9970000  0  5G15G 2G13G19G 6
  22820721.5404   -4337076.68246  -3303258.31561
  20075107.9234  -21164802.07048 -16408151.78464
  21632007.1264   -9228693.74846  -6834074.96161
  22429582.212     7162846.928 5   5600582.22721
  20218454.9544  -21123701.44847 -16314125.38863
 91  3 29  0 52 14.9970000  0  5G15G 2G13G19G 6
  22817864.626    -4352087.105 5  -3314954.70121
  20074499.5484  -21167997.95748 -16410642.07663
  21621033.3214   -9286364.39846  -6879012.96761
  22436014.392     7196647.908 5   5626920.59121
  20212997.6184  -21152379.24847 -16336471.68763
 91  3 29  0 52 29.9970000  0  5G15G 2G13G19G 6
  22815031.509    -4366971.438 5  -3326552.83021
  20073900.6104  -21171148.69248 -16413097.18164
  21610075.0174   -9343951.35246  -6923885.76961
  22442458.126     7230511.829 5   5653307.99121
  20207552.6574  -21180996.08047 -16358770.48163
 91  3 29  0 52 44.9970000  0  5G15G 2G13G19G 6
  22812223.978    -4381733.919 6  -3338056.01121
  20073307.7434  -21174258.88448 -16415520.69864
  21599131.0324   -9401458.70046  -6968696.54661
  22448913.8684    7264434.16345   5679740.90561
  20202117.0094  -21209556.15147 -16381025.04763
 91  3 29  0 52 59.9970000  0  5G15G 2G13G19G 6
  22809436.7434   -4396372.28846  -3349462.46961
  20072724.8764  -21177326.65948 -16417911.16064
  21588202.9154   -9458884.09746  -7013443.45061
  22455381.7124    7298416.79345   5706220.81261
  20196694.2284  -21238057.12547 -16403233.56263
 91  3 29  0 53 14.9970000  0  5G15G 2G13G19G 6
  22806674.814    -4410883.969 6  -3360770.23721
  20072148.9704  -21180349.69648 -16420266.76364
  21577291.165    -9516224.797 6  -7058124.37321
  22461858.7514    7332462.04945   5732749.51461
  20191281.6734  -21266496.33547 -16425393.95663
 91  3 29  0 53 29.9970000  0  5G15G 2G13G19G 6
  22803936.978    -4425274.981 6  -3371983.95621
  20071581.1734  -21183334.05848 -16422592.22964
  21566394.814    -9573486.643 6  -7102743.85921
  22468348.220     7366563.710 5   5759322.15921
  20185880.3294  -21294879.53747 -16447510.69863
 91  3 29  0 53 44.9970000  0  5G15G 2G13G19G 6
  22801223.759    -4439540.112 6  -3383099.58621
  20071022.2354  -21186274.75848 -16424883.67664
  21555513.962    -9630664.172 6  -7147297.62021
  22474851.274     7400726.609 5   5785942.52721
  20180490.5564  -21323201.62247 -16469579.82163
 91  3 29  0 53 59.9970000  0  5G15G 2G13G19G 6
  22798530.595    -4453682.332 6  -3394119.46021
  20070469.884   -21189174.974 8 -16427143.57124
  21544649.2674   -9687760.41046  -7191788.04961
  22481360.595     7434947.724 5   5812608.26921
  20175112.1264  -21351465.35347 -16491603.47363
 91  3 29  0 54 14.9970000  0  5G15G 2G13G19G 6
  22795862.946    -4467695.665 6  -3405038.88521
  20069927.4544  -21192029.12748 -16429367.57764
  21533799.423    -9744769.152 6  -7236210.30221
  22487887.103     7469232.544 5   5839323.64621
  20169746.9464  -21379664.69747 -16513576.95063
 91  3 29  0 54 29.9970000  0  5G15G 2G13G19G 6
  22793220.829    -4481588.562 6  -3415864.47521
  20069390.470   -21194845.930 8 -16431562.47524
  21522966.5874   -9801698.48946  -7280570.68061
  22494420.767     7503572.386 5   5866081.89021
  20164390.6574  -21407808.15047 -16535506.88063
 91  3 29  0 54 44.9970000  0  5G15G 2G13G19G 6
  22790600.970    -4495354.587 6  -3426591.20621
  20068863.267   -21197619.086 8 -16433723.36324
  21512149.5794   -9858541.86946  -7324864.09261
  22500967.9784    7537973.49345   5892887.88061
  20159047.5954  -21435889.02647 -16557388.04463
 91  3 29  0 54 59.9970000  0  5G15G 2G13G19G 6
  22788005.329    -4508995.137 6  -3437220.15721
  20068343.7744  -21200349.97248 -16435851.31364
  21501349.884    -9915300.659 6  -7369091.57921
  22507524.9704    7572434.09445   5919740.23161
  20153715.3064  -21463908.63547 -16579221.47063
 91  3 29  0 55 14.9970000  0  5G15G 2G13G19G 6
  22785434.751    -4522503.530 6  -3447746.13521
  20067833.103   -21203032.067 8 -16437941.24424
  21490565.501    -9971967.976 6  -7413247.80121
  22514093.4624    7606960.66145   5946643.97561
  20148396.0174  -21491860.05247 -16601001.76263
 91  3 29  0 55 29.9970000  0  5G15G 2G13G19G 6
  22782888.743    -4535891.814 6  -3458178.51721
  20067329.126   -21205677.780 8 -16440002.82523
  21479796.587   -10028555.742 6  -7457342.01921
  22520675.0094    7641540.84445   5973589.50061
  20143087.3454  -21519755.45047 -16622738.40263
 91  3 29  0 55 44.9970000  0  5G15G 2G13G19G 6
  22780360.884    -4549159.876 6  -3468517.22821
  20066833.290   -21208287.457 8 -16442036.32624
  21469043.165   -10085063.515 6  -7501373.92321
  22527269.079     7676174.472 5   6000576.66321
  20137791.0714  -21547594.55247 -16644431.17863
 91  3 29  0 55 59.9970000  0  5G15G 2G13G19G 6
  22777858.5644   -4562303.28246  -3478758.80261
  20066344.571   -21210856.904 8 -16444038.48123
  21458307.5564  -10141487.02046  -7545340.16461
  22533869.056     7710865.632 5   6027608.65221
  20132504.0714  -21575372.96647 -16666076.66363
 91  3 29  0 56 14.9970000  0  5G15G 2G13G19G 6
  22775383.282    -4575322.820 6  -3488903.84321
  20065862.392   -21213387.035 8 -16446009.99723
  21447585.360   -10197827.007 6  -7589241.30821
  22540480.579     7745613.368 5   6054684.74221
  20127230.0094  -21603091.37247 -16687675.38563
 91  3 29  0 56 29.9970000  0  5G15G 2G13G19G 6
  22772930.259    -4588215.388 6  -3498949.96221
  20065388.8924  -21215874.81048 -16447948.51163
  21436881.501   -10254079.890 6  -7633074.58821
  22547104.274     7780420.489 5   6081807.09621
  20121967.3924  -21630746.36047 -16709224.69163
 91  3 29  0 56 44.9970000  0  5G15G 2G13G19G 6
  22770500.298    -4600981.663 6  -3508897.66621
  20064922.345   -21218321.230 8 -16449854.80023
  21426194.3144  -10310246.23246  -7676840.44761
  22553739.7044    7815285.98345   6108974.93561
  20116716.4154  -21658338.71147 -16730725.19463
 91  3 29  0 56 59.9970000  0  5G15G 2G13G19G 6
  22768094.423    -4613621.954 6  -3518747.20021
  20064466.212   -21220726.843 8 -16451729.29223
  21415520.8684  -10366325.98846  -7720538.83061
  22560385.181     7850209.290 5   6136187.81521
  20111477.2284  -21685868.48947 -16752176.93263
 91  3 29  0 57 14.9970000  0  5G15G 2G13G19G 6
  22765713.040    -4626140.035 6  -3528501.50421
  20064015.1184  -21223095.58948 -16453575.05663
  21404865.8534  -10422322.83546  -7764172.61161
  22567038.212     7885186.314 5   6163442.55721
  20106250.1034  -21713339.32447 -16773582.74963
 91  3 29  0 57 29.9970000  0  5G15G 2G13G19G 6
  22763354.3924   -4638529.65746  -3538155.71661
  20063572.173   -21225421.350 8 -16455387.32423
  21394226.556   -10478230.495 6  -7807736.87921
  22573710.439     7920223.118 5   6190743.89521
  20101035.1494  -21740744.99247 -16794937.78063
 91  3 29  0 57 44.9970000  0  5G15G 2G13G19G 6
  22761024.048    -4650787.326 6  -3547707.10121
  20063138.321   -21227700.924 8 -16457163.60423
  21383605.157   -10534045.172 6  -7851228.71121
  22580388.001     7955323.177 5   6218094.50921
  20095833.3454  -21768081.80847 -16816239.16363
 91  3 29  0 57 59.9970000  0  5G15G 2G13G19G 6
  22758715.517    -4662911.238 6  -3557154.25321
  20062713.728   -21229932.742 8 -16458902.67123
  21373000.7904  -10589765.18146  -7894646.76761
  22587079.946     7990487.753 5   6245495.39321
  20090643.8214  -21795347.99047 -16837485.51263
 91  3 29  0 58 14.9970000  0  5G15G 2G13G19G 6
  22756432.345    -4674904.806 6  -3566499.84521
  20062297.829   -21232120.140 8 -16460607.12523
  21362416.0094  -10645393.39746  -7937993.31461
  22593783.751     8025713.217 5   6272943.72621
  20085468.1104  -21822546.62847 -16858679.22063
 91  3 29  0 58 29.9970000  0  5G15G 2G13G19G 6
  22754174.298    -4686773.031 6  -3575747.77121
  20061888.524   -21234268.404 8 -16462281.08523
  21351846.7434  -10700934.85846  -7981272.24261
  22600491.790     8060994.143 5   6300435.28021
  20080305.7354  -21849682.69347 -16879824.18163
 91  3 29  0 58 44.9970000  0  5G15G 2G13G19G 6
  22751941.017    -4698510.051 6  -3584893.45821
  20061487.9074  -21236371.83248 -16463920.10863
  21341295.978   -10756383.454 6  -8024478.80621
  22607221.0874    8096336.32645   6327974.57361
  20075153.5094  -21876750.14747 -16900915.67063
 91  3 29  0 58 59.9970000  0  5G15G 2G13G19G 6
  22749732.1494   -4710118.07046  -3593938.60761
  20061097.0484  -21238432.93448 -16465526.15163
  21330760.6894  -10811741.12446  -8067614.53261
  22613955.3374    8131737.23245   6355559.60561
  20070016.0564  -21903751.01147 -16921955.27663
 91  3 29  0 59 14.9970000  0  5G15G 2G13G19G 6
  22747548.212    -4721596.612 6  -3602882.87621
  20060711.9314  -21240451.47948 -16467099.03764
  21320243.142   -10867007.441 6  -8110679.06721
  22620705.259     8167197.013 5   6383190.52221
  20064890.2434  -21930684.85747 -16942942.66263
 91  3 29  0 59 29.9970000  0  5G15G 2G13G19G 6
  22745388.6104   -4732950.81846  -3611730.25361
  20060334.485   -21242432.646 8 -16468642.78724
  21309742.899   -10922187.242 6  -8153676.18721
  22627465.610     8202710.347 5   6410863.17421
  20059776.5794  -21957556.55947 -16963881.62263
 91  3 29  0 59 44.9970000  0  5G15G 2G13G19G 6
  22743249.892    -4744176.326 6  -3620477.35121
  20059965.5484  -21244372.48548 -16470154.33664
  21299260.4154  -10977275.86546  -8196602.25761
  22634231.853     8238281.165 5   6438580.61021
  20054676.5794  -21984361.82247 -16984768.81063
 91  3 29  0 59 59.9970000  0  5G15G 2G13G19G 6
  22741141.673    -4755267.930 6  -3629120.10721
  20059604.9784  -21246265.67848 -16471629.54464
  21288795.6814  -11032267.79146  -8239452.98661
  22641013.0094    8273914.69045   6466346.89761
  20049588.9074  -22011095.03747 -17005599.85363
 91  3 29  1  0 14.9970000  0  5G15G 2G13G19G 6
  22739054.2904   -4766229.47846  -3637661.51461
  20059252.9314  -21248116.28348 -16473071.56264
  21278347.8534  -11087166.80146  -8282231.30661
  22647807.6104    8309606.71145   6494158.79361
  20044514.8924  -22037759.93947 -17026377.67363
 91  3 29  1  0 29.9970000  0  5G15G 2G13G19G 6
  22736993.6964   -4777059.91546  -3646100.74861
  20058909.103   -21249923.611 8 -16474479.85624
  21267919.2514  -11141971.89946  -8324936.44761
  22654607.3534    8345358.06745   6522016.90861
  20039453.3144  -22064355.51847 -17047101.46863
 91  3 29  1  0 44.9970000  0  5G15G 2G13G19G 6
  22734954.7824   -4787760.48546  -3654438.79561
  20058573.9154  -21251689.07548 -16475855.53664
  21257508.2284  -11196684.22946  -8367569.31361
  22661423.439     8381167.315 5   6549920.14521
  20034406.1814  -22090882.80947 -17067772.05363
 91  3 29  1  0 59.9970000  0  5G15G 2G13G19G 6
  22732944.673    -4798330.283 6  -3662674.94021
  20058245.907   -21253411.806 8 -16477197.91024
  21247114.0794  -11251302.59646  -8410128.94861
  22668246.814     8417035.126 5   6577869.01121
  20029370.3764  -22117340.76547 -17088388.61363
 91  3 29  1  1 14.9970000  0  5G15G 2G13G19G 6
  22730958.7124   -4808775.76745  -3670814.22261
  20057923.7824  -21255098.66948 -16478512.34064
  21236736.009   -11305833.285 6  -8452620.27321
  22675082.1734    8452954.47845   6605858.03761
  20024348.2434  -22143735.99647 -17108956.28863
 91  3 29  1  1 29.9970000  0  5G15G 2G13G19G 6
  22728994.899    -4819087.803 6  -3678849.53121
  20057612.5244  -21256740.89448 -16479791.98864
  21226378.5324  -11360266.88746  -8495035.94761
  22681933.1734    8488934.06345   6633894.00361
  20019338.8684  -22170059.20847 -17129467.84763
 91  3 29  1  1 44.9970000  0  5G15G 2G13G19G 6
  22727058.8534   -4829265.37045  -3686780.04461
  20057308.7124  -21258337.27648 -16481035.91364
  21216038.181   -11414602.332 6  -8537375.12521
  22688791.5644    8524974.96645   6661977.73361
  20014343.6344  -22196309.04547 -17149922.23763
 91  3 29  1  1 59.9970000  0  5G15G 2G13G19G 6
  22725145.626    -4839312.981 6  -3694609.29021
  20057012.7824  -21259892.43348 -16482247.71264
  21205717.735   -11468843.865 6  -8579641.13021
  22695657.189     8561072.661 5   6690105.73321
  20009362.1734  -22222489.82247 -17170322.81063
 91  3 29  1  2 14.9970000  0  5G15G 2G13G19G 6
  22723259.548    -4849230.353 6  -3702337.05421
  20056724.407   -21261406.311 8 -16483427.34424
  21195413.0714  -11522991.01446  -8621833.59761
  22702541.4704    8597226.96145   6718277.81961
  20004392.6344  -22248600.99247 -17190669.13863
 91  3 29  1  2 29.9970000  0  5G15G 2G13G19G 6
  22721394.353    -4859020.056 6  -3709965.35021
  20056443.798   -21262881.735 8 -16484577.00924
  21185125.4074  -11577046.31246  -8663954.47461
  22709427.837     8633434.921 5   6746491.73421
  19999436.9154  -22274645.20047 -17210963.28563
 91  3 29  1  2 44.9970000  0  5G15G 2G13G19G 6
  22719559.173    -4868681.770 6  -3717493.89821
  20056170.3064  -21264318.67148 -16485696.69064
  21174856.1574  -11631009.40846  -8706003.52161
  22716330.509     8669696.555 5   6774747.47321
  19994494.0484  -22300622.16147 -17231205.03963
 91  3 29  1  2 59.9970000  0  5G15G 2G13G19G 6
  22717745.665    -4878211.682 6  -3724919.75721
  20055904.462   -21265713.179 8 -16486783.30524
  21164608.4784  -11684875.90346  -8747977.29161
  22723241.7204    8706015.71845   6803048.03061
  19989564.1104  -22326527.63547 -17251391.08763
 91  3 29  1  3 14.9970000  0  5G15G 2G13G19G 6
  22715951.681    -4887617.471 6  -3732248.89521
  20055645.915   -21267073.104 8 -16487842.97424
  21154374.4464  -11738653.30446  -8789881.63961
  22730160.196     8742384.403 5   6831387.18121
  19984646.7044  -22352369.17747 -17271527.30963
 91  3 29  1  3 29.9970000  0  5G15G 2G13G19G 6
  22714188.696    -4896886.680 6  -3739471.60321
  20055396.431   -21268386.394 8 -16488866.29924
  21144159.3214  -11792329.04946  -8831706.76961
  22737091.892     8778814.619 5   6859774.28421
  19979743.8534  -22378134.23347 -17291603.94463
 91  3 29  1  3 44.9970000  0  5G15G 2G13G19G 6
  22712451.251    -4906024.090 6  -3746591.61721
  20055153.728   -21269657.872 8 -16489857.04624
  21133963.454   -11845907.891 6  -8873456.39821
  22744036.5644    8815301.48345   6888205.51161
  19974853.8994  -22403827.48147 -17311624.62163
 91  3 29  1  3 59.9970000  0  5G15G 2G13G19G 6
  22710736.9854   -4915027.71846  -3753607.38561
  20054920.892   -21270885.872 8 -16490813.90923
  21123786.6264  -11899387.66446  -8915128.82661
  22750991.5874    8851846.58045   6916682.12861
  19969978.4314  -22429446.89747 -17331587.75863
 91  3 29  1  4 14.9970000  0  5G15G 2G13G19G 6
  22709048.728    -4923895.323 6  -3760517.15821
  20054695.954   -21272068.231 8 -16491735.21023
  21113628.3994  -11952765.79346  -8956722.05261
  22757960.259     8888451.933 5   6945205.70521
  19965117.9544  -22454989.94947 -17351491.39963
 91  3 29  1  4 29.9970000  0  5G15G 2G13G19G 6
  22707387.134    -4932631.043 6  -3767324.17321
  20054479.251   -21273208.981 8 -16492624.08623
  21103491.0174  -12006046.02446  -8998238.99061
  22764933.485     8925113.520 5   6973773.09121
  19960270.8374  -22480460.34647 -17371338.42263
 91  3 29  1  4 44.9970000  0  5G15G 2G13G19G 6
  22705748.7434   -4941240.94646  -3774033.15461
  20054268.540   -21274314.261 8 -16493485.32323
  21093368.2824  -12059234.31946  -9039684.29161
  22771917.618     8961825.110 5   7002379.44021
  19955436.4544  -22505864.02347 -17391133.45763
 91  3 29  1  4 59.9970000  0  5G15G 2G13G19G 6
  22704136.3144   -4949719.26146  -3780639.60161
  20054064.431   -21275378.751 8 -16494314.77823
  21083264.1344  -12112324.97146  -9081053.51661
  22778915.353     8998592.019 5   7031028.89521
  19950617.1494  -22531195.22647 -17410872.01963
 91  3 29  1  5 14.9970000  0  5G15G 2G13G19G 6
  22702550.774    -4958064.887 6  -3787142.64321
  20053870.110   -21276401.759 8 -16495111.90623
  21073181.4154  -12165316.81246  -9122345.73461
  22785923.5324    9035414.82045   7059721.90561
  19945810.4394  -22556453.04747 -17430553.39963
 91  3 29  1  5 29.9970000  0  5G15G 2G13G19G 6
  22700985.2594   -4966283.71846  -3793546.89161
  20053683.064   -21277389.215 8 -16495881.33323
  21063114.8374  -12218215.31946  -9163565.22861
  22792941.8534    9072287.49445   7088453.77461
  19941016.7124  -22581642.99547 -17450181.89363
 91  3 29  1  5 44.9970000  0  5G15G 2G13G19G 6
  22699444.665    -4974368.601 6  -3799846.76621
  20053502.501   -21278333.788 8 -16496617.34523
  21053066.353   -12271013.171 6  -9204706.29321
  22799966.485     9109217.175 5   7117230.06821
  19936237.3144  -22606757.59247 -17469751.67063
 91  3 29  1  5 59.9970000  0  5G15G 2G13G19G 6
  22697933.407    -4982324.204 6  -3806045.89221
  20053330.032   -21279240.382 8 -16497323.76123
  21043037.298   -12323714.682 6  -9245772.29021
  22807005.0174    9146198.65245   7146046.71461
  19931471.3604  -22631801.38347 -17489266.27663
 91  3 29  1  6 14.9970000  0  5G15G 2G13G19G 6
  22696443.7744   -4990142.23046  -3812137.84961
  20053167.954   -21280100.832 8 -16497994.22223
  21033029.7744  -12376311.55446  -9286756.74861
  22814051.5244    9183240.00044   7174910.00461
  19926720.7984  -22656765.90447 -17508719.11063
 91  3 29  1  6 29.9970000  0  5G15G 2G13G19G 6
  22694982.7204   -4997830.00846  -3818128.29061
  20053010.173   -21280922.605 8 -16498634.54823
  21023039.6894  -12428810.90346  -9327665.20661
  22821111.6654    9220333.76445   7203814.14161
  19921984.0874  -22681658.33947 -17528115.77663
 91  3 29  1  6 44.9970000  0  5G15G 2G13G19G 6
  22693542.9154   -5005383.96546  -3824014.45861
  20052861.478   -21281702.270 8 -16499242.06224
  21013068.540   -12481208.942 6  -9368494.73521
  22828182.704     9257483.357 5   7232761.79521
  19917260.7904  -22706474.95047 -17547453.36163
 91  3 29  1  6 59.9970000  0  5G15G 2G13G19G 6
  22692130.5174   -5012810.96546  -3829801.69761
  20052721.017   -21282446.860 8 -16499822.24724
  21003114.649   -12533512.265 6  -9409250.45821
  22835261.962     9294681.837 5   7261747.52121
  19912552.4234  -22731222.40947 -17566737.05863
 91  3 29  1  7 14.9970000  0  5G15G 2G13G19G 6
  22690743.814    -5020100.202 6  -3835481.59221
  20052586.595   -21283145.751 8 -16500366.82223
  20993182.892   -12585709.841 6  -9449923.78721
  22842351.7674    9331939.48745   7290779.36561
  19907858.5954  -22755889.97247 -17585958.49863
 91  3 29  1  7 29.9970000  0  5G15G 2G13G19G 6
  22689381.7514   -5027262.02646  -3841062.22461
  20052460.774   -21283809.250 8 -16500883.82024
  20983268.5644  -12637811.88846  -9490522.66261
  22849448.399     9369245.722 4   7319849.05921
  19903177.0484  -22780487.60147 -17605125.44663
 91  3 29  1  7 44.9970000  0  5G15G 2G13G19G 6
  22688042.8924   -5034294.83246  -3846542.30061
  20052339.9624  -21284435.94048 -16501372.13664
  20973370.548   -12689816.492 6  -9531045.61621
  22856557.314     9406601.987 4   7348957.75421
  19898510.0244  -22805013.46047 -17624236.47563
 91  3 29  1  7 59.9970000  0  5G15G 2G13G19G 6
  22686727.1814   -5041196.09446  -3851919.87761
  20052228.298   -21285023.412 8 -16501829.89524
  20963493.1034  -12741720.99746  -9571490.56861
  22863676.939     9444010.625 4   7378107.24921
  19893856.8684  -22829464.87147 -17643289.48563
 91  3 29  1  8 14.9970000  0  5G15G 2G13G19G 6
  22685438.282    -5047969.449 6  -3857197.79021
  20052124.298   -21285575.779 8 -16502260.29324
  20953635.696   -12793529.222 6  -9611860.50221
  22870806.0644    9481467.56344   7407294.37961
  19889218.1344  -22853845.45447 -17662287.30763
 91  3 29  1  8 29.9970000  0  5G15G 2G13G19G 6
  22684174.5484   -5054608.47646  -3862371.02061
  20052029.5794  -21286086.46448 -16502658.22064
  20943796.384   -12845234.240 6  -9652150.02321
  22877945.517     9518979.091 4   7436524.03821
  19884593.2124  -22878148.53447 -17681224.74063
 91  3 29  1  8 44.9970000  0  5G15G 2G13G19G 6
  22682936.829    -5061120.268 6  -3867445.12821
  20051935.7984  -21286562.57048 -16503029.20064
  20933974.439   -12896842.973 6  -9692364.50821
  22885090.8924    9556538.01344   7465790.65061
  19879981.5174  -22902380.79947 -17700106.99163
 91  3 29  1  8 59.9970000  0  5G15G 2G13G19G 6
  22681722.7514   -5067502.29346  -3872418.09861
  20051853.4394  -21287001.93348 -16503371.54764
  20924173.064   -12948352.655 6  -9732501.81121
  22892250.0094    9594146.56944   7495095.92761
  19875384.7204  -22926539.84447 -17718932.19263
 91  3 29  1  9 14.9970000  0  5G15G 2G13G19G 6
  22680535.5244   -5073754.63946  -3877290.03261
  20051777.235   -21287404.498 8 -16503685.22424
  20914389.462   -12999762.952 6  -9772561.67321
  22899417.0644    9631804.50544   7524439.66661
  19870801.3844  -22950625.23547 -17737699.99763
 91  3 29  1  9 29.9970000  0  5G15G 2G13G19G 6
  22679368.103    -5079878.152 6  -3882061.56821
  20051707.0324  -21287771.07848 -16503970.86164
  20904626.056   -13051074.458 6  -9812544.55421
  22906592.2744    9669510.72644   7553821.05461
  19866231.6734  -22974637.79247 -17756411.04963
 91  3 29  1  9 44.9970000  0  5G15G 2G13G19G 6
  22678223.1574   -5085873.55846  -3886733.28461
  20051642.5174  -21288102.94448 -16504229.44664
  20894879.3684  -13102288.20346  -9852451.26261
  22913774.782     9707264.263 4   7583239.30221
  19861676.1184  -22998578.26947 -17775065.93763
 91  3 29  1  9 59.9970000  0  5G15G 2G13G19G 6
  22677112.6264   -5091742.80746  -3891306.69561
  20051588.6264  -21288401.93348 -16504462.41564
  20885151.462   -13153405.573 6  -9892282.87421
  22920968.8764    9745063.17144   7612692.89461
  19857133.8214  -23022448.07247 -17793665.75363
 91  3 29  1 10 14.9970000  0  5G15G 2G13G19G 6
  22676015.7824   -5097481.54446  -3895778.40861
  20051536.4544  -21288663.86348 -16504666.50864
  20875443.892   -13204422.216 6  -9932035.99521
  22928169.1424    9782911.23344   7642184.79061
  19852605.3994  -23046242.96547 -17812207.20263
 91  3 29  1 10 29.9970000  0  5G15G 2G13G19G 6
  22674952.0874   -5103092.80946  -3900150.78461
  20051492.6104  -21288891.76648 -16504844.08764
  20865755.657   -13255340.664 6  -9971712.60521
  22935379.0484    9820805.47944   7671712.67661
  19848091.2124  -23069965.53047 -17830692.28963
 91  3 29  1 10 44.9970000  0  5G15G 2G13G19G 6
  22673904.5244   -5108571.54746  -3904419.90861
  20051457.2354  -21289080.83148 -16504991.40164
  20856085.173   -13306155.881 6 -10011308.76921
  22942600.0714    9858750.33044   7701280.00761
  19843592.478   -23093610.728 7 -17849117.08823
 91  3 29  1 10 59.9970000  0  5G15G 2G13G19G 6
  22672893.462    -5113918.161 6  -3908586.07421
  20051426.5484  -21289231.85648
  20846434.298   -13356868.398 7 -10050824.91321
  22949826.954     9896745.357 4   7730886.43221
  19839105.954   -23117178.988 7 -17867481.94223
 91  3 29  1 11 14.9970000  0  5G15G 2G13G19G 6
  22671898.3374   -5119138.89946  -3912654.14961
  20051407.3994  -21289350.82148
  20836802.634   -13407483.885 6 -10090265.44521
  22957071.353     9934784.152 4   7760526.94821
  19834635.470   -23140675.907 7 -17885791.20523
 91  3 29  1 11 29.9970000  0  5G15G 2G13G19G 6
  22670923.431    -5124229.321 6  -3916620.67921
  20051389.3764  -21289433.32048
  20827190.532   -13457997.783 7 -10129626.81821
  22964315.8994    9972870.98344   7790204.89661
  19830177.267   -23164096.962 7 -17904041.35323
 91  3 29  1 11 44.9970000  0  5G15G 2G13G19G 6
  22669984.0324   -5129186.67646  -3920483.52361
  20051381.5404  -21289476.82748
  20817597.845   -13508407.146 7 -10168906.74121
  22971573.173    10011008.386 4   7819922.26821
  19825736.1184  -23187439.28347 -17922230.14563
 91  3 29  1 11 59.9970000  0  5G15G 2G13G19G 6
  22669065.204    -5134016.068 6  -3924246.66021
  20051379.3764  -21289486.55648
  20808023.2674  -13558716.87347 -10208109.02461
  22978842.7674   10049190.97744   7849674.84061
  19821308.696   -23210707.900 7 -17940361.51723
 91  3 29  1 12 14.9970000  0  5G15G 2G13G19G 6
  22668173.4234   -5138715.19846  -3927908.28261
  20051383.5954  -21289460.18848
  20798469.298   -13608924.244 7 -10247231.54521
  22986116.345    10087420.853 4   7879464.24521
  19816895.939   -23233900.127 7 -17958433.35623
 91  3 29  1 12 29.9970000  0  5G15G 2G13G19G 6
  22667302.9934   -5143287.29446  -3931470.92261
  20051398.4624  -21289401.24548
  20788935.392   -13659032.510 7 -10286276.84721
  22993396.8924   10125694.51844   7909287.78561
  19812496.157   -23257019.004 7 -17976448.03923
 91  3 29  1 12 44.9970000  0  5G15G 2G13G19G 6
  22666456.7124   -5147731.61246  -3934934.00061
  20051414.0954  -21289309.04948
  20779417.524   -13709040.758 7 -10325244.21621
  23000689.728    10164012.467 4   7939145.83521
  19808110.970   -23280063.542 7 -17994404.79523
 91  3 29  1 12 59.9970000  0  5G15G 2G13G19G 6
  22665631.5404   -5152051.22346  -3938299.89461
  20051439.3844  -21289186.57948
  20769920.3144  -13758951.66647 -10364135.72861
  23007988.173    10202371.485 4   7969035.86621
  19803740.267   -23303036.671 7 -18012305.90623
 91  3 29  1 13 14.9970000  0  5G15G 2G13G19G 6
  22664833.087    -5156241.682 6  -3941565.13021
  20051467.712   -21289029.445 8
  20760442.5094  -13808760.42247 -10402947.65561
  23015298.0404   10240775.83344   7998961.24161
  19799382.5954  -23325933.61747 -18030147.65663
 91  3 29  1 13 29.9970000  0  5G15G 2G13G19G 6
  22664063.579    -5160299.334 6  -3944726.92321
  20051503.9784  -21288834.32148
  20750984.267   -13858463.508 7 -10441677.23821
  23022613.431    10279228.761 4   8028924.45321
  19795039.6734  -23348750.72747 -18047927.19463
 91  3 29  1 13 44.9970000  0  5G15G 2G13G19G 6
  22663319.087    -5164218.962 6  -3947781.14821
  20051550.6574  -21288596.00448 -16504613.53263
  20741546.3454  -13908055.41347 -10480320.17761
  23029942.0644   10317735.44644   8058929.57961
  19790714.5714  -23371482.53347 -18065640.25863
 91  3 29  1 13 59.9970000  0  5G15G 2G13G19G 6
  22662595.0094   -5168004.99046  -3950731.27161
  20051601.2904  -21288319.04348 -16504397.70764
  20732129.4934  -13957540.27747 -10518879.71761
  23037281.149    10356291.200 4   8088972.91621
  19786404.0874  -23394133.21147 -18083290.10763
 91  3 29  1 14 14.9970000  0  5G15G 2G13G19G 6
  22661903.634    -5171658.133 6  -3953577.84721
  20051664.4234  -21288004.06648 -16504152.26164
  20722732.962   -14006918.664 7 -10557356.28121
  23044623.7204   10394895.21444   8119053.87761
  19782108.2594  -23416703.16247 -18100877.04863
 91  3 29  1 14 29.9970000  0  5G15G 2G13G19G 6
  22661231.337    -5175177.274 6  -3956320.00721
  20051732.2744  -21287650.15148 -16503876.47464
  20713357.665   -14056189.395 7 -10595748.95321
  23051979.9074   10433548.34144   8149173.08961
  19777829.0644  -23439191.12347 -18118400.10263
 91  3 29  1 14 44.9970000  0  5G15G 2G13G19G 6
  22660589.571    -5178564.677 6  -3958959.52921
  20051805.5564  -21287259.66048 -16503572.18564
  20704000.4074  -14105354.45447 -10634059.28961
  23059346.079    10472248.151 4   8179328.69921
  19773565.142   -23461599.186 7 -18135860.90823
 91  3 29  1 14 59.9970000  0  5G15G 2G13G19G 6
  22659965.4624   -5181820.94946  -3961496.85361
  20051886.454   -21286833.190 8 -16503239.85924
  20694665.8144  -14154414.11047 -10672287.49861
  23066717.6574   10510993.77344   8209519.98361
  19769316.8764  -23483927.66647 -18153259.69363
 91  3 29  1 15 14.9970000  0  5G15G 2G13G19G 6
  22659374.8604   -5184943.56346  -3963930.02461
  20051972.1654  -21286368.16548 -16502877.49564
  20685350.931   -14203365.484 7 -10710431.32721
  23074103.2824   10549787.72844   8239748.93961
  19765082.5324  -23506173.73847 -18170594.26363
 91  3 29  1 15 29.9970000  0  5G15G 2G13G19G 6
  22658806.493    -5187934.237 6  -3966260.39821
  20052070.228   -21285866.482 8 -16502486.56324
  20676054.696   -14252210.061 7 -10748491.93321
  23081492.165    10588628.092 4   8270014.05621
  19760864.5324  -23528338.93947 -18187865.81963
 91  3 29  1 15 44.9970000  0  5G15G 2G13G19G 6
  22658259.6654   -5190791.76945  -3968487.02061
  20052172.790   -21285327.323 8 -16502066.42724
  20666780.1814  -14300946.69047 -10786468.43261
  23088894.5794   10627515.60144   8300315.90361
  19756663.3534  -23550422.07747 -18205073.43063
 91  3 29  1 15 59.9970000  0  5G15G 2G13G19G 6
  22657740.0014   -5193513.40145  -3970607.74361
  20052284.173   -21284747.527 8 -16501614.62324
  20657527.0794  -14349572.17547 -10824358.32561
  23096299.079    10666452.974 4   8330656.59921
  19752477.0404  -23572419.87847 -18222214.54663
 91  3 29  1 16 14.9970000  0  5G15G 2G13G19G 6
  22657249.0714   -5196100.32845  -3972623.49061
  20052401.228   -21284128.784 8 -16501132.47424
  20648297.0404  -14398087.64947 -10862162.49961
  23103719.6494   10705438.90044   8361035.14961
  19748306.5094  -23594333.47047 -18239290.04163
 91  3 29  1 16 29.9970000  0  5G15G 2G13G19G 6
  22656781.517    -5198553.094 5  -3974534.71421
  20052524.118   -21283471.347 8 -16500620.17124
  20639084.0174  -14446493.43147 -10899881.19661
  23111148.1264   10744472.53344   8391450.86461
  19744153.6344  -23616163.25747 -18256300.24163
 91  3 29  1 16 44.9970000  0  5G15G 2G13G19G 6
  22656340.8924   -5200869.43746  -3976339.63161
  20052658.673   -21282773.067 8 -16500076.04123
  20629894.9074  -14494787.31647 -10937512.70061
  23118586.7594   10783555.86844   8421905.32061
  19740014.9234  -23637906.55747 -18273243.03963
 91  3 29  1 16 59.9970000  0  5G15G 2G13G19G 6
  22655924.0404   -5203054.76145  -3978042.45661
  20052799.251   -21282039.582 8 -16499504.48224
  20620724.298   -14542974.203 7 -10975060.82621
  23126032.517    10822683.283 4   8452394.10521
  19735893.4704  -23659568.76647 -18290122.65363
 91  3 29  1 17 14.9970000  0  5G15G 2G13G19G 6
  22655536.5094   -5205109.21645  -3979643.29661
  20052945.626   -21281270.769 8 -16498905.39024
  20611575.9234  -14591054.02547 -11012525.52861
  23133486.6184   10861854.51844   8482917.05261
  19731786.0094  -23681149.55047 -18306938.81863
 91  3 29  1 17 29.9970000  0  5G15G 2G13G19G 6
  22655173.7124   -5207025.71445  -3981136.64161
  20053097.735   -21280459.629 8 -16498273.31923
  20602447.228   -14639019.205 7 -11049900.89121
  23140949.1814   10901076.64444   8513479.65961
  19727696.1734  -23702641.40447 -18323685.68563
 91  3 29  1 17 44.9970000  0  5G15G 2G13G19G 6
  22654832.149    -5208807.555 6  -3982525.06421
  20053259.524   -21279610.013 8 -16497611.26924
  20593341.3764  -14686873.24347 -11087189.66261
  23148423.610    10940345.981 4   8544079.03221
  19723623.1264  -23724047.89047 -18340366.03763
 91  3 29  1 17 59.9970000  0  5G15G 2G13G19G 6
  22654518.7514   -5210451.97146  -3983806.39261
  20053429.337   -21278718.827 8 -16496916.82423
  20584255.9234  -14734612.94947 -11124389.33161
  23155904.7984   10979665.33444   8574717.39261
  19719566.3534  -23745365.76947 -18356977.33963
 91  3 29  1 18 14.9970000  0  5G15G 2G13G19G 6
  22654232.3294   -5211962.28245  -3984983.22861
  20053606.884   -21277789.448 8 -16496192.61823
  20575193.298   -14782241.277 7 -11161502.21621
  23163394.610    11019031.025 4   8605391.84121
  19715525.5014  -23766598.12747 -18373522.00763
 91  3 29  1 18 29.9970000  0  5G15G 2G13G19G 6
  22653967.806    -5213338.511 5  -3986055.58421
  20053791.423   -21276822.025 8 -16495438.76923
  20566149.4074  -14829758.22647 -11198528.31561
  23170894.720    11058442.670 4   8636102.11521
  19711501.7124  -23787744.86747 -18389999.95463
 91  3 29  1 18 44.9970000  0  5G15G 2G13G19G 6
  22653737.4394   -5214579.96445  -3987022.92361
  20053980.579   -21275816.052 8 -16494654.88023
  20557130.267   -14877162.922 7 -11235466.93821
  23178406.446    11097900.853 4   8666848.64621
  19707495.0324  -23808804.93147 -18406410.36863
 91  3 29  1 18 59.9970000  0  5G15G 2G13G19G 6
  22653520.618    -5215683.082 5  -3987882.46421
  20054181.384   -21274767.989 8 -16493838.19324
  20548131.829   -14924451.778 7 -11272315.29821
  23185921.634    11137408.906 4   8697634.03521
  19703503.1184  -23829774.75747 -18422750.46263
 91  3 29  1 19 14.9970000  0  5G15G 2G13G19G 6
  22653340.2744   -5216652.89846  -3988638.13961
  20054387.517   -21273682.875 8 -16492992.63823
  20539153.1894  -14971629.47047 -11309077.04061
  23193449.689    11176961.456 4   8728454.11521
  19699529.017   -23850659.052 7 -18439023.91423
 91  3 29  1 19 29.9970000  0  5G15G 2G13G19G 6
  22653182.5714   -5217484.86345  -3989286.40461
  20054601.509   -21272555.832 8 -16492114.40623
  20530198.0174  -15018691.15547 -11345748.38661
  23200986.4934   11216563.33444   8759312.61661
  19695573.517   -23871452.832 7 -18455226.83223
 91  3 29  1 19 44.9970000  0  5G15G 2G13G19G 6
  22653048.8064   -5218181.24345  -3989829.00561
  20054822.868   -21271389.679 8 -16491205.70223
  20521264.5324  -15065638.98247 -11382331.00961
  23208529.6734   11256211.66844   8790207.32061
  19691632.9394  -23892158.30747 -18471360.94163
 91  3 29  1 19 59.9970000  0  5G15G 2G13G19G 6
  22652940.134    -5218741.437 5  -3990265.48721
  20055052.657   -21270183.508 8 -16490265.81324
  20512352.0094  -15112471.79147 -11418824.00961
  23216082.282    11295907.026 4   8821138.66121
  19687709.6424  -23912774.38247 -18487425.39063
 91  3 29  1 20 14.9970000  0  5G15G 2G13G19G 6
  22652860.454    -5219165.445 6  -3990595.86221
  20055291.798   -21268937.611 8 -16489294.97224
  20503461.7044  -15159189.79947 -11455227.55661
  23223648.009    11335649.115 4   8852106.41421
  19683803.0714  -23933301.20847 -18503420.29163
 91  3 29  1 20 29.9970000  0  5G15G 2G13G19G 6
  22652805.0954   -5219451.28246  -3990818.56061
  20055536.001   -21267649.642 8 -16488291.34723
  20494593.4934  -15205790.35647 -11491539.59061
  23231218.9154   11375440.18144   8883112.33861
  19679913.9464  -23953736.01247 -18519343.48963
 91  3 29  1 20 44.9970000  0  5G15G 2G13G19G 6
  22652775.462    -5219598.971 6
  20055789.587   -21266319.753 8 -16487255.05623
  20485748.6734  -15252273.39347 -11527760.04261
  23238800.7904   11415279.73444   8914156.04261
  19676043.0714  -23974078.79247 -18535194.97663
 91  3 29  1 20 59.9970000  0  5G15G 2G13G19G 6
  22652775.673    -5219607.490 6
  20056049.993   -21264947.085 8 -16486185.43023
  20476924.7744  -15298637.79347 -11563888.05761
  23246391.5794   11455168.77644   8945238.30661
  19672189.8684  -23994328.23347 -18550973.73263
 91  3 29  1 21 14.9970000  0  5G15G 2G13G19G 6
  22652803.2674   -5219477.71646
  20056319.290   -21263532.563 8 -16485083.18823
  20468124.704   -15344884.346 7 -11599924.23921
  23253990.876    11495105.968 4   8976358.09421
  19668354.0244  -24014485.26947 -18566680.48363
 91  3 29  1 21 29.9970000  0  5G15G 2G13G19G 6
  22652853.634    -5219213.093 5
  20056595.720   -21262079.752 8 -16483951.11523
  20459346.7434  -15391016.10147 -11635870.97661
  23261598.907    11535087.840 4   9007512.67921
  19664535.618   -24034552.820 7 -18582317.51223
 91  3 29  1 21 44.9970000  0  5G15G 2G13G19G 6
  22652925.087    -5218812.115 6  -3990320.38521
  20056880.689   -21260586.796 8 -16482787.75923
  20450590.8994  -15437030.99447 -11671726.65361
  23269218.196    11575115.993 3   9038703.34321
  19660733.7984  -24054529.03247 -18597883.36363
 91  3 29  1 21 59.9970000  0  5G15G 2G13G19G 6
  22653029.5244   -5218275.64246  -3989902.32261
  20057171.126   -21259054.798 8 -16481593.98523
  20441855.478   -15482929.949 7 -11707491.98321
  23276844.7984   11615189.07143   9069929.02861
  19656948.8924  -24074414.63947 -18613378.61363
 91  3 29  1 22 14.9970000  0  5G15G 2G13G19G 6
  22653161.4934   -5217597.86246  -3989374.15161
  20057470.564   -21257477.734 8 -16480365.09023
  20433145.540   -15528706.756 7 -11743162.14421
  23284480.087    11655312.721 3   9101194.07421
  19653184.1814  -24094203.55547 -18628798.52063
 91  3 29  1 22 29.9970000  0  5G15G 2G13G19G 6
  22653313.7824   -5216780.10246  -3988736.90261
  20057779.634   -21255857.246 8 -16479102.36023
  20424455.6104  -15574362.62547 -11778738.05561
  23292125.915    11695485.514 3   9132497.43121
  19649437.2594  -24113896.84547 -18644143.91263
 91  3 29  1 22 44.9970000  0  5G15G 2G13G19G 6
  22653498.314    -5215824.774 5  -3987992.48821
  20058095.314   -21254195.875 8 -16477807.77423
  20415790.446   -15619899.970 7 -11814221.61921
  23299777.9544   11735704.79643   9163837.00161
  19645707.5564  -24133496.93947 -18659416.68463
 91  3 29  1 22 59.9970000  0  5G15G 2G13G19G 6
  22653705.2124   -5214734.24345  -3987142.67861
  20058420.056   -21252495.803 8 -16476483.03123
  20407147.603   -15665320.866 7 -11849614.44721
  23307434.2594   11775967.98743   9195210.82961
  19641994.7984  -24153005.61947 -18674618.22363
 91  3 29  1 23 14.9970000  0  5G15G 2G13G19G 6
  22653934.4934   -5213506.54045  -3986186.00061
  20058751.603   -21250754.969 8 -16475126.52523
  20398527.556   -15710623.014 7 -11884914.73621
  23315106.5564   11816277.15943   9226620.46861
  19638299.8994  -24172420.56147 -18689746.72263
 91  3 29  1 23 29.9970000  0  5G15G 2G13G19G 6
  22654198.8924   -5212141.31546  -3985122.15761
  20059089.884   -21248973.022 8 -16473737.98323
  20389928.024   -15755805.664 7 -11920121.91621
  23322787.8294   11856632.31343   9258065.90861
  19634623.7204  -24191741.14547 -18704801.69363
 91  3 29  1 23 44.9960000  0  5G15G 2G13G19G 6
  22654485.1294   -5210642.15845  -3983953.95161
  20059435.137   -21247153.682 8 -16472320.30323
  20381352.6374  -15800869.34947 -11955236.40061
  23330475.4884   11897027.11043   9289542.27861
  19630965.0824  -24210969.58347 -18719784.86363
 91  3 29  1 23 59.9960000  0  4G15G 2G13G 6
  22654795.3874   -5208999.06545  -3982673.60961
  20059790.8714  -21245287.02148 -16470865.75163
  20372801.082   -15845810.126 7 -11990255.11021
  19627323.8714  -24230098.42747 -18734690.42963
 91  3 29  1 24 14.9960000  0  4G15G 2G13G 6
  22655133.0664   -5207215.63745
  20060153.926   -21243376.789 8
  20364272.410   -15890628.301 7 -12025178.28621
  19623702.8484  -24249129.60347 -18749519.88863
 91  3 29  1 24 29.9960000  0  4G15G 2G13G 6
  22655500.543    -5205292.760 5
  20060525.738   -21241423.826 8
  20355766.199   -15935324.262 7 -12060006.23321
  19620099.3164  -24268063.62447 -18764273.64163
 91  3 29  1 24 44.9960000  0  4G15G 2G13G 6
  22655892.066    -5203229.333 5  -3978177.61321
  20060906.5824  -21239426.69448 -16466299.23663
  20347285.340   -15979896.502 7 -12094737.77021
  19616515.4734  -24286899.02047 -18778950.54863
 91  3 29  1 24 59.9960000  0  4G15G 2G13G 6
  22656314.9264   -5201024.95545  -3976459.89661
  20061293.8244  -21237385.30648 -16464708.53463
  20338828.004   -16024344.735 7 -12129372.68021
  19612949.6064  -24305635.32447 -18793550.23763
 91  3 29  1 25 14.9960000  0  4G15G 2G13G 6
  22656762.707    -5198682.480 5  -3974634.56821
  20061690.215   -21235302.401 8 -16463085.48123
  20330391.387   -16068671.382 7 -12163912.84621
  19609403.5274  -24324275.04747 -18808074.67363
 91  3 29  1 25 29.9960000  0  4G15G 2G13G 6
  22657229.0824   -5196199.11245  -3972699.43761
  20062095.731   -21233175.203 7 -16461427.91423
  20321981.043   -16112873.427 7 -12198355.93221
  19605874.371   -24342814.858 7 -18822521.25223
 91  3 29  1 25 44.9960000  0  4G15G 2G13G 6
  22657728.559    -5193573.303 5  -3970653.33621
  20062508.3014  -21231002.27048 -16459734.71063
  20313593.887   -16156949.265 7 -12232700.66221
  19602366.8404  -24361253.30547 -18836888.84463
 91  3 29  1 25 59.9960000  0  4G15G 2G13G 6
  22658259.7234   -5190806.76345  -3968497.55661
  20062930.6374  -21228785.04048 -16458006.98863
  20305228.481   -16200900.202 7 -12266948.07021
  19598876.715   -24379591.733 7 -18851178.50723
 91  3 29  1 26 14.9960000  0  4G15G 2G13G 6
  22658806.676    -5187903.844 5  -3966235.52821
  20063361.5824  -21226528.14248 -16456248.35663
  20296888.7234  -16244730.51447 -12301101.49061
  19595404.965   -24397834.171 7 -18865393.36823
 91  3 29  1 26 29.9960000  0  4G15G 2G13G 6
  22659389.9654   -5184864.29645  -3963867.03061
  20063797.1214  -21224231.05548 -16454458.41263
  20288571.590   -16288439.714 7 -12335160.53221
  19591953.051   -24415980.139 7 -18879533.06123
 91  3 29  1 26 44.9960000  0  4G15G 2G13G 6
  22659991.066    -5181686.074 5  -3961390.45721
  20064242.6994  -21221891.62648 -16452635.47663
  20280275.535   -16332025.083 7 -12369123.08621
  19588518.168   -24434027.063 7 -18893595.57423
 91  3 29  1 26 59.9960000  0  4G15G 2G13G 6
  22660626.7544   -5178365.18745  -3958802.73361
  20064696.402   -21219506.086 8 -16450776.60223
  20272006.8324  -16375482.76447 -12402986.14761
  19585103.754   -24451970.890 7 -18907577.75123
 91  3 29  1 27 14.9960000  0  4G15G 2G13G 6
  22661280.660    -5174907.870 5  -3956108.69721
  20065159.254   -21217080.684 8 -16448886.66623
  20263760.3094  -16418818.80947 -12436754.41961
  19581706.4964  -24469817.81447 -18921484.42263
 91  3 29  1 27 29.9960000  0  4G15G 2G13G 6
  22661966.0204   -5171307.46145  -3953303.16361
  20065629.871   -21214608.697 8 -16446960.43123
  20255538.387   -16462026.299 7 -12470422.52421
  19578330.098   -24487560.475 7 -18935309.84823
 91  3 29  1 27 44.9960000  0  4G15G 2G13G 6
  22662680.551    -5167563.430 5  -3950385.71221
  20066109.402   -21212089.608 8 -16444997.49123
  20247340.0664  -16505104.51947 -12503989.89961
  19574974.231   -24505198.221 7 -18949053.52323
 91  3 29  1 27 59.9960000  0  4G15G 2G13G 6
  22663422.871    -5163677.635 5  -3947357.81121
  20066596.2234  -21209525.05048 -16442999.12363
  20239167.941   -16548054.742 7 -12537457.53521
  19571636.926   -24522732.352 7 -18962716.46123
 91  3 29  1 28 14.9960000  0  4G15G 2G13G 6
  22664187.6294   -5159647.97545  -3944217.78561
  20067093.1454  -21206912.94948 -16440963.71063
  20231017.871   -16590875.084 7 -12570823.96921
  19568321.137   -24540160.907 7 -18976297.13023
 91  3 29  1 28 29.9960000  0  4G15G 2G13G 6
  22664982.004    -5155478.891 5  -3940969.12121
  20067597.0984  -21204257.74048 -16438894.70763
  20222893.9344  -16633569.48247 -12604092.26561
  19565023.863   -24557487.725 7 -18989798.52123
 91  3 29  1 28 44.9960000  0  4G15G 2G13G 6
  22665803.0044   -5151169.59045  -3937611.19261
  20068111.8794  -21201558.38948 -16436791.30963
  20214794.3484  -16676136.97247 -12637261.66761
  19561745.934   -24574711.760 7 -19003219.82923
 91  3 29  1 28 59.9960000  0  4G15G 2G13G 6
  22666648.941    -5146720.809 5  -3934144.59521
  20068634.5594  -21198815.87748 -16434654.27863
  20206717.0904  -16718578.16247 -12670332.65761
  19558487.887   -24591833.685 7 -19016561.57023
 91  3 29  1 29 14.9960000  0  4G15G 2G13G 6
  22667520.715    -5142130.364 5  -3930567.59821
  20069165.106   -21196028.080 8 -16432481.95923
  20198666.9654  -16760890.67747 -12703303.38461
  19555248.910   -24608850.979 7 -19029821.77723
 91  3 29  1 29 29.9960000  0  4G15G 2G13G 6
  22668417.4574   -5137400.66145  -3926882.08961
  20069703.5274  -21193197.24048 -16430276.10263
  20190637.8714  -16803076.42747 -12736175.32661
  19552031.324   -24625765.574 7 -19043001.96123
 91  3 29  1 29 44.9960000  0  4G15G 2G13G 6
  22669344.6994   -5132538.88545  -3923093.65561
  20070247.7074  -21190330.46148 -16428042.24163
  20182632.9654  -16845142.35647 -12768953.91561
  19548831.113   -24642584.353 7 -19056107.48323
 91  3 29  1 29 59.9960000  0  4G15G 2G13G 6
  22670298.0664   -5127537.50945  -3919196.44961
  20070803.1844  -21187420.40048 -16425774.65263
  20174651.5984  -16887081.07547 -12801633.37061
  19545650.027   -24659299.797 7 -19069132.48223
 91  3 29  1 30 14.9960000  0  4G15G 2G13G 6
  22671272.035    -5122394.947 5  -3915189.24421
  20071365.504   -21184465.248 8 -16423471.91623
  20166697.1214  -16928890.44347 -12834212.03561
  19542488.199   -24675909.934 7 -19082075.42723
 91  3 29  1 30 29.9960000  0  4G15G 2G13G 6
  22672281.660    -5117114.146 5  -3911074.29021
  20071934.996   -21181467.747 8 -16421136.18923
  20158763.8714  -16970573.10647 -12866691.96861
  19539347.473   -24692417.214 7 -19094938.22123
 91  3 29  1 30 44.9960000  0  4G15G 2G13G 6
  22673310.6064   -5111690.74345  -3906848.24361
  20072515.270   -21178423.776 8 -16418764.25123
  20150855.7154  -17012124.73047 -12899069.79561
  19536226.762   -24708817.146 7 -19107717.36623
 91  3 29  1 30 59.9960000  0  4G15G 2G13G 6
  22674371.613    -5106129.328 5  -3902514.63621
  20073102.176   -21175337.668 8 -16416359.48123
  20142973.9884  -17053549.50647 -12931348.77561
  19533125.309   -24725113.902 7 -19120416.11623
 91  3 29  1 31 14.9960000  0  4G15G 2G13G 6
  22675456.5434   -5100426.81445  -3898071.09261
  20073696.934   -21172206.460 8 -16413919.56323
  20135116.6294  -17094844.11747 -12963526.32861
  19530044.848   -24741304.191 7 -19133031.90523
 91  3 29  1 31 29.9960000  0  4G15G 2G13G 6
  22676564.4184   -5094590.35645  -3893523.17461
  20074301.191   -21169037.322 8 -16411450.08923
  20127280.8484  -17136015.41047 -12995607.79161
  19526982.004   -24757395.050 7 -19145570.21223
 91  3 29  1 31 44.9960000  0  4G15G 2G13G 6
  22677702.6844   -5088614.33645  -3888866.50161
  20074912.340   -21165824.228 8 -16408946.36923
  20119471.1134  -17177057.65747 -13027588.69961
  19523940.902   -24773380.215 7 -19158026.16123
 91  3 29  1 31 59.9960000  0  4G15G 2G13G 6
  22678866.668    -5082504.018 5  -3884105.18821
  20075531.043   -21162572.345 8 -16406412.41623
  20111685.3164  -17217975.62947 -13059472.77461
  19520918.168   -24789264.657 7 -19170403.62323
 91  3 29  1 32 14.9960000  0  4G15G 2G13G 6
  22680057.5434   -5076255.90145  -3879236.49161
  20076157.145   -21159278.330 8 -16403845.64123
  20103923.2544  -17258765.67047 -13091257.15161
  19517915.199   -24805044.567 7 -19182699.63523
 91  3 29  1 32 29.9960000  0  4G15G 2G13G 6
  22681274.1214   -5069865.79845  -3874257.15661
  20076792.934   -21155937.986 8 -16401242.76123
  20096185.4344  -17299423.43247 -13122938.46161
  19514933.957   -24820715.543 7 -19194910.75823
 91  3 29  1 32 44.9960000  0  4G15G 2G13G 6
  22682515.785    -5063332.414 5  -3869166.18421
  20077437.191   -21152550.107 8 -16398602.84223
  20088474.4264  -17339947.39647 -13154515.51561
  19511971.043   -24836276.209 7 -19207035.93223
 91  3 29  1 32 59.9960000  0  4G15G 2G13G 6
  22683782.410    -5056664.726 5  -3863970.55821
  20078090.832   -21149123.549 8 -16395932.78723
  20080786.0744  -17380346.29247 -13185995.11061
  19509029.481   -24851735.061 7 -19219081.76723
 91  3 29  1 33 14.9960000  0  4G15G 2G13G 6
  22685076.988    -5049851.475 5  -3858661.51021
  20078751.731   -21145646.857 8 -16393223.66223
  20073126.0354  -17420608.60447 -13217368.27861
  19506109.9264  -24867080.44947 -19231039.18663
 91  3 29  1 33 29.9960000  0  4G15G 2G13G 6
  22686401.848    -5042899.253 6  -3853244.17121
  20079421.731   -21142126.438 8 -16390480.46723
  20065487.9264  -17460741.01447 -13248640.22261
  19503211.223   -24882318.845 7 -19242913.23323
 91  3 29  1 33 44.9960000  0  4G15G 2G13G 6
  22687754.2934   -5035807.54745  -3847718.14261
  20080098.770   -21138561.885 8 -16387702.88223
  20057875.2544  -17500742.63347 -13279810.25061
  19500331.1064  -24897449.38547 -19254703.23863
 91  3 29  1 33 59.9960000  0  4G15G 2G13G 6
  22689128.270    -5028575.962 6  -3842083.12121
  20080786.754   -21134952.493 8 -16384890.35623
  20050288.7934  -17540612.49247 -13310877.60861
  19497471.988   -24912471.082 7 -19266408.43123
 91  3 29  1 34 14.9960000  0  4G15G 2G13G 6
  22690529.3634   -5021206.99545  -3836341.04061
  20081481.441   -21131300.439 8 -16382044.58823
  20042727.0824  -17580352.35847 -13341843.67161
  19494633.777   -24927385.926 7 -19278030.36023
 91  3 29  1 34 29.9960000  0  4G15G 2G13G 6
  22691958.481    -5013699.738 5  -3830491.21021
  20082184.676   -21127605.501 8 -16379165.39723
  20035188.2704  -17619962.10047 -13372708.34661
  19491815.824   -24942193.477 7 -19289568.68723
 91  3 29  1 34 44.9960000  0  4G15G 2G13G 6
  22693412.6684   -5006052.97845  -3824532.66361
  20082896.270   -21123865.992 8 -16376251.48023
  20027677.0124  -17659439.86647 -13403470.17661
  19489019.129   -24956891.831 7 -19301021.92423
 91  3 29  1 34 59.9960000  0  4G15G 2G13G 6
  22694895.824    -4998266.131 5  -3818464.96521
  20083615.949   -21120081.478 8 -16373302.49723
  20020190.0514  -17698784.81847 -13434128.51961
  19486243.707   -24971480.028 7 -19312389.32523
 91  3 29  1 35 14.9960000  0  4G15G 2G13G 6
  22696404.848    -4990344.242 5  -3812292.04221
  20084343.231   -21116257.045 8 -16370322.40423
  20012726.7384  -17738001.85047 -13464687.17961
  19483487.441   -24985962.955 7 -19323674.70023
 91  3 29  1 35 29.9960000  0  4G15G 2G13G 6
  22697936.6524   -4982289.17745  -3806015.34361
  20085078.332   -21112394.175 8 -16367312.36523
  20005288.6294  -17777092.59847 -13495147.44261
  19480752.004   -25000342.022 7 -19334879.14623
 91  3 29  1 35 44.9960000  0  4G15G 2G13G 6
  22699493.246    -4974094.497 5  -3799629.86121
  20085823.379   -21108486.374 8 -16364267.30723
  19997875.0124  -17816050.31447 -13525504.03861
  19478035.309   -25014610.651 7 -19345997.53723
 91  3 29  1 35 59.9960000  0  4G15G 2G13G 6
  22701079.7464   -4965765.22545  -3793139.49461
  20086575.121   -21104538.485 8 -16361191.01923
  19990484.7704  -17854879.80747 -13555760.72961
  19475340.199   -25028773.369 7 -19357033.39523
 91  3 29  1 36 14.9960000  0  4G15G 2G13G 6
  22702689.2934   -4957298.89545  -3786542.33061
  20087334.020   -21100548.010 8 -16358081.54323
  19983121.1134  -17893578.47647 -13585915.47261
  19472666.223   -25042827.395 7 -19367984.56123
 91  3 29  1 36 29.9960000  0  4G15G 2G13G 6
  22704330.309    -4948692.274 5  -3779835.84421
  20088101.434   -21096511.636 8 -16354936.30423
  19975783.5594  -17932142.72547 -13615965.47561
  19470013.691   -25056769.204 7 -19378848.28823
 91  3 29  1 36 44.9960000  0  4G15G 2G13G 6
  22705991.9024   -4939946.74845  -3773021.12861
  20088878.824   -21092430.605 8 -16351756.26923
  19968468.9024  -17970573.77447 -13645911.68761
  19467380.418   -25070599.832 7 -19389625.37323
 91  3 29  1 36 59.9960000  0  4G15G 2G13G 6
  22707681.465    -4931062.193 5  -3766098.07721
  20089662.715   -21088304.972 8 -16348541.47923
  19961182.2234  -18008871.20547 -13675753.78061
  19464771.1844  -25084318.96747 -19400315.58563
 91  3 29  1 37 14.9960000  0  4G15G 2G13G 6
  22709397.2464   -4922042.00845  -3759069.32561
  20090457.231   -21084137.869 8 -16345294.37523
  19953918.4264  -18047038.11347 -13705494.16861
  19462180.277   -25097929.566 7 -19410921.21523
 91  3 29  1 37 29.9960000  0  4G15G 2G13G 6
  22711142.8794   -4912884.54845  -3751933.61361
  20091256.957   -21079927.475 8 -16342013.53623
  19946680.6294  -18085072.67047 -13735131.42061
  19459612.059   -25111429.789 7 -19421440.84423
 91  3 29  1 37 44.9960000  0  4G15G 2G13G 6
  22712913.8404   -4903591.76946  -3744692.45261
  20092066.738   -21075675.693 8 -16338700.45123
  19939468.0824  -18122976.44847 -13764666.77561
  19457062.574   -25124821.029 7 -19431875.55523
 91  3 29  1 37 59.9960000  0  4G15G 2G13G 6
  22714704.5664   -4894164.80546  -3737346.73761
  20092882.8014  -21071383.75348 -16335356.07163
  19932280.1524  -18160750.58247 -13794101.09961
  19454536.3164  -25138104.40047 -19442226.20663
 91  3 29  1 38 14.9960000  0  4G15G 2G13G 6
  22716524.5204   -4884602.59146  -3729895.62761
  20093707.988   -21067050.394 8 -16331979.41723
  19925116.9024  -18198393.58747 -13823433.25061
  19452028.418   -25151278.338 7 -19452491.58823
 91  3 29  1 38 29.9960000  0  4G15G 2G13G 6
  22718371.4734   -4874899.49146  -3722334.73461
  20094541.2464  -21062669.71548 -16328565.89163
  19917979.1604  -18235899.48447 -13852658.56661
  19449543.082   -25164336.858 7 -19462667.03523
 91  3 29  1 38 44.9960000  0  4G15G 2G13G 6
  22720242.731    -4865062.278 6  -3714669.33721
  20095382.9654  -21058248.19948 -16325120.54763
  19910866.3794  -18273274.86647 -13881782.17261
  19447080.4494  -25177286.31247 -19472757.49363
 91  3 29  1 38 59.9960000  0  4G15G 2G13G 6
  22722141.3954   -4855087.97946  -3706897.13061
  20096231.848   -21053782.716 8 -16321640.93623
  19903779.5434  -18310516.52247 -13910801.58661
  19444636.387   -25190123.291 7 -19482760.31023
 91  3 29  1 39 14.9960000  0  4G15G 2G13G 6
  22724070.0824   -4844976.68246  -3699018.15461
  20097090.957   -21049273.603 8 -16318127.33123
  19896717.5744  -18347624.45547 -13939716.79861
  19442214.246   -25202847.745 7 -19492675.44423
 91  3 29  1 39 29.9960000  0  4G15G 2G13G 6
  22726015.0514   -4834731.32246  -3691034.72661
  20097956.863   -21044724.153 8 -16314582.29623
  19889682.4494  -18384601.58447 -13968530.08261
  19439814.074   -25215462.705 7 -19502505.25923
 91  3 29  1 39 44.9960000  0  4G15G 2G13G 6
  22727989.8874   -4824349.34446  -3682944.85861
  20098831.0514  -21040131.14948 -16311003.32263
  19882670.4964  -18421444.79247 -13997239.01461
  19437435.4344  -25227964.84647 -19512247.15963
 91  3 29  1 39 59.9960000  0  4G15G 2G13G 6
  22729993.270    -4813831.226 6  -3674748.89621
  20099712.9024  -21035495.20448 -16307390.88963
  19875685.0984  -18458154.55047 -14025843.95561
  19435077.520   -25240354.612 7 -19521901.49923
 91  3 29  1 40 14.9960000  0  4G15G 2G13G 6
  22732021.137    -4803177.527 6  -3666447.27421
  20100602.4184  -21030816.64548 -16303745.24963
  19868725.3714  -18494731.01147 -14054345.03561
  19432741.691   -25252632.020 7 -19531468.28523
 91  3 29  1 40 29.9960000  0  4G15G 2G13G 6
  22734075.0124   -4792389.21746  -3658040.77061
  20101501.270   -21026096.022 8 -16300066.83223
  19861790.1064  -18531174.55547 -14082742.54261
  19430426.441   -25264797.558 7 -19540947.90123
 91  3 29  1 40 44.9960000  0  4G15G 2G13G 6
  22736153.715    -4781464.611 6  -3649528.06521
  20102407.7074  -21021331.61148 -16296354.29563
  19854880.8874  -18567483.45547 -14111035.13161
  19428133.059   -25276849.274 7 -19550338.82923
 91  3 29  1 40 59.9960000  0  4G15G 2G13G 6
  22738258.1914   -4770406.70746  -3640911.49161
  20103321.973   -21016526.346 8 -16292609.91923
  19847995.9024  -18603660.52947 -14139224.99761
  19425859.652   -25288789.911 7 -19559643.19423
 91  3 29  1 41 14.9960000  0  4G15G 2G13G 6
  22740386.2544   -4759212.90446  -3632189.00861
  20104245.465   -21011677.749 8 -16288831.78023
  19841137.7384  -18639703.18747 -14167310.12561
  19423610.051   -25300616.657 7 -19568858.81723
 91  3 29  1 41 29.9960000  0  4G15G 2G13G 6
  22742540.5354   -4747881.15446  -3623359.05461
  20105175.934   -21006783.641 8 -16285018.17523
  19834304.668   -18675608.973 7 -14195288.60421
  19421381.988   -25312327.136 7 -19577983.84323
 91  3 29  1 41 44.9960000  0  4G15G 2G13G 6
  22744722.2774   -4736411.02146  -3614421.25961
  20106116.199   -21001843.327 8 -16281168.56823
  19827497.4104  -18711377.31847 -14223159.98461
  19419176.012   -25323920.548 7 -19587017.65023
 91  3 29  1 41 59.9960000  0  4G15G 2G13G 6
  22746933.981    -4724807.958 6  -3605379.88521
  20107064.652   -20996862.013 8 -16277287.01523
  19820717.074   -18747013.102 7 -14250928.07021
  19416990.090   -25335401.794 7 -19595964.05323
 91  3 29  1 42 14.9960000  0  4G15G 2G13G 6
  22749165.4734   -4713069.40246  -3596232.93461
  20108020.191   -20991836.937 8 -16273371.35823
  19813960.5354  -18782513.32247 -14278590.51861
  19414828.020   -25346767.870 7 -19604820.71323
 91  3 29  1 42 29.9960000  0  4G15G 2G13G 6
  22751424.496    -4701197.324 6  -3586981.94421
  20108984.309   -20986770.175 8 -16269423.22023
  19807230.973   -18817880.001 7 -14306148.91921
  19412686.660   -25358020.644 7 -19613589.08923
 91  3 29  1 42 44.9960000  0  4G15G 2G13G 6
  22753710.6844   -4689196.28146  -3577630.46461
  20109956.559   -20981666.165 8 -16265446.05723
  19800525.793   -18853117.682 7 -14333606.79622
  19410565.652   -25369164.402 7 -19622272.51423
 91  3 29  1 42 59.9960000  0  4G15G 2G13G 6
  22756017.2854   -4677060.82346  -3568174.24061
  20110934.816   -20976519.245 8 -16261435.45623
  19793845.223   -18888220.691 7 -14360959.73021
  19408467.238   -25380193.269 7 -19630866.41223
 91  3 29  1 43 14.9960000  0  4G15G 2G13G 6
  22758352.2234   -4664792.39646  -3558614.40561
  20111921.887   -20971330.846 8 -16257392.53423
  19787191.277   -18923190.095 7 -14388208.56521
  19406389.801   -25391108.470 7 -19639371.74523
 91  3 29  1 43 29.9960000  0  4G15G 2G13G 6
  22760715.6764   -4652384.89446  -3548946.19761
  20112918.098   -20966094.493 8 -16253312.24323
  19780564.043   -18958019.527 7 -14415348.32721
  19404335.965   -25401903.321 7 -19647783.29323
 91  3 29  1 43 44.9960000  0  4G15G 2G13G 6
  22763099.918    -4639845.801 6  -3539175.44921
  20113922.981   -20960817.808 8 -16249200.52623
  19773961.2854  -18992716.02647 -14442384.50261
  19402303.754   -25412585.156 7 -19656106.77923
 91  3 29  1 43 59.9960000  0  4G15G 2G13G 6
  22765513.152    -4627168.111 6  -3529296.71321
  20114937.090   -20955493.424 8 -16245051.64323
  19767385.348   -19027272.319 7 -14469311.42921
  19400292.856   -25423146.424 7 -19664336.31723
 91  3 29  1 44 14.9960000  0  4G15G 2G13G 6
  22767951.5664   -4614354.55146  -3519312.09061
  20115958.301   -20950124.038 8 -16240867.68823
  19760834.676   -19061691.247 7 -14496131.31921
  19398306.246   -25433589.888 7 -19672474.06023
 91  3 29  1 44 29.9960000  0  4G15G 2G13G 6
  22770416.9414   -4601404.47346  -3509221.09661
  20116988.535   -20944708.448 8 -16236647.73423
  19754312.395   -19095971.575 7 -14522843.21421
  19396342.027   -25443913.990 7 -19680518.79523
 91  3 29  1 44 44.9960000  0  4G15G 2G13G 6
  22772904.848    -4588325.751 5  -3499029.87121
  20118026.363   -20939254.844 8 -16232398.15723
  19747813.8954  -19130121.00247 -14549453.09962
  19394397.926   -25454126.575 7 -19688476.63423
 91  3 29  1 44 59.9960000  0  4G15G 2G13G 6
  22775418.8094   -4575116.91245  -3488737.24261
  20119071.270   -20933761.481 8 -16228117.59823
  19741339.520   -19164137.909 7 -14575959.72721
  19392476.348   -25464225.874 7 -19696346.19923
 91  3 29  1 45 14.9960000  0  4G15G 2G13G 6
  22777954.231    -4561781.830 5  -3478346.26421
  20120123.902   -20928232.166 8 -16223809.02523
  19734891.324   -19198025.976 7 -14602365.96021
  19390574.840   -25474215.519 7 -19704130.31823
 91  3 29  1 45 29.9960000  0  4G15G 2G13G 6
  22780518.059    -4548312.036 5  -3467850.29621
  20121183.965   -20922658.200 8 -16219465.65823
  19728469.051   -19231776.498 7 -14628665.01221
  19388696.871   -25484086.594 7 -19711822.04323
 91  3 29  1 45 44.9960000  0  4G15G 2G13G 6
  22783105.762    -4534705.926 5  -3457248.11121
  20122253.746   -20917038.014 8 -16215086.27723
  19722073.152   -19265387.656 7 -14654855.47821
  19386841.434   -25493837.167 7 -19719419.87223
 91  3 29  1 45 59.9960000  0  4G15G 2G13G 6
  22785722.5204   -4520968.50145  -3446543.59761
  20123331.176   -20911376.286 8 -16210674.52623
  19715701.941   -19298864.030 7 -14680940.91121
  19385007.566   -25503471.875 7 -19726927.41823
 91  3 29  1 46 14.9960000  0  4G15G 2G13G 6
  22788360.8484   -4507100.60645  -3435737.42161
  20124415.785   -20905673.781 8 -16206230.99823
  19709357.598   -19332206.399 7 -14706921.92521
  19383196.777   -25512991.290 7 -19734345.12523
 91  3 29  1 46 29.9960000  0  4G15G 2G13G 6
  22791026.363    -4493093.206 5  -3424822.55121
  20125511.223   -20899921.265 8 -16201748.50123
  19703040.090   -19365405.629 7 -14732791.40022
  19381409.395   -25522385.926 7 -19741665.60523
 91  3 29  1 46 44.9960000  0  4G15G 2G13G 6
  22793715.699    -4478957.347 5  -3413807.56321
  20126612.918   -20894129.288 8 -16197235.25423
  19696747.699   -19398472.149 7 -14758557.47022
  19379643.262   -25531666.221 7 -19748896.98523
 91  3 29  1 46 59.9960000  0  4G15G 2G13G 6
  22796430.246    -4464684.795 5  -3402686.07921
  20127724.527   -20888289.641 8 -16192684.86623
  19690481.590   -19431397.414 7 -14784213.46622
  19377898.246   -25540823.756 7 -19756032.70823
 91  3 29  1 47 14.9960000  0  4G15G 2G13G 6
  22799171.7314   -4450286.55345  -3391466.64861
  20128842.254   -20882413.249 8 -16188105.84523
  19684240.504   -19464192.382 7 -14809767.93422
  19376178.863   -25549869.158 7 -19763081.05523
 91  3 29  1 47 29.9960000  0  4G15G 2G13G 6
  22801935.348    -4435754.192 5  -3380142.71621
  20129970.254   -20876491.527 8 -16183491.49923
  19678027.949   -19496848.485 7 -14835214.19922
  19374480.574   -25558793.857 7 -19770035.34623
 91  3 29  1 47 44.9960000  0  4G15G 2G13G 6
  22804730.3564   -4421080.75445  -3368708.84561
  20131106.606   -20870517.496 8 -16178836.40023
  19671840.598   -19529358.475 7 -14860546.60622
  19372805.793   -25567590.461 7 -19776889.82023
 91  3 29  1 47 59.9960000  0  4G15G 2G13G 6
  22807547.402    -4406278.166 5  -3357174.33721
  20132250.285   -20864502.791 8 -16174149.60223
  19665680.410   -19561733.816 7 -14885774.08622
  19371155.371   -25576270.546 7 -19783653.50423
 91  3 29  1 48 14.9960000  0  4G15G 2G13G 6
  22810388.2624   -4391345.98545  -3345538.85261
  20133404.176   -20858446.575 8 -16169430.46023
  19659544.293   -19593973.908 7 -14910896.18622
  19369524.066   -25584833.215 7 -19790325.69423
 91  3 29  1 48 29.9960000  0  4G15G 2G13G 6
  22813257.3484   -4376277.02945  -3333796.78261
  20134564.879   -20852342.044 8 -16164673.67123
  19653436.6914  -19626071.72347 -14935907.41862
  19367919.176   -25593271.272 7 -19796900.78423
 91  3 29  1 48 44.9960000  0  4G15G 2G13G 6
  22816149.6764   -4361066.77345  -3321944.60361
  20135736.660   -20846184.362 8 -16159875.46023
  19647356.277   -19658022.544 7 -14960804.10922
  19366338.535   -25601579.794 7 -19803374.93923
 91  3 29  1 48 59.9960000  0  4G15G 2G13G 6
  22819069.5274   -4345725.59445  -3309990.42761
  20136916.816   -20839983.442 8 -16155043.56423
  19641302.887   -19689835.952 7 -14985593.72522
  19364779.895   -25609768.606 7 -19809755.80823
 91  3 29  1 49 14.9960000  0  4G15G 2G13G 6
  22822014.754    -4330253.475 5  -3297934.20321
  20138105.066   -20833739.177 8 -16150177.88723
  19635274.449   -19721511.828 7 -15010276.17022
  19363244.473   -25617837.193 7 -19816042.99922
 91  3 29  1 49 29.9960000  0  4G15G 2G13G 6
  22824982.715    -4314650.461 5  -3285775.98721
  20139301.559   -20827451.388 8 -16145278.29923
  19629273.027   -19753050.040 7 -15034851.34822
  19361732.145   -25625785.452 7 -19822236.42323
 91  3 29  1 49 44.9960000  0  4G15G 2G13G 6
  22827975.488    -4298920.701 5  -3273519.00021
  20140505.707   -20821124.206 8 -16140348.01623
  19623297.699   -19784454.322 7 -15059322.16222
  19360241.488   -25633617.090 7 -19828338.97822
 91  3 29  1 49 59.9960000  0  4G15G 2G13G 6
  22830994.543    -4283058.805 5  -3261159.06321
  20141718.027   -20814751.874 8 -16135382.54823
  19617347.715   -19815719.326 7 -15083684.45022
  19358774.363   -25641326.450 7 -19834346.24822
 91  3 29  1 50 14.9960000  0  4G15G 2G13G 6
  22834037.957    -4267065.245 5  -3248696.54021
  20142939.238   -20808334.494 8 -16130381.98023
  19611425.3954  -19846844.97747 -15107938.15062
  19357330.293   -25648913.435 7 -19840258.15623
 91  3 29  1 50 29.9960000  0  4G15G 2G13G 6
  22837105.2544   -4250942.75045  -3236133.51361
  20144168.418   -20801874.800 8 -16125348.44023
  19605527.5204  -19877834.02547 -15132085.40562
  19355909.574   -25656380.515 7 -19846076.63923
 91  3 29  1 50 44.9960000  0  4G15G 2G13G 6
  22840199.2314   -4234688.91145  -3223468.17661
  20145406.4654  -20795370.66648 -16120280.27263
  19599656.449   -19908684.112 7 -15156124.38522
  19354512.277   -25663725.311 7 -19851799.83222
 91  3 29  1 50 59.9960000  0  4G15G 2G13G 6
  22843316.988    -4218301.195 5  -3210698.50921
  20146653.152   -20788819.163 8 -16115175.19423
  19593813.418   -19939392.141 7 -15180052.66422
  19353138.7774  -25670944.70647 -19857425.31063
 91  3 29  1 51 14.9960000  0  4G15G 2G13G 6
  22846460.7854   -4201781.56645  -3197826.03661
  20147907.949   -20782221.845 8 -16110034.41223
  19587996.543   -19969959.590 7 -15203871.39822
  19351788.379   -25678040.173 7 -19862954.22722
 91  3 29  1 51 29.9960000  0  4G15G 2G13G 6
  22849627.9814   -4185127.79645  -3184849.04561
  20149173.254   -20775576.342 8 -16104856.08523
  19582207.441   -20000384.354 7 -15227578.95722
  19350461.856   -25685009.340 7 -19868384.72123
 91  3 29  1 51 44.9960000  0  4G15G 2G13G 6
  22852823.2704   -4168340.38645  -3171767.92861
  20150446.824   -20768882.870 8 -16099640.37323
  19576444.098   -20030666.682 7 -15251175.52422
  19349159.613   -25691852.255 7 -19873716.84523
 91  3 29  1 51 59.9960000  0  4G15G 2G13G 6
  22856041.9414   -4151425.54245  -3158587.49461
  20151727.918   -20762147.472 8 -16094391.99723
  19570707.020   -20060812.291 7 -15274665.55822
  19347880.840   -25698574.569 7 -19878954.98823
 91  3 29  1 52 14.9960000  0  4G15G 2G13G 6
  22859284.043    -4134384.398 5  -3145308.65921
  20153018.090   -20755370.966 8 -16089111.59123
  19564997.2154  -20090822.34147 -15298049.95762
  19346624.246   -25705177.185 7 -19884099.86323
 91  3 29  1 52 29.9960000  0  4G15G 2G13G 6
  22862555.1374   -4117210.69245  -3131926.51661
  20154316.223   -20748546.910 8 -16083794.12623
  19559312.965   -20120690.187 7 -15321323.55122
  19345391.340   -25711653.419 7 -19889146.25723
 91  3 29  1 52 44.9960000  0  4G15G 2G13G 6
  22865845.2074   -4099909.04945  -3118444.67461
  20155623.301   -20741679.742 8 -16078443.07223
  19553656.113   -20150419.899 7 -15344489.51222
  19344182.277   -25718007.478 7 -19894097.45023
 91  3 29  1 52 59.9960000  0  4G15G 2G13G 6
  22869163.8164   -4082476.36045  -3104860.75161
  20156938.941   -20734766.352 8 -16073055.99923
  19548024.660   -20180008.395 7 -15367545.43122
  19342996.785   -25724236.091 7 -19898950.89023
 91  3 29  1 53 14.9960000  0  4G15G 2G13G 6
  22872505.793    -4064912.893 5  -3091174.87521
  20158263.402   -20727806.850 8 -16067632.99223
  19542421.262   -20209455.966 7 -15390491.53922
  19341835.504   -25730339.146 7 -19903706.49523
 91  3 29  1 53 29.9960000  0  4G15G 2G13G 6
  22875871.957    -4047221.347 5  -3077389.23521
  20159595.574   -20720803.705 8 -16062175.97923
  19536843.879   -20238764.859 7 -15413329.58522
  19340698.066   -25736319.007 7 -19908366.10623
 91  3 29  1 53 44.9960000  0  4G15G 2G13G 6
  22879264.1374   -4029401.91745  -3063503.92361
  20160936.152   -20713756.973 8 -16056685.00323
  19531292.387   -20267935.053 7 -15436059.55722
  19339583.332   -25742175.575 7 -19912929.64223
 91  3 29  1 53 59.9960000  0  4G15G 2G13G 6
  22882677.637    -4011460.044 5  -3049523.22821
  20162285.606   -20706671.721 8 -16051164.01123
  19525767.457   -20296971.847 7 -15458685.57722
  19338491.121   -25747913.866 7 -19917401.01423
 91  3 29  1 54 14.9960000  0  4G15G 2G13G 6
  22886116.941    -3993388.315 5  -3035441.30921
  20163642.113   -20699540.264 8 -16045607.01423
  19520268.832   -20325867.223 7 -15481201.40522
  19337423.231   -25753525.861 7 -19921773.97523
 91  3 29  1 54 29.9960000  0  4G15G 2G13G 6
  22889578.981    -3975187.352 5  -3021258.71921
  20165007.090   -20692363.248 8 -16040014.51323
  19514797.887   -20354622.079 7 -15503607.73122
  19336379.285   -25759012.127 7 -19926048.96623
 91  3 29  1 54 44.9960000  0  4G15G 2G13G 6
  22893067.098    -3956860.290 5  -3006977.84921
  20166381.832   -20685143.332 8 -16034388.58323
  19509352.066   -20383238.831 7 -15525906.44821
  19335358.520   -25764375.326 7 -19930228.05923
 91  3 29  1 54 59.9960000  0  4G15G 2G13G 6
  22896578.504    -3938405.273 5  -2992597.28221
  20167763.441   -20677878.501 8 -16028727.66023
  19503932.590   -20411715.348 7 -15548095.88922
  19334361.457   -25769613.057 7 -19934309.39023
 91  3 29  1 55 14.9960000  0  4G15G 2G13G 6
  22900115.402    -3919820.537 5  -2978115.65121
  20169155.137   -20670566.859 8 -16023030.25723
  19498540.434   -20440049.937 7 -15570174.74222
  19333389.426   -25774723.376 7 -19938291.44123
 91  3 29  1 55 29.9960000  0  4G15G 2G13G 6
  22903676.6914   -3901109.68745  -2963535.72961
  20170555.512   -20663211.878 8 -16017299.08723
  19493175.059   -20468246.064 7 -15592145.69822
  19332440.941   -25779709.652 7 -19942176.82923
 91  3 29  1 55 44.9960000  0  4G15G 2G13G 6
  22907259.363    -3882270.806 5  -2948856.06021
  20171962.738   -20655811.445 8 -16011532.50123
  19487836.395   -20496301.508 7 -15614007.03322
  19331515.848   -25784569.657 7 -19945963.82223
 91  3 29  1 55 59.9960000  0  4G15G 2G13G 6
  22910869.5664   -3863302.91745  -2934075.85761
  20173380.371   -20648364.500 8 -16005729.67523
  19482524.059   -20524215.027 7 -15635757.77422
  19330615.777   -25789302.016 7 -19949651.35923
 91  3 29  1 56 14.9960000  0  4G15G 2G13G 6
  22914505.121    -3844210.146 5  -2919198.34421
  20174805.801   -20640874.646 8 -15999893.40423
  19477238.184   -20551990.432 7 -15657400.89522
  19329738.496   -25793910.337 7 -19953242.24322
 91  3 29  1 56 29.9960000  0  4G15G 2G13G 6
  22918159.5744   -3824989.40145  -2904221.10261
  20176239.754   -20633338.682 8 -15994021.20523
  19471979.309   -20579624.670 7 -15678934.02022
  19328885.191   -25798391.310 7 -19956733.89622
 91  3 29  1 56 44.9960000  0  4G15G 2G13G 6
  22921842.9104   -3805638.88045  -2889142.76961
  20177683.129   -20625754.528 8 -15988111.45623
  19466748.496   -20607115.537 7 -15700355.42322
  19328057.379   -25802742.675 7 -19960124.55022
 91  3 29  1 56 59.9960000  0  4G15G 2G13G 6
  22925549.2624   -3786162.44645  -2873966.28661
  20179134.481   -20618125.979 8 -15982167.11623
  19461543.863   -20634466.725 7 -15721667.99122
  19327253.363   -25806968.102 7 -19963417.07522
 91  3 29  1 57 14.9960000  0  4G15G 2G13G 6
  22929279.0204   -3766561.94345  -2858693.14361
  20180594.738   -20610454.419 8 -15976189.25523
  19456364.816   -20661679.813 7 -15742872.94322
  19326474.020   -25811068.845 7 -19966612.44122
 91  3 29  1 57 29.9960000  0  4G15G 2G13G 6
  22933034.504    -3746836.223 5  -2843322.42721
  20182062.629   -20602738.501 8 -15970176.83523
  19451213.738   -20688752.908 7 -15763968.80522
  19325716.160   -25815043.361 7 -19969709.45222
